[[{"header":{"parameterUnit":"m.s-1","parameterCategory":1,"la1":30.6,"la2":29.2853,"lo1":-89.7004,"lo2":-87.6739,"dy":0.0162,"dx":0.0183,"nx":112,"ny":82,"refTime":"2023-08-22T06:00:00:Z","depth":0,"parameterNumber":2,"parameterNumberName":"U-component_of_WINDS"},"data":[0.0,0.0,0.0,0.0,0.0,0.0,0.0,0.0,0.0,0.0,0.0,0.0,0.0,0.0,0.0,0.0,0.0,0.0,0.0,0.0,0.0,0.0,0.0,0.0,0.0,0.0,0.0,0.0,0.0,0.0,0.0,0.0,0.0,0.0,0.0,0.0,0.0,0.0,0.0,0.0,0.0,0.0,0.0,0.0,0.0,0.0,0.0,0.0,0.0,0.0,0.0,0.0,0.0,0.0,0.0,0.0,0.0,0.0,0.0,0.0,0.0,0.0,0.0,0.0,0.0,0.0,0.0,0.0,0.0,0.0,0.0,0.0,0.0,0.0,0.0,0.0,0.0,0.0,0.0,0.0,0.0,0.0,0.0,0.0,0.0,0.0,0.0,0.0,0.0,0.0,-1.2299,-1.4483,-1.7046,-1.9292,-2.0933,-2.0123,-1.9677,-2.0081,0.0,0.0,0.0,0.0,0.0,0.0,0.0,0.0,0.0,0.0,0.0,0.0,0.0,0.0,0.0,0.0,0.0,0.0,0.0,0.0,0.0,0.0,0.0,0.0,0.0,0.0,0.0,0.0,0.0,0.0,0.0,0.0,0.0,0.0,0.0,0.0,0.0,0.0,0.0,0.0,0.0,0.0,0.0,0.0,0.0,0.0,0.0,0.0,0.0,0.0,0.0,0.0,0.0,0.0,0.0,0.0,0.0,0.0,0.0,0.0,0.0,0.0,0.0,0.0,0.0,0.0,0.0,0.0,0.0,0.0,0.0,0.0,0.0,0.0,0.0,0.0,0.0,0.0,0.0,0.0,0.0,0.0,0.0,0.0,0.0,0.0,0.0,0.0,0.0,0.0,0.0,0.0,0.0,0.0,0.0,0.0,0.0,0.0,0.0,0.0,0.0,0.0,0.0,0.0,-1.4143,-1.4643,-1.6553,-1.8179,-1.9134,-1.7217,-1.6907,-1.9069,0.0,0.0,0.0,0.0,0.0,0.0,0.0,0.0,0.0,0.0,0.0,0.0,0.0,0.0,0.0,0.0,0.0,0.0,0.0,0.0,0.0,0.0,0.0,0.0,0.0,0.0,0.0,0.0,0.0,0.0,0.0,0.0,0.0,0.0,0.0,0.0,0.0,0.0,0.0,0.0,0.0,0.0,0.0,0.0,0.0,0.0,0.0,0.0,0.0,0.0,0.0,0.0,0.0,0.0,0.0,0.0,0.0,0.0,0.0,0.0,0.0,0.0,0.0,0.0,0.0,0.0,0.0,0.0,0.0,0.0,0.0,0.0,0.0,0.0,0.0,0.0,0.0,0.0,0.0,0.0,0.0,0.0,0.0,0.0,0.0,0.0,0.0,0.0,0.0,0.0,0.0,0.0,0.0,0.0,0.0,0.0,0.0,0.0,0.0,0.0,0.0,0.0,0.0,-1.4187,-1.4383,-1.4074,-1.5631,-1.7085,-1.8077,-1.5864,-1.5747,-1.8819,-1.7702,0.0,0.0,0.0,0.0,0.0,0.0,0.0,0.0,0.0,0.0,0.0,0.0,0.0,0.0,0.0,0.0,0.0,0.0,0.0,0.0,0.0,0.0,0.0,0.0,0.0,0.0,0.0,0.0,0.0,0.0,0.0,0.0,0.0,0.0,0.0,0.0,0.0,0.0,0.0,0.0,0.0,0.0,0.0,0.0,0.0,0.0,0.0,0.0,0.0,0.0,0.0,0.0,0.0,0.0,0.0,0.0,0.0,0.0,0.0,0.0,0.0,0.0,0.0,0.0,0.0,0.0,0.0,0.0,0.0,0.0,0.0,0.0,0.0,0.0,0.0,0.0,0.0,0.0,0.0,0.0,0.0,0.0,0.0,0.0,0.0,0.0,0.0,0.0,0.0,0.0,0.0,0.0,0.0,0.0,0.0,0.0,0.0,0.0,0.0,0.0,0.0,0.0,-1.3416,-1.3819,-1.3486,-1.4754,-1.5977,-1.6872,-1.4947,-1.5023,-1.8215,-1.6388,0.0,0.0,0.0,0.0,0.0,0.0,0.0,0.0,0.0,0.0,0.0,0.0,0.0,0.0,0.0,0.0,0.0,0.0,0.0,0.0,0.0,0.0,0.0,0.0,0.0,0.0,0.0,0.0,0.0,0.0,0.0,0.0,0.0,0.0,0.0,0.0,0.0,0.0,0.0,0.0,0.0,0.0,0.0,0.0,0.0,0.0,0.0,0.0,0.0,0.0,0.0,0.0,0.0,0.0,0.0,0.0,0.0,0.0,0.0,0.0,0.0,0.0,0.0,0.0,0.0,0.0,0.0,0.0,0.0,0.0,0.0,0.0,0.0,0.0,0.0,0.0,0.0,0.0,0.0,0.0,0.0,0.0,0.0,0.0,0.0,0.0,0.0,0.0,0.0,0.0,0.0,0.0,0.0,0.0,0.0,0.0,0.0,0.0,0.0,0.0,0.0,0.0,-1.3123,-1.2545,-1.3246,-1.419,-1.484,-1.4991,-1.3982,-1.4296,-1.6535,-1.5753,0.0,0.0,0.0,0.0,0.0,0.0,0.0,0.0,0.0,0.0,0.0,0.0,0.0,0.0,0.0,0.0,0.0,0.0,0.0,0.0,0.0,0.0,0.0,0.0,0.0,0.0,0.0,0.0,0.0,0.0,0.0,0.0,0.0,0.0,0.0,0.0,0.0,0.0,0.0,0.0,0.0,0.0,0.0,0.0,0.0,0.0,0.0,0.0,0.0,0.0,0.0,0.0,0.0,0.0,0.0,0.0,0.0,0.0,0.0,0.0,0.0,0.0,0.0,0.0,0.0,0.0,0.0,0.0,0.0,0.0,0.0,0.0,0.0,0.0,0.0,0.0,0.0,0.0,0.0,0.0,0.0,0.0,0.0,0.0,0.0,0.0,0.0,0.0,0.0,0.0,0.0,0.0,0.0,0.0,0.0,0.0,0.0,0.0,0.0,0.0,0.0,0.0,-1.3956,-1.3141,0.0,-1.3018,-1.3671,-1.3325,-1.2451,-1.2991,-1.5529,0.0,0.0,0.0,0.0,0.0,0.0,0.0,0.0,0.0,0.0,0.0,0.0,0.0,0.0,0.0,0.0,0.0,0.0,0.0,0.0,0.0,0.0,0.0,0.0,0.0,0.0,0.0,0.0,0.0,0.0,0.0,0.0,0.0,0.0,0.0,0.0,0.0,0.0,0.0,0.0,0.0,0.0,0.0,0.0,0.0,0.0,0.0,0.0,0.0,0.0,0.0,0.0,0.0,0.0,0.0,0.0,0.0,0.0,0.0,0.0,0.0,0.0,0.0,0.0,0.0,0.0,0.0,0.0,0.0,0.0,0.0,0.0,0.0,0.0,0.0,0.0,0.0,0.0,0.0,0.0,0.0,0.0,0.0,0.0,0.0,0.0,0.0,0.0,0.0,0.0,0.0,0.0,0.0,0.0,0.0,0.0,0.0,0.0,0.0,0.0,0.0,0.0,-1.4646,-1.3827,-1.2727,0.0,-1.2123,-1.2687,-1.2034,-1.1669,-1.242,-1.4645,0.0,0.0,0.0,0.0,0.0,0.0,0.0,0.0,0.0,0.0,0.0,0.0,0.0,0.0,0.0,0.0,0.0,0.0,0.0,0.0,0.0,0.0,0.0,0.0,0.0,0.0,0.0,0.0,0.0,0.0,0.0,0.0,0.0,0.0,0.0,0.0,0.0,0.0,0.0,0.0,0.0,0.0,0.0,0.0,0.0,0.0,0.0,0.0,0.0,0.0,0.0,0.0,0.0,0.0,0.0,0.0,0.0,0.0,0.0,0.0,0.0,0.0,0.0,0.0,0.0,0.0,0.0,0.0,0.0,0.0,0.0,0.0,0.0,0.0,0.0,0.0,0.0,0.0,0.0,0.0,0.0,0.0,0.0,0.0,0.0,0.0,0.0,0.0,0.0,0.0,0.0,0.0,0.0,0.0,0.0,0.0,0.0,0.0,0.0,0.0,0.0,0.0,-1.4522,-1.2397,-1.0893,-1.0893,-1.168,-1.1884,-1.1147,-1.1824,-1.2747,0.0,0.0,0.0,0.0,0.0,0.0,0.0,0.0,0.0,0.0,0.0,0.0,0.0,0.0,0.0,0.0,0.0,0.0,0.0,0.0,0.0,0.0,0.0,0.0,0.0,0.0,0.0,0.0,0.0,0.0,0.0,0.0,0.0,0.0,0.0,0.0,0.0,0.0,0.0,0.0,0.0,0.0,0.0,0.0,0.0,0.0,0.0,0.0,0.0,0.0,0.0,0.0,0.0,0.0,0.0,0.0,0.0,0.0,0.0,0.0,0.0,0.0,0.0,0.0,0.0,0.0,0.0,0.0,0.0,0.0,0.0,0.0,0.0,0.0,0.0,0.0,0.0,0.0,0.0,0.0,0.0,0.0,0.0,0.0,0.0,0.0,0.0,0.0,0.0,0.0,0.0,0.0,0.0,0.0,0.0,0.0,0.0,0.0,0.0,0.0,0.0,0.0,0.0,-1.4517,-1.2397,-1.0673,-1.0113,-1.0827,-1.1061,-1.0314,-1.0501,-1.1367,-1.294,0.0,0.0,0.0,0.0,0.0,0.0,0.0,0.0,0.0,0.0,0.0,0.0,0.0,0.0,0.0,0.0,0.0,0.0,0.0,0.0,0.0,0.0,0.0,0.0,0.0,0.0,0.0,0.0,0.0,0.0,0.0,0.0,0.0,0.0,0.0,0.0,0.0,0.0,0.0,0.0,0.0,0.0,0.0,0.0,0.0,0.0,0.0,0.0,0.0,0.0,0.0,0.0,0.0,0.0,0.0,0.0,0.0,0.0,0.0,0.0,0.0,0.0,0.0,0.0,0.0,0.0,0.0,0.0,0.0,0.0,0.0,0.0,0.0,0.0,0.0,0.0,0.0,0.0,0.0,0.0,0.0,0.0,0.0,0.0,0.0,0.0,0.0,0.0,0.0,0.0,0.0,0.0,0.0,0.0,0.0,0.0,0.0,0.0,0.0,0.0,0.0,0.0,-1.4499,-1.2113,-1.0241,-0.9753,-1.0216,-1.0381,-0.9943,-0.9976,-1.0703,-1.2233,0.0,0.0,0.0,0.0,0.0,0.0,0.0,0.0,0.0,0.0,0.0,0.0,0.0,0.0,0.0,0.0,0.0,0.0,0.0,0.0,0.0,0.0,0.0,0.0,0.0,0.0,0.0,0.0,0.0,0.0,0.0,0.0,0.0,0.0,0.0,0.0,0.0,0.0,0.0,0.0,0.0,0.0,0.0,0.0,0.0,0.0,0.0,0.0,0.0,0.0,0.0,0.0,0.0,0.0,0.0,0.0,0.0,0.0,0.0,0.0,0.0,0.0,0.0,0.0,0.0,0.0,0.0,0.0,0.0,0.0,0.0,0.0,0.0,0.0,0.0,0.0,0.0,0.0,0.0,0.0,0.0,0.0,0.0,0.0,0.0,0.0,0.0,0.0,0.0,0.0,0.0,0.0,0.0,0.0,0.0,0.0,0.0,0.0,0.0,0.0,0.0,0.0,-1.4526,-1.171,-0.9698,-0.9698,-0.9818,-0.9893,-0.9893,-1.0025,-1.0594,-1.1728,0.0,0.0,0.0,0.0,0.0,0.0,0.0,0.0,0.0,0.0,0.0,0.0,0.0,0.0,0.0,0.0,0.0,0.0,0.0,0.0,0.0,0.0,0.0,0.0,0.0,0.0,0.0,0.0,0.0,0.0,0.0,0.0,0.0,0.0,0.0,0.0,0.0,0.0,0.0,0.0,0.0,0.0,0.0,0.0,0.0,0.0,0.0,0.0,0.0,0.0,0.0,0.0,0.0,0.0,0.0,0.0,0.0,0.0,0.0,0.0,-2.0813,0.0,0.0,0.0,0.0,0.0,0.0,0.0,0.0,0.0,0.0,0.0,0.0,0.0,0.0,0.0,0.0,0.0,0.0,0.0,0.0,0.0,0.0,0.0,0.0,0.0,0.0,0.0,0.0,0.0,0.0,0.0,0.0,0.0,0.0,0.0,0.0,0.0,0.0,0.0,0.0,0.0,-1.465,-1.1753,-0.9698,-0.9698,-0.9818,-0.9893,-0.9893,-1.0025,-1.0594,-1.1728,-1.2695,0.0,0.0,0.0,0.0,0.0,0.0,0.0,0.0,0.0,0.0,0.0,0.0,0.0,0.0,0.0,0.0,0.0,0.0,0.0,0.0,0.0,0.0,0.0,0.0,0.0,0.0,0.0,0.0,0.0,0.0,0.0,0.0,0.0,0.0,0.0,0.0,0.0,0.0,0.0,0.0,0.0,0.0,0.0,0.0,0.0,0.0,0.0,0.0,0.0,0.0,0.0,0.0,0.0,0.0,0.0,0.0,0.0,0.0,0.0,0.0,-2.1343,0.0,0.0,0.0,0.0,0.0,0.0,0.0,0.0,0.0,0.0,0.0,0.0,0.0,0.0,0.0,0.0,0.0,0.0,0.0,0.0,0.0,0.0,0.0,0.0,0.0,0.0,0.0,0.0,0.0,0.0,0.0,0.0,0.0,0.0,0.0,0.0,0.0,0.0,0.0,0.0,-1.4681,-1.176,-0.9698,-0.9698,-0.9818,-0.9893,-0.9893,-1.0025,-1.0344,-1.094,-1.231,0.0,0.0,0.0,0.0,0.0,0.0,0.0,0.0,0.0,0.0,0.0,0.0,0.0,0.0,0.0,0.0,0.0,0.0,0.0,0.0,0.0,0.0,0.0,0.0,0.0,0.0,0.0,0.0,0.0,0.0,0.0,0.0,0.0,0.0,0.0,0.0,0.0,0.0,0.0,0.0,0.0,0.0,0.0,0.0,0.0,0.0,0.0,0.0,0.0,0.0,0.0,0.0,0.0,-2.4506,-2.4263,-2.3988,-2.3988,-2.318,-2.1803,-2.1803,-2.0939,-1.9675,-2.173,0.0,0.0,0.0,0.0,0.0,0.0,0.0,0.0,0.0,0.0,0.0,0.0,0.0,0.0,0.0,0.0,0.0,0.0,0.0,0.0,0.0,0.0,-2.1563,-2.1749,-2.0642,-1.9295,-1.8342,0.0,0.0,0.0,0.0,0.0,0.0,0.0,0.0,0.0,0.0,0.0,-1.4699,-1.202,-1.0074,-0.9942,-1.003,-1.0068,-0.9935,-1.0034,-1.0094,-1.0094,-1.1863,-1.3517,0.0,0.0,0.0,0.0,0.0,0.0,0.0,0.0,0.0,0.0,0.0,0.0,0.0,0.0,0.0,0.0,0.0,0.0,0.0,0.0,0.0,0.0,0.0,0.0,0.0,0.0,0.0,0.0,0.0,0.0,0.0,0.0,-2.0002,-2.502,0.0,0.0,0.0,0.0,0.0,0.0,0.0,0.0,0.0,0.0,0.0,0.0,0.0,-2.5716,-2.5406,-2.602,-2.5976,-2.5277,-2.5237,-2.4502,-2.3162,-2.3162,-2.2666,-2.1803,-2.1803,0.0,-2.0356,-2.0686,0.0,0.0,0.0,0.0,0.0,0.0,0.0,0.0,0.0,0.0,0.0,0.0,0.0,0.0,0.0,0.0,0.0,0.0,0.0,0.0,0.0,0.0,-1.9663,-1.9693,-1.9512,-1.893,-1.7422,-1.8528,-1.979,-1.9821,-1.9257,0.0,0.0,0.0,0.0,0.0,0.0,0.0,-1.4774,-1.2984,-1.1544,-1.0896,-1.0899,-1.0684,-1.0029,-1.0061,-1.0094,-1.0094,-1.0383,-1.1498,-1.3632,-1.3714,0.0,0.0,0.0,0.0,0.0,0.0,0.0,0.0,0.0,0.0,0.0,0.0,0.0,0.0,0.0,0.0,0.0,0.0,0.0,0.0,0.0,0.0,0.0,0.0,0.0,0.0,0.0,0.0,0.0,-2.1844,-2.3335,-2.5404,-2.5561,-2.5503,0.0,0.0,0.0,0.0,0.0,0.0,0.0,0.0,0.0,-2.5048,-2.5998,-2.6189,-2.5541,-2.6252,-2.6429,-2.6062,-2.5623,-2.5035,-2.4318,-2.3878,-2.3474,-2.3144,-2.3144,-2.2685,-2.1896,-2.1896,-2.2337,-2.3033,0.0,0.0,0.0,0.0,-2.34,-2.296,-2.2593,-2.2171,-2.1858,-2.2208,0.0,0.0,0.0,0.0,0.0,0.0,0.0,-2.2667,0.0,0.0,-2.1143,-2.0207,-1.9968,-1.9656,-1.85,-1.892,-1.954,-1.9657,-1.9484,-1.9612,-2.0481,0.0,0.0,0.0,0.0,-1.5067,-1.4841,-1.333,-1.2143,-1.1812,-1.1844,-1.1578,-1.0803,-1.0779,-1.0617,-1.0133,-1.0094,-1.0844,-1.2478,-1.3541,-1.5061,0.0,0.0,0.0,0.0,0.0,0.0,0.0,0.0,0.0,0.0,0.0,0.0,0.0,0.0,0.0,0.0,0.0,0.0,0.0,0.0,0.0,0.0,0.0,0.0,0.0,0.0,0.0,0.0,-2.373,-2.6643,-2.5753,-2.573,-2.571,0.0,0.0,0.0,0.0,0.0,0.0,-2.6582,-2.7036,-2.6917,-2.6086,-2.7075,-2.7121,-2.6091,-2.6838,-2.7218,-2.72,-2.6392,-2.5917,-2.5676,-2.4869,-2.4392,-2.419,-2.419,-2.3859,-2.329,-2.3088,-2.2997,-2.307,-2.3657,-2.3657,-2.3364,-2.3749,-2.3511,-2.2978,-2.2758,-2.2299,-2.1839,-2.2024,-2.192,-2.1786,-2.2443,0.0,0.0,0.0,0.0,-2.3221,-2.3221,-2.2973,-2.2391,-2.1143,-2.0649,-2.0264,-1.9473,-1.9542,-1.9703,0.0,-1.9507,-1.9794,-2.0706,0.0,0.0,0.0,0.0,-1.5019,-1.4902,-1.3811,-1.2974,-1.2787,-1.2795,-1.2508,-1.1732,-1.1503,-1.1118,-1.0464,-1.021,-1.0575,-1.1656,-1.3541,-1.5214,-1.6599,0.0,0.0,0.0,0.0,0.0,0.0,0.0,0.0,0.0,0.0,0.0,0.0,0.0,0.0,0.0,0.0,0.0,0.0,0.0,0.0,0.0,0.0,0.0,0.0,0.0,0.0,0.0,0.0,0.0,-2.563,-2.6126,0.0,0.0,0.0,0.0,-2.6534,-2.8016,-2.8236,-2.6678,-2.8879,-2.8982,-2.6371,-2.8398,-2.9062,-2.7978,-2.8562,-2.8865,-2.8865,-2.8062,-2.7273,-2.6521,-2.5695,-2.4905,-2.419,-2.419,-2.4171,-2.408,-2.3327,-2.2997,-2.2997,-2.3033,-2.3511,-2.4043,-2.3327,-2.3015,-2.2905,-2.2116,-2.1839,-2.1931,-2.2703,-2.3419,-2.4081,-2.4314,-2.4245,0.0,0.0,-2.3171,-2.3033,-2.3033,-2.2446,-2.1839,-2.1766,-2.1106,-2.0264,-1.9473,-2.0201,-2.0678,0.0,-1.885,-1.8721,-1.9548,0.0,-1.73,-1.7377,-1.6611,-1.5772,-1.4998,-1.4828,-1.4511,-1.3804,-1.3742,-1.343,-1.269,-1.1868,-1.1387,-1.1329,-1.056,-1.0502,-1.1387,-1.2334,-1.3104,-1.369,-1.5805,0.0,0.0,0.0,0.0,0.0,0.0,0.0,0.0,0.0,0.0,0.0,0.0,0.0,0.0,0.0,0.0,0.0,0.0,0.0,0.0,0.0,0.0,0.0,0.0,0.0,0.0,0.0,0.0,-2.8767,-2.8936,0.0,-2.9458,-2.9222,-2.9063,-2.9063,-2.9602,-2.9929,-2.989,-3.058,-3.0791,-3.0371,-3.0317,-3.0092,-2.9714,-2.9248,-2.8994,-2.8975,-2.7658,-2.6888,-2.6557,-2.5236,-2.4465,-2.419,-2.419,-2.419,-2.4171,-2.3896,-2.3768,-2.3768,-2.3768,-2.3639,-2.3456,-2.3694,-2.3437,-2.3033,-2.3254,-2.3015,-2.2538,-2.2299,-2.2409,-2.2666,-2.2753,-2.2718,-2.2721,-2.3031,-2.3051,-2.3162,-2.3802,-2.3657,-2.3253,-2.2875,-2.2097,-2.1393,-2.1105,-2.1076,-2.096,-2.0532,-1.9941,-1.9579,-1.9831,-1.8466,-1.7577,-1.8165,-1.7091,-1.6132,-1.5828,-1.5388,-1.4998,-1.4724,-1.4705,-1.4372,-1.3536,-1.319,-1.2613,-1.1714,-1.1363,-1.0998,-1.0579,-1.1949,-1.3296,-1.4574,-1.5382,-1.3676,0.0,0.0,0.0,0.0,0.0,0.0,0.0,0.0,0.0,0.0,0.0,0.0,0.0,0.0,0.0,0.0,0.0,0.0,0.0,0.0,0.0,0.0,0.0,0.0,0.0,0.0,-3.041,-3.1305,-3.1572,-3.1811,-3.2141,-3.1862,-3.1564,-3.1275,-3.1795,-3.2122,-3.2102,-3.221,-3.2288,-3.2307,-3.1347,-3.0659,-3.03,-2.9233,-2.8666,-2.8594,-2.7255,-2.6612,-2.6557,-2.5493,-2.485,-2.4593,-2.4593,-2.4447,-2.419,-2.419,-2.419,-2.419,-2.419,-2.3878,-2.3474,-2.4006,-2.3859,-2.3492,-2.4025,-2.3859,-2.3327,-2.2776,-2.2593,-2.2593,-2.2593,-2.2664,-2.2825,-2.3362,-2.3544,-2.3758,-2.4428,-2.4512,-2.4222,-2.3546,-2.2926,-2.2424,-2.2168,-2.1846,-2.1609,-2.1609,-2.1001,-2.0394,-2.005,-1.8858,-1.8238,-1.9158,-1.7627,-1.6471,-1.6739,-1.585,-1.5189,-1.5189,-1.5189,-1.4978,-1.4382,-1.4343,-1.3824,-1.2594,-1.2517,-1.2171,-1.1402,-1.1675,-1.2545,-1.4063,-1.3736,-1.362,-1.3789,0.0,0.0,0.0,0.0,0.0,0.0,0.0,0.0,0.0,0.0,0.0,0.0,0.0,0.0,0.0,0.0,0.0,0.0,0.0,0.0,0.0,0.0,0.0,-2.9428,-3.0854,-3.2212,-3.3063,-3.3832,-3.3987,-3.3179,-3.3833,-3.3968,-3.3122,-3.4603,-3.4795,-3.3103,-3.3776,-3.3449,-3.1833,-3.147,-3.0798,-2.9751,-2.8671,-2.8046,-2.7824,-2.7016,-2.6649,-2.6649,-2.6594,-2.6135,-2.5403,-2.5384,-2.4905,-2.419,-2.419,-2.419,-2.419,-2.419,-2.419,-2.419,-2.419,-2.419,-2.419,-2.419,-2.419,-2.419,-2.419,-2.419,-2.4209,-2.4209,-2.4339,-2.4512,-2.4512,-2.4654,-2.4804,-2.4804,-2.4804,-2.4596,-2.3742,-2.3534,-2.3302,-2.2559,-2.2528,-2.2647,-2.2647,-2.1969,-2.11,-2.0203,-1.9498,-1.9338,-2.0177,-1.8157,0.0,-1.7606,-1.6234,-1.5209,-1.5228,-1.5266,-1.5272,-1.5234,-1.5253,-1.4901,-1.4055,-1.3959,-1.3934,-1.3934,-1.1575,-1.087,-1.2156,-1.1109,-1.3867,-2.0605,0.0,0.0,0.0,0.0,0.0,0.0,0.0,0.0,0.0,0.0,0.0,0.0,0.0,0.0,0.0,0.0,0.0,0.0,0.0,0.0,0.0,0.0,-3.2797,-3.2221,-3.349,-3.5021,-3.6446,-3.6824,-3.7103,-3.7488,-3.718,-3.6853,-3.6622,-3.6469,-3.6161,-3.568,-3.4737,-3.3987,-3.3526,-3.2077,-3.1083,-3.0656,-2.9569,-2.8915,-2.8668,-2.7842,-2.7475,-2.742,-2.6245,-2.5623,-2.5384,-2.4777,-2.4392,-2.419,-2.419,-2.419,-2.419,-2.419,-2.419,-2.419,-2.419,-2.419,-2.419,-2.419,-2.419,-2.419,-2.419,-2.4303,-2.4428,-2.4428,-2.4561,-2.4716,-2.4716,-2.476,-2.4814,-2.493,-2.4864,-2.4757,-2.4607,-2.4138,-2.3814,-2.4188,-2.3971,-2.3698,-2.3698,-2.3487,-2.2853,-2.1346,-2.045,-2.0023,-2.0254,-1.8638,0.0,-1.7664,-1.6234,-1.5445,-1.608,-1.6657,-1.6778,-1.6193,-1.6669,-1.6765,-1.6174,-1.5325,-1.4843,-1.4843,-1.417,-1.5191,-1.8142,-1.6626,-1.739,0.0,0.0,0.0,0.0,0.0,0.0,0.0,0.0,0.0,0.0,0.0,0.0,0.0,0.0,0.0,0.0,0.0,0.0,0.0,0.0,0.0,0.0,-3.5476,-3.6219,-3.6837,-3.7019,-3.7719,-3.9392,-3.9277,-3.9238,-3.9738,-3.9335,-3.8911,-3.8565,-3.7738,-3.7084,-3.6719,-3.5103,-3.4026,-3.366,-3.2568,-3.1482,-3.0467,-2.987,-2.9208,-2.8503,-2.8026,-2.7787,-2.7769,-2.7181,-2.6722,-2.6355,-2.5548,-2.5016,-2.4667,-2.4337,-2.419,-2.419,0.0,0.0,0.0,0.0,-2.419,-2.419,-2.419,-2.419,-2.4209,-2.4303,-2.4392,-2.4528,-2.4591,-2.4741,-2.4877,-2.4877,-2.4949,-2.5024,-2.5118,-2.5072,-2.5024,-2.5118,-2.4766,-2.4555,-2.5015,-2.4859,-2.4601,-2.4601,-2.4341,0.0,-2.2274,-2.135,-2.0812,-2.0812,-1.9331,-1.8376,-1.8734,-1.733,-1.6486,-1.6987,-1.7484,-1.7597,-1.7128,-1.7849,0.0,0.0,0.0,-1.6816,-1.6792,-1.6829,0.0,0.0,0.0,-1.6184,-1.6289,-1.3594,0.0,0.0,-2.054,-1.9458,0.0,0.0,0.0,0.0,0.0,0.0,0.0,0.0,0.0,0.0,0.0,0.0,0.0,0.0,0.0,0.0,-3.8853,-3.9677,-4.2174,-4.1001,-4.0365,-4.1643,-4.1123,-4.0604,-4.0508,-4.0489,-4.02,-3.9488,-3.8546,-3.7661,-3.6892,0.0,0.0,0.0,0.0,-3.1924,-2.9899,-2.9916,-2.927,-2.7981,-2.7956,-2.7934,-2.7952,-2.8594,-2.8484,-2.775,-2.6961,-2.6135,-2.5348,-2.463,-2.4337,-2.4318,-2.4245,-2.419,-2.419,-2.419,-2.419,-2.419,-2.419,0.0,0.0,-2.4426,-2.4545,-2.4591,-2.4756,-2.4917,-2.5034,-2.5034,-2.5163,-2.5303,-2.5303,-2.5303,-2.5303,-2.5303,-2.5303,-2.5303,-2.5303,-2.5303,-2.5303,-2.5303,-2.4716,-2.3956,-2.3109,-2.2139,-2.1466,-2.1389,-2.0031,-1.928,-2.0058,-1.8788,-1.7835,-1.7961,-1.8088,0.0,-1.8042,-1.8848,-1.8905,-1.7886,-1.8538,-1.8941,-1.8872,-1.8929,-1.8876,-1.8692,-1.5781,-1.3359,-1.1465,-1.1465,-1.4687,-2.0781,-2.0538,-1.8244,0.0,0.0,0.0,0.0,0.0,0.0,0.0,0.0,0.0,0.0,0.0,0.0,0.0,0.0,0.0,-4.0215,-4.1735,-4.3175,-4.4915,-4.4195,-4.3071,-4.1947,-4.1662,-4.1277,-4.0566,-4.0489,-4.0431,-4.0277,-3.8854,-3.793,-3.7757,-3.5488,-3.4122,-3.3949,-3.3276,-3.23,-3.0997,-3.0835,-3.019,-2.9089,0.0,0.0,-2.8737,-2.8264,-2.7952,-2.775,-2.6961,-2.6135,-2.5403,-2.5237,-2.5182,-2.5109,-2.4447,-2.419,-2.419,-2.419,-2.419,-2.419,-2.419,-2.4303,-2.4444,-2.4495,-2.4678,-2.4911,-2.4949,-2.5088,0.0,-2.5234,-2.5264,-2.5303,-2.5303,-2.5303,-2.5303,-2.5303,-2.5303,-2.5303,-2.5303,-2.5303,-2.5303,-2.5303,-2.5168,-2.4812,-2.3995,-2.2543,-2.1273,-2.0639,-1.9658,-1.9078,-1.9296,-1.8435,-1.8086,-1.8846,-1.9515,-1.965,-1.8995,-1.9692,-1.9542,-1.8041,-1.8061,-1.8139,-1.8104,-1.8067,-1.8266,-1.8692,-1.8125,-1.808,-1.8613,-1.8613,-1.9766,-2.1953,-2.0995,-2.0067,0.0,0.0,0.0,0.0,0.0,0.0,0.0,0.0,0.0,0.0,0.0,-3.5019,0.0,0.0,-4.0098,-4.2676,-4.3715,-4.4601,-4.5741,-4.509,-4.4001,-4.2618,-4.2066,-4.147,-4.0566,-4.0489,-4.0489,-4.0489,-3.9354,-3.8642,-3.8642,-3.6622,-3.5276,-3.4853,-3.4007,-3.2831,-3.1306,-3.1197,-3.0561,-2.9412,-2.9267,-2.9134,-2.8975,-2.8594,-2.8411,-2.8356,-2.7661,-2.7133,-2.6727,-2.6451,-2.5871,-2.5091,-2.5108,-2.5039,-2.4912,-2.461,-2.4495,-2.4495,-2.4495,-2.4578,-2.467,-2.4723,-2.4872,-2.5022,-2.5111,-2.5214,-2.5303,-2.5303,-2.5303,-2.5303,-2.5303,-2.5303,-2.5303,-2.5303,-2.5303,-2.5303,-2.5303,-2.5303,-2.5303,-2.5303,-2.5303,-2.5043,-2.4245,-2.3411,-2.2419,-2.1138,-2.0605,-2.0344,-2.0352,-2.0035,-2.013,-2.1017,-2.1135,-2.0982,-2.058,-2.0484,-2.0107,-1.929,-1.9197,-1.9146,-1.9156,-1.9111,-1.9266,-1.9591,-1.9636,-1.9952,-2.0605,-2.1035,-2.1543,-2.209,-2.1523,-2.1442,0.0,0.0,0.0,0.0,0.0,0.0,0.0,0.0,-3.4795,-3.5546,-3.6953,-3.8496,-3.9883,-4.0996,-4.2402,-4.4648,-4.505,-4.5221,-4.5604,-4.486,-4.3866,-4.2733,-4.2124,-4.147,-4.0566,-4.0489,-4.0431,-4.0277,-3.9508,-3.8969,-3.8796,-3.7315,-3.618,-3.5526,-3.4814,-3.3536,-3.1632,-3.1569,-3.0867,-2.9513,-2.9493,-2.9353,-2.9138,-2.9138,-2.9138,-2.9104,-2.8462,-2.8147,-2.8054,-2.7497,-2.648,-2.5314,-2.5853,-2.6045,-2.5955,-2.5103,-2.4804,-2.4804,-2.4804,-2.4818,-2.4855,-2.4962,-2.5022,-2.5088,-2.5253,-2.5303,-2.5303,-2.5303,-2.5303,-2.5303,-2.5303,-2.5303,-2.5303,-2.5303,-2.5303,-2.5303,-2.5303,-2.5303,-2.5303,-2.5303,-2.5303,-2.511,-2.4464,-2.4423,-2.3882,-2.212,-2.1915,-2.1943,-2.1895,-2.1994,-2.2298,-2.2955,-2.2491,-2.2148,-2.2148,-2.146,-2.1022,-2.1003,-2.0957,-2.0919,-2.0925,-2.0919,-2.0876,-2.0769,-2.0769,-2.0795,-2.0859,-2.1562,-2.1992,-2.2148,-2.2148,-2.2401,-3.2596,-3.2441,-3.2285,-3.3887,-3.375,-3.4453,0.0,0.0,-3.9199,-3.9297,-4.0098,-4.082,-4.1016,-4.2344,-4.3769,-4.4824,-4.5644,-4.5827,-4.4966,-4.407,-4.283,-4.1012,-4.1393,-4.147,-4.0566,-4.0489,-4.02,-3.9488,-3.8623,-3.7815,-3.7026,-3.6142,-3.5603,-3.5493,-3.5411,-3.4513,-3.275,-3.2541,-3.16,-2.9939,-2.9746,-2.9643,-2.9625,-2.9625,-2.9625,-2.9587,-2.8793,-2.833,-2.8054,-2.7462,-2.7091,-2.6899,-2.6441,-2.6686,-2.7096,-2.5414,-2.4804,-2.4804,-2.4804,-2.4877,-2.4986,-2.4998,-2.5111,-2.5274,-2.5284,-2.5303,-2.5303,-2.5303,-2.5303,-2.5303,-2.5303,-2.5303,-2.5303,-2.5303,-2.5303,-2.5303,-2.5303,-2.5303,-2.5303,-2.5303,-2.5357,-2.5364,-2.5267,-2.5367,-2.4826,-2.3023,-2.2814,-2.287,-2.2937,-2.2947,-2.2997,-2.3085,-2.3008,-2.2988,-2.3047,-2.2969,-2.2871,-2.2812,-2.2803,-2.28,-2.2792,-2.2802,-2.2468,-2.1758,-2.1738,-2.1758,-2.1758,-2.1855,-2.2305,-2.3047,-2.2988,-2.2637,-3.3944,-3.4648,-3.5332,0.0,-3.707,-3.8379,-4.0059,-4.0547,-4.0937,-4.1914,-4.2793,-4.3574,-4.4062,-4.4746,-4.5332,0.0,-4.6055,-4.5933,-4.4894,-4.313,-4.1429,-4.0024,-3.8849,-3.8373,-3.8988,-3.8584,-3.8354,-3.8527,-3.8681,-3.8373,-3.7507,-3.7142,-3.6719,-3.6219,-3.5257,-3.4391,-3.366,-3.2615,-3.1637,-3.0757,-3.0152,-2.9813,-2.9696,-2.9696,-3.0047,-3.0576,-2.9741,-2.941,-2.9421,-2.9169,-2.8185,-2.6867,-2.7132,-2.7136,-2.6818,-2.5554,-2.5409,-2.5772,-2.5263,-2.5138,-2.5173,-2.5173,-2.5224,-2.538,-2.5909,-2.5687,-2.5399,-2.5909,-2.5687,-2.5303,-2.5303,-2.5303,-2.5303,-2.5303,-2.5303,-2.5303,-2.5303,-2.5303,-2.5313,-2.5357,-2.5376,-2.5401,-2.5453,-2.5543,-2.5339,-2.4585,-2.411,-2.3814,-2.3808,-2.3839,-2.3866,-2.3867,-2.3867,-2.3652,-2.3184,-2.3184,-2.3164,-2.3105,-2.3104,-2.3104,-2.3105,-2.3104,-2.2713,-2.1914,-2.1894,-2.1894,-2.1894,-2.1894,-2.2344,-2.3184,-2.2656,-2.248,-3.5116,-3.6504,0.0,-3.8594,-4.0488,-4.2148,-4.1758,-4.2344,-4.3242,-4.4219,-4.4726,-4.5117,-4.5508,-4.5586,-4.5586,-4.5586,-4.5781,-4.5603,-4.4614,-4.2206,-4.0101,-3.8858,-3.6183,-3.5122,-3.6796,-3.6796,-3.6969,-3.7584,-3.8238,-3.8315,-3.768,-3.743,-3.7123,-3.6719,-3.5315,-3.443,-3.4199,-3.3006,-3.2173,-3.1723,-3.1111,-3.0719,-3.0579,-3.0579,-3.0852,-3.1268,-3.072,-3.0393,-3.0279,-3.0117,-2.8948,-2.7332,-2.7736,-2.764,-2.7159,-2.6063,-2.6063,-2.6486,-2.5591,-2.5303,-2.5303,-2.5303,-2.5457,-2.5793,-2.6409,-2.6332,-2.6159,-2.6774,-2.6332,-2.5649,-2.5649,-2.5476,-2.5303,-2.5303,-2.5313,-2.5321,-2.5321,-2.5348,-2.5371,-2.5427,-2.5447,-2.5463,-2.5526,-2.5573,-2.5633,-2.5633,-2.5135,-2.4745,-2.4695,-2.4724,-2.4766,-2.4766,-2.4766,-2.4492,-2.3867,-2.3867,-2.3867,-2.3828,-2.3828,-2.3828,-2.3828,-2.3828,-2.3437,-2.2617,-2.2598,-2.2598,-2.2598,-2.2598,-2.291,-2.3516,-2.2871,-2.2676,-3.6191,0.0,-4.0215,-4.1836,-4.3574,-4.5098,-4.5918,-4.6777,-4.7187,-4.6387,-4.5566,-4.4746,-4.3926,-4.3789,-4.3789,-4.3789,-4.4492,-4.4705,-4.3778,-4.1334,-3.8979,-3.7182,-3.3917,-3.2468,0.0,-3.5757,-3.6719,-3.6738,-3.6757,-3.6776,-3.6738,-3.6007,-3.593,-3.668,-3.5892,-3.5045,-3.4199,-3.4141,-3.3699,-3.284,-3.2821,-3.2801,-3.2801,-3.2801,-3.2248,-3.1306,-3.1546,-3.1021,-2.9971,-2.939,-2.9083,-2.8948,-2.8179,-2.8352,-2.8813,-2.7178,-2.6582,-2.6486,-2.5591,-2.5303,-2.5303,-2.5303,-2.587,-2.6563,-2.6601,-2.7178,-2.7832,-2.7852,-2.7236,-2.6563,-2.6563,-2.5928,-2.5303,-2.5303,-2.5346,-2.5406,-2.5406,-2.5453,-2.5484,-2.5508,-2.5551,-2.5598,-2.5601,-2.5659,-2.5703,-2.5703,-2.5684,-2.5664,-2.5664,-2.5664,-2.5664,-2.5664,-2.5664,-2.5644,-2.5625,-2.5625,-2.5625,-2.5625,-2.5625,-2.5625,-2.5625,-2.5625,-2.5215,-2.4336,-2.4316,-2.4316,-2.4316,-2.4316,-2.4336,-2.4355,-2.4336,-2.3477,-3.8906,0.0,-4.3555,-4.4707,-4.6308,-4.7656,-4.7969,-4.7793,-4.7187,-4.5742,-4.4277,-4.2851,-4.1445,-4.1172,-4.1543,-4.2656,-4.3574,-4.4023,-4.3707,-4.2271,-4.0193,-3.7316,-3.5345,0.0,0.0,0.0,0.0,-3.5834,-3.693,-3.7315,-3.6738,-3.7546,-3.7873,-3.7565,-3.7296,-3.6738,-3.5872,-3.5334,-3.4622,-3.3757,-3.3179,-3.2891,-3.2891,-3.2891,-3.3019,-3.3158,-3.2135,-3.1776,-3.1814,-3.0501,-2.9621,-2.9063,-2.8794,-2.8852,-2.8967,-2.7871,-2.7794,-2.8063,-2.6659,-2.6159,-2.6255,-2.6832,-2.7217,-2.7563,-2.8102,-2.8082,-2.789,-2.789,-2.7274,-2.6467,-2.589,-2.5542,-2.5371,-2.5371,-2.5408,-2.5477,-2.5477,-2.5473,-2.5503,-2.5558,-2.5573,-2.5607,-2.566,-2.5683,-2.5703,-2.5703,-2.5703,-2.5703,-2.5703,-2.5703,-2.5703,-2.5703,-2.5703,-2.5703,-2.5703,-2.5703,-2.5703,-2.5703,-2.5703,-2.5703,-2.5703,-2.5703,-2.5293,-2.4414,-2.4351,-2.4325,-2.4325,-2.3756,-2.3745,-2.4252,-2.3725,-2.3449,-4.2168,-4.4902,-4.7148,-4.8301,-4.9433,-5.0098,-4.9492,-4.8203,-4.6465,-4.4121,-4.2266,-4.043,-3.8418,-3.8047,-3.8594,-4.0293,-4.1055,-4.1836,-4.3066,-4.1792,-4.0162,-3.8585,-3.6925,-3.5949,0.0,0.0,0.0,-3.5468,-3.7046,-3.7757,-3.7199,-3.8238,-3.8719,-3.8469,-3.8161,-3.7738,-3.718,-3.6353,-3.5507,-3.4661,-3.4391,-3.4103,-3.3833,-3.3833,-3.3968,-3.4141,-3.3064,-3.2545,-3.2391,-3.1314,-3.0352,-2.9563,-2.9563,-2.9563,-2.9467,-2.8621,-2.8659,-2.889,-2.7544,-2.7063,-2.7159,-2.7717,-2.8082,-2.8429,-2.8929,-2.8948,-2.8794,-2.8794,-2.8182,-2.7412,-2.6853,-2.63,-2.5894,-2.5907,-2.5712,-2.5543,-2.5543,-2.5554,-2.5573,-2.5633,-2.5634,-2.5658,-2.5683,-2.5703,-2.5703,-2.5703,-2.5703,-2.5703,-2.5703,-2.5703,-2.5703,-2.5703,-2.5703,-2.5703,-2.5703,-2.5703,-2.5703,-2.5703,-2.5703,-2.5683,-2.5661,-2.5661,-2.5386,-2.4793,-2.4754,-2.4719,-2.4719,-2.4179,-2.4156,-2.4647,-2.4137,-2.4,-4.5723,-4.8379,-5.0781,-5.2363,-5.2695,-5.2207,-5.0566,-4.8066,-4.5156,-4.1816,-3.9648,-3.7559,0.0,0.0,-3.5234,-3.707,-3.7441,-3.8672,-4.2051,-4.0309,-3.9247,0.0,0.0,0.0,0.0,0.0,0.0,-3.5892,0.0,-3.8123,-3.8123,-3.8161,-3.8565,-3.9392,-3.8584,-3.8104,-3.8065,-3.7161,-3.6315,-3.5512,-3.6276,-3.6257,-3.5565,-3.5565,-3.5103,-3.4334,-3.4276,-3.3333,-3.1814,-3.1737,-3.1218,-3.0456,-3.0417,-3.0398,-3.0302,-2.9467,-2.9159,-2.9063,-2.8294,-2.8005,-2.7967,-2.8005,-2.8544,-2.9159,-2.9159,-2.9737,-3.039,-3.0352,-2.9786,-2.9198,-2.9159,-2.801,-2.6865,-2.6826,-2.6259,-2.5701,-2.5622,-2.5698,-2.5742,-2.5703,-2.5703,-2.5703,-2.5703,-2.5703,-2.5703,-2.5703,-2.5703,-2.5703,-2.5703,-2.5703,-2.5703,-2.5703,-2.5703,-2.5703,-2.5703,-2.5703,-2.5703,-2.5703,-2.5703,-2.5662,-2.5603,-2.5601,-2.5564,-2.5493,-2.5508,-2.5469,-2.543,-2.5464,-2.5464,-2.5425,-2.5459,-2.5051,-4.7695,-5.0586,-5.3125,-5.3555,-5.2695,-5.1465,-5.043,-4.668,-4.2793,-4.0664,-3.7305,-3.4336,0.0,0.0,0.0,-3.7773,-3.9355,0.0,-4.3945,-4.4124,0.0,-4.1976,0.0,-4.1123,-4.0277,-4.0585,0.0,0.0,-3.9623,-3.9854,-3.9854,-4.0489,-4.0931,-4.1162,-4.0315,-3.9565,-3.8969,-3.7469,-3.6315,-3.5493,-3.5718,-3.6007,-3.6392,-3.6392,-3.6276,-3.6026,-3.543,-3.4564,-3.3468,-3.2218,-3.1564,-3.1295,-3.0648,-3.0398,-3.0359,-3.016,-3.0083,-3.0044,-2.9833,-2.9333,-2.889,-2.9544,-2.991,-3.0083,-3.0083,-3.0257,-3.0337,-2.9699,-2.9435,-2.9201,-2.8552,-2.8111,-2.768,-2.7036,-2.7253,-2.7264,-2.5955,-2.6191,-2.6484,-2.582,-2.5703,-2.5703,-2.5703,-2.5703,-2.5703,-2.5703,-2.5703,-2.5703,-2.5703,-2.5703,-2.5703,-2.5703,-2.5703,-2.5703,-2.5703,-2.5703,-2.5703,-2.5703,-2.5703,-2.5662,-2.5603,-2.5601,-2.5564,-2.5493,-2.5459,-2.5137,-2.4542,-2.5078,-2.5037,-2.4466,-2.5076,-2.5222,-5.1035,-5.3398,-5.5234,-5.5625,-5.3828,-5.1465,-4.9492,-4.5332,-4.0957,-3.7715,-3.4824,0.0,-3.1289,0.0,0.0,0.0,0.0,0.0,-4.2851,-4.3846,-4.4128,0.0,-4.3672,0.0,-4.2797,-4.2835,-4.2681,0.0,-4.1835,-4.147,-4.1085,-4.1527,-4.1797,-4.1797,-4.095,-4.0104,-3.9296,-3.8681,-3.7777,-3.6603,-3.6988,-3.7199,-3.7257,-3.6873,-3.6699,-3.6661,-3.5853,-3.5007,-3.4103,-3.2776,-3.2237,-3.2102,-3.0891,-3.0629,-3.0929,-3.0533,-3.0398,-3.0398,-3.0398,-3.0083,-2.9756,-3.0237,-3.0417,-3.0451,-3.0451,-3.0481,-3.0436,-2.995,-2.988,-2.9858,-2.9375,-2.9037,-2.8685,-2.8196,-2.8201,-2.8027,-2.7051,-2.7226,-2.7305,-2.6445,-2.5957,-2.5703,-2.5703,-2.5703,-2.5703,-2.5703,-2.5703,-2.5703,-2.5703,-2.5703,-2.5703,-2.5703,-2.5703,-2.5703,-2.5703,-2.5703,-2.5683,-2.566,-2.5659,-2.5607,-2.5526,-2.5517,-2.5488,-2.5408,-2.5387,-2.5123,-2.4679,-2.5091,-2.5082,-2.4639,-2.5101,-2.5303,-5.457,-5.6015,-5.6777,-5.7539,-5.4941,-5.1328,-4.8008,-4.3672,-3.9023,-3.4355,0.0,-3.1426,-3.0039,-2.9863,-3.0781,-3.332,0.0,-3.6562,-4.0918,-4.1954,-4.3166,-4.5607,-4.5059,-4.4759,-4.5528,-4.4913,-4.447,-4.447,-4.372,-4.2931,-4.2181,-4.2143,-4.2027,-4.1816,-4.095,-4.0104,-3.9296,-3.9988,-3.9546,-3.8007,-3.8757,-3.8796,-3.8142,-3.7276,-3.6873,-3.6834,-3.6007,-3.518,-3.4295,-3.343,-3.3064,-3.291,-3.1352,-3.1198,-3.1756,-3.0891,-3.0629,-3.0717,-3.0625,-3.0656,-3.0733,-3.0491,-3.0442,-3.0507,-3.0516,-3.0554,-3.0617,-3.0617,-3.0665,-3.0721,-3.0721,-3.0248,-2.9746,-2.9629,-2.9101,-2.8574,-2.8359,-2.8203,-2.7891,-2.7148,-2.6309,-2.5703,-2.5703,-2.5703,-2.5703,-2.5703,-2.5703,-2.5703,-2.5703,-2.5703,-2.5703,-2.5703,-2.5683,-2.5683,-2.5683,-2.5683,-2.5658,-2.5595,-2.5595,-2.5539,-2.542,-2.5406,-2.5371,-2.5313,-2.5303,-2.5245,-2.5139,-2.5245,-2.5245,-2.5139,-2.5245,-2.5303,-5.5625,-5.6484,-5.664,-5.6797,-5.3164,-4.8848,-4.6074,-4.0469,0.0,0.0,-3.1601,-3.0176,-3.0605,-3.1269,-3.2578,-3.5137,0.0,0.0,0.0,0.0,-4.3847,0.0,0.0,0.0,0.0,0.0,0.0,0.0,-4.4586,-4.4028,-4.3874,-4.3874,-4.3239,-4.1854,-4.095,-4.0104,-3.9296,-3.9431,-3.8988,-3.8007,-3.8142,-3.8527,-3.9027,-3.8161,-3.7777,-3.7738,-3.6873,0.0,-3.5218,-3.4334,-3.3968,-3.3872,-3.2852,-3.2564,-3.2583,-3.1775,-3.191,-3.2377,-3.1777,-3.2038,-3.2397,-3.0955,-3.0481,-3.0516,-3.0561,-3.0638,-3.0684,-3.0684,-3.0767,-3.0878,-3.0878,-3.0761,-3.0488,-2.9766,-3.0039,-3.0059,-2.8613,-2.7734,-2.7187,-2.7031,-2.6309,-2.5703,-2.5703,-2.5703,-2.5703,-2.5703,-2.5703,-2.5703,-2.5703,-2.5703,-2.5703,-2.5703,-2.5658,-2.5629,-2.5629,-2.5564,-2.5535,-2.5526,-2.5526,-2.5473,-2.5394,-2.5406,-2.5371,-2.5313,-2.5303,-2.4966,-2.4322,-2.4986,-2.4966,-2.4322,-2.4986,-2.5303,-5.5898,-5.6601,-5.6484,-5.6035,-5.2031,-4.7305,-4.3828,0.0,0.0,0.0,-3.1133,-3.0391,-3.082,0.0,0.0,0.0,0.0,0.0,0.0,0.0,0.0,0.0,0.0,0.0,0.0,0.0,0.0,0.0,-4.5201,-4.4778,-4.4316,-4.347,-4.2624,-4.1835,-4.095,-4.0296,-3.9931,-3.9912,-3.97,-3.9296,-3.9296,-3.9296,-3.9258,-3.8392,-3.8007,-3.793,-3.6642,-3.6103,-3.6026,-3.4737,-3.4468,-3.4737,-3.343,-3.3179,-3.3468,-3.2622,-3.2605,-3.2946,-3.2609,-3.2768,-3.3017,-3.2227,-3.1654,-3.1207,-3.0789,-3.0713,-3.0795,-3.0795,-3.0857,-3.0996,-3.1465,-3.1582,-3.1465,-3.1055,-3.0937,-3.0664,-2.9824,-2.8965,-2.8223,-2.7754,-2.7344,-2.6758,-2.5859,-2.6074,-2.6211,-2.5762,-2.5703,-2.5683,-2.5659,-2.5658,-2.5658,-2.5658,-2.5595,-2.5551,-2.5551,-2.5526,-2.5498,-2.5459,-2.5453,-2.5408,-2.5346,-2.5357,-2.533,-2.5303,-2.5303,-2.512,-2.4736,-2.512,-2.5101,-2.4736,-2.512,-2.5303,-5.5605,-5.6465,-5.6348,-5.5293,-5.0859,-4.5683,-4.1582,-3.7148,0.0,0.0,-3.0762,-3.0898,-3.0898,0.0,-3.0176,0.0,0.0,0.0,0.0,0.0,0.0,0.0,0.0,0.0,0.0,0.0,0.0,0.0,-4.5432,-4.5009,-4.4335,-4.272,-4.1797,-4.1797,-4.095,-4.0489,-4.0489,-4.0489,-4.0412,-4.0239,-4.0412,-4.0065,-3.9258,-3.8392,-3.8104,-3.8161,-3.6315,-3.5968,-3.6584,-3.5084,-3.4872,-3.5372,-3.3987,-3.3878,-3.4398,-3.353,-3.3401,-3.3641,-3.3472,-3.3589,-3.377,-3.3646,-3.3007,-3.2124,-3.127,-3.1226,-3.1406,-3.123,-3.1309,-3.1582,-3.2285,-3.2461,-3.2402,-3.2246,-3.1523,-3.0898,-3.0898,-3.0215,-2.9394,-2.8711,-2.8437,-2.7812,-2.625,-2.6543,-2.6699,-2.582,-2.5683,-2.566,-2.5605,-2.5567,-2.5558,-2.5558,-2.5517,-2.5488,-2.5488,-2.5471,-2.5434,-2.5383,-2.5387,-2.5346,-2.5293,-2.5303,-2.5303,-2.5303,-2.5303,-2.5303,-2.5303,-2.5303,-2.5303,-2.5303,-2.5303,-2.5303,-5.4707,-5.5996,-5.6191,-5.4531,-4.9043,-4.3144,-3.9648,0.0,0.0,-2.9922,-3.0351,-3.0898,-3.0898,-3.0195,-3.0176,0.0,0.0,-3.1601,0.0,0.0,0.0,0.0,0.0,0.0,0.0,0.0,0.0,0.0,-4.4874,-4.4374,-4.4297,-4.272,-4.1797,-4.1797,-4.095,-4.0489,-4.0489,-4.0489,-4.0123,-3.9411,-4.0142,-4.0065,-3.9258,-3.8392,-3.843,-3.9027,-3.6565,-3.5968,0.0,-3.5757,-3.543,-3.5474,-3.5334,-3.5348,-3.5377,-3.4487,-3.4727,-3.5379,-3.469,-3.4983,-3.5532,-3.4802,-3.3939,-3.3046,-3.2283,-3.2578,-3.3027,-3.2285,-3.2617,-3.3184,-3.3262,-3.3281,-3.3105,-3.2363,-3.1523,-3.0898,-3.0898,-3.0215,-2.957,-2.9492,-2.8848,-2.8008,-2.7031,-2.6953,-2.6699,-2.582,-2.5658,-2.5605,-2.5601,-2.5484,-2.5415,-2.5415,-2.5401,-2.5413,-2.5408,-2.5354,-2.5322,-2.5303,-2.5303,-2.5322,-2.5303,-2.5303,-2.5303,-2.5303,-2.5303,-2.5303,-2.5303,-2.5303,-2.5303,-2.5303,-2.5303,-2.5303,-5.1523,-5.3594,-5.4492,-5.2266,-4.6914,-4.1426,-3.8496,0.0,-2.9394,-2.9551,-2.9883,-3.0117,-3.0117,-2.9414,-2.9219,-3.0449,-2.873,0.0,0.0,0.0,0.0,0.0,0.0,0.0,0.0,0.0,0.0,-4.5586,-4.4335,-4.3585,-4.3585,-4.245,-4.1797,-4.1797,-4.095,-4.0489,-4.0489,-4.0489,-4.0085,-3.9296,-3.9623,-3.9335,-3.8488,-3.7603,-3.7988,-3.9161,-3.6622,-3.6546,0.0,-3.6305,-3.5871,-3.6277,-3.5814,-3.5639,-3.5624,-3.5274,-3.5438,-3.5778,-3.549,-3.5647,-3.5914,-3.5586,-3.5234,-3.4665,-3.334,-3.3144,-3.332,-3.3008,-3.3144,-3.3516,-3.4043,-3.418,-3.4101,-3.3789,-3.3047,-3.2266,-3.1797,-3.1406,-3.0859,-2.9805,-2.9746,-2.9414,-2.8027,-2.8223,-2.8086,-2.6634,-2.639,-2.6152,-2.5561,-2.5434,-2.5383,-2.5337,-2.5339,-2.5339,-2.5348,-2.5322,-2.5303,-2.5303,-2.5303,-2.5303,-2.5303,-2.5303,-2.5303,-2.5303,-2.5303,-2.5303,-2.5303,-2.5303,-2.5303,-2.5303,-2.5303,-2.5303,-4.7637,-5.0156,-5.1543,-4.9238,-4.4512,-3.9687,0.0,0.0,-2.8398,-2.8769,-2.9043,-2.9219,-2.9219,-2.8496,-2.8203,-2.9062,-2.7246,-2.7324,-3.1992,0.0,0.0,0.0,0.0,0.0,0.0,0.0,0.0,-4.522,-4.3893,-4.2989,-4.2739,-4.1893,-4.1412,-4.1412,-4.0585,-4.0258,-4.0489,-4.0258,-3.9719,-3.8911,-3.9181,-3.8834,-3.7988,-3.7353,-3.8027,-3.9542,-3.7275,-3.7301,0.0,-3.6811,-3.6212,-3.6484,-3.5908,-3.5723,-3.5761,-3.5761,-3.5821,-3.594,-3.594,-3.5951,-3.5996,-3.5996,-3.5996,-3.5762,-3.4531,-3.418,-3.4121,-3.3867,-3.3965,-3.4316,-3.4922,-3.4883,-3.4707,-3.4707,-3.4023,-3.3242,-3.2676,-3.2363,-3.1836,-3.0605,-3.0664,-3.043,-2.8904,-2.9158,-2.9036,-2.7482,-2.7016,-2.6588,-2.5873,-2.5538,-2.5354,-2.5313,-2.5303,-2.5303,-2.5303,-2.5303,-2.5303,-2.5303,-2.5303,-2.5303,-2.5303,-2.5303,-2.5303,-2.5303,-2.5303,-2.5303,-2.5303,-2.5303,-2.5303,-2.5303,-2.5303,-2.5303,-4.3301,-4.5683,-4.7246,-4.5488,-4.1816,-3.7715,0.0,-3.0762,-2.8066,-2.7207,-2.7715,-2.8301,-2.8301,-2.7598,-2.7305,-2.8164,-2.6836,0.0,-3.043,0.0,0.0,0.0,0.0,0.0,0.0,0.0,0.0,-4.4316,-4.3566,0.0,-4.1873,-4.0989,-4.0508,-4.0508,-3.9719,-3.9681,-4.0489,-3.97,-3.8873,-3.8027,-3.8892,-3.8834,-3.8007,-3.7988,-3.8892,-4.0389,-3.8844,-3.8147,0.0,-3.73,-3.6489,-3.5703,-3.5703,-3.5772,-3.59,-3.59,-3.5945,-3.5996,-3.5996,-3.5996,-3.5996,-3.5996,-3.5996,-3.5996,-3.5976,-3.5976,-3.5781,-3.4922,-3.5312,-3.5976,-3.5976,-3.5351,-3.4707,-3.4707,-3.4023,-3.3398,-3.3398,-3.2754,-3.2187,-3.2187,-3.1484,-3.0604,-2.9645,-2.9503,-2.9175,-2.8226,-2.7297,-2.6695,-2.6695,-2.5888,-2.5303,-2.5303,-2.5303,-2.5303,-2.5303,-2.5303,-2.5303,-2.5303,-2.5303,-2.5303,-2.5303,-2.5303,-2.5303,-2.5303,-2.5303,-2.5303,-2.5303,-2.5303,-2.5303,-2.5303,-2.5303,-2.5303,-3.8867,-4.0351,-4.1172,-4.0019,-3.6953,-3.3789,-3.207,-2.9004,-2.6602,-2.6934,-2.7226,-2.7402,-2.7402,-2.7187,-2.7285,-2.8164,-2.7344,-2.7598,0.0,0.0,0.0,0.0,0.0,0.0,0.0,0.0,-4.347,-4.347,-4.2701,-4.1835,-4.095,-4.0642,-4.0239,-3.97,-3.8854,-3.8527,-3.8796,-3.9123,-3.8565,-3.7123,-3.8007,-3.8277,-3.7988,-3.7392,-3.8406,-4.0514,-3.828,-3.8006,-3.8974,-3.7038,-3.6402,-3.6616,-3.6108,-3.5929,-3.5973,-3.5973,-3.5975,-3.5996,-3.5996,-3.5996,-3.5996,-3.5996,-3.5996,-3.5996,-3.5996,-3.5996,-3.5937,-3.5664,-3.5781,-3.5996,-3.5996,-3.5801,-3.5586,-3.5586,-3.5371,-3.5019,-3.4414,-3.4082,-3.3535,-3.2295,-3.1843,-3.1346,-3.0414,-3.0249,-2.993,-2.8992,-2.8598,-2.7976,-2.6786,-2.6371,-2.6197,-2.6197,-2.5649,-2.5303,-2.5303,-2.5303,-2.5303,-2.5303,-2.5303,-2.5572,-2.6159,-2.561,-2.5572,-2.6178,-2.5591,-2.5303,-2.5303,-2.5303,-2.5224,-2.5099,-2.5099,-2.5061,0.0,-3.5527,-3.6055,-3.5508,-3.3535,0.0,0.0,-2.7988,-2.625,-2.6465,-2.6777,-2.6992,-2.6992,-2.7266,-2.7559,-2.7773,-2.7344,-2.7578,0.0,0.0,0.0,0.0,0.0,0.0,0.0,-4.2893,-4.2604,-4.2604,-4.1797,-4.0931,-4.0085,-3.9738,-3.9181,-3.8354,-3.8104,-3.8007,-3.8007,-3.8546,-3.8104,-3.6719,-3.7911,-3.8339,-3.8061,-3.7488,-3.8516,-4.0625,-3.8421,-3.8109,0.0,-3.7175,-3.6723,-3.7094,-3.6307,-3.6191,-3.6445,-3.6113,-3.5996,-3.5996,-3.5996,-3.5996,-3.5996,-3.5996,-3.5996,-3.5996,-3.5996,-3.5996,-3.5996,-3.5996,-3.5996,-3.5996,-3.5996,-3.5996,-3.5996,-3.5996,-3.5996,-3.584,-3.5289,-3.4897,-3.4324,-3.3173,-3.2673,-3.2245,-3.1617,-3.1254,-3.0855,-3.0231,-2.9583,-2.8763,-2.767,-2.7274,-2.6967,-2.664,-2.6409,-2.6159,-2.5832,-2.5495,-2.5303,-2.5303,-2.561,-2.6043,-2.6582,-2.639,-2.6544,-2.7082,-2.6563,-2.6274,-2.6274,-2.5947,-2.5734,-2.5589,-2.5187,-2.5139,0.0,0.0,0.0,0.0,0.0,0.0,0.0,-2.748,0.0,-2.5957,-2.6445,-2.7012,-2.707,-2.7695,-2.7988,-2.7305,-2.7187,0.0,0.0,0.0,0.0,0.0,0.0,0.0,0.0,-4.172,-4.172,-4.172,-4.0893,-4.0046,-3.9238,-3.843,-3.7565,-3.6642,-3.7469,-3.7873,-3.7815,-3.7873,-3.7469,-3.6636,-3.833,-3.8794,-3.8199,-3.807,-3.8996,0.0,-3.9014,-3.8319,-3.8268,-3.7516,-3.7207,-3.7129,-3.6328,-3.6484,-3.7109,-3.6309,-3.5996,-3.5996,-3.5996,-3.5996,-3.5996,-3.5996,-3.5996,-3.5996,-3.5996,-3.5996,-3.5996,-3.5996,-3.5996,-3.5996,-3.5996,-3.5996,-3.5996,-3.5996,-3.5996,-3.5974,-3.5907,-3.5252,-3.4651,-3.4517,-3.3835,-3.3215,-3.3026,-3.2339,-3.1777,-3.1723,-3.0275,-2.9159,-2.9102,-2.8448,-2.7678,-2.6851,-2.7448,-2.7601,-2.6832,-2.5928,-2.5418,-2.5476,-2.6168,-2.6619,-2.6754,-2.7465,-2.7876,-2.7934,-2.7876,-2.7838,-2.7838,-2.705,-2.6608,-2.6532,-2.5523,-2.5482,-2.6934,0.0,-2.7226,-2.7226,-2.707,-2.6816,0.0,-2.6152,-2.6133,0.0,0.0,0.0,-2.7871,-2.7617,-2.7676,-2.8809,-2.8984,-2.9453,0.0,0.0,0.0,0.0,0.0,0.0,0.0,-4.0796,-4.0796,-4.0796,-4.0046,-3.92,-3.8354,-3.8104,-3.7315,-3.5834,-3.6584,-3.6719,-3.6103,-3.6699,-3.6633,-3.5867,-3.6864,-3.766,-3.826,-3.7521,-3.8197,-3.9862,-3.8155,-3.7458,-3.7498,-3.664,-3.6309,-3.6289,-3.6074,-3.6133,-3.6289,-3.6074,-3.5996,-3.5996,-3.5996,-3.5996,-3.5996,-3.5996,-3.5996,-3.5996,-3.5996,-3.5996,-3.5996,-3.5996,-3.5996,-3.5996,-3.5996,-3.5996,-3.5995,-3.5942,-3.5916,-3.5887,-3.5772,-3.5599,-3.5224,-3.4495,-3.4177,-3.381,-3.3053,-3.2247,-3.1715,-3.1698,-3.0775,-2.9852,-2.9179,-2.8929,-2.8736,-2.8525,-2.814,-2.8063,-2.8467,-2.7159,-2.6582,-2.7255,-2.6653,-2.6886,-2.8236,-2.7685,-2.7653,-2.8275,-2.7672,-2.7369,-2.7369,-2.7161,-2.6744,-2.6119,-2.5716,-2.5656,-2.5742,-2.5659,-2.5703,-2.5703,-2.5703,-2.5703,-2.5703,0.0,0.0,0.0,0.0,0.0,0.0,0.0,0.0,0.0,-2.9609,0.0,0.0,0.0,0.0,0.0,0.0,0.0,0.0,-4.0992,-4.0335,-3.9969,-3.9546,-3.8738,-3.7469,-3.7411,-3.6815,-3.5532,-3.593,-3.5949,-3.5493,-3.6315,-3.6318,-3.5611,-3.6779,-3.7501,-3.7784,-3.7247,-3.7804,-3.911,-3.735,-3.685,-3.7226,-3.6367,-3.623,-3.6562,-3.6152,-3.623,-3.6543,-3.6152,-3.5996,-3.5996,-3.5996,-3.5996,-3.5996,-3.5996,-3.5996,-3.5996,-3.5996,-3.5996,-3.5996,-3.5996,-3.6248,-3.6417,-3.6046,-3.6213,-3.6348,-3.5909,-3.5807,-3.5786,-3.5679,-3.5655,-3.5484,-3.4955,-3.4844,-3.4685,-3.4173,-3.3391,-3.2852,-3.2852,-3.1795,-3.0833,-3.0352,-2.985,-2.9404,-2.914,-2.8894,-2.879,-2.8945,-2.8007,-2.7517,-2.7699,-2.7056,-2.7247,-2.8552,-2.8426,-2.8548,-2.8998,-2.8567,-2.8341,-2.8341,-2.7945,-2.753,-2.7097,-2.6521,-2.6451,-2.5493,-2.5573,-2.5662,-2.5683,-2.5683,-2.5683,0.0,0.0,0.0,0.0,0.0,0.0,0.0,0.0,0.0,0.0,0.0,0.0,0.0,0.0,0.0,0.0,0.0,0.0,-4.2516,-4.1349,-4.0188,-3.9354,-3.9191,-3.8421,-3.6796,-3.6584,-3.6199,-3.5512,-3.5515,-3.5528,-3.5528,-3.6202,-3.6233,-3.5669,-3.7055,-3.7541,-3.7201,-3.7015,-3.7463,-3.8301,-3.6699,0.0,-3.7031,-3.6309,-3.6445,-3.7031,-3.6289,-3.6445,-3.7012,-3.6269,-3.5996,-3.5996,-3.5996,-3.5996,-3.5996,-3.5996,-3.5996,-3.5996,-3.5996,-3.5976,-3.5975,-3.5955,-3.6428,-3.6754,-3.6048,-3.6337,-3.6611,-3.5864,-3.5682,-3.5671,-3.5611,-3.5579,-3.5574,-3.5515,-3.5493,-3.5493,-3.5493,-3.4776,-3.4199,-3.4199,-3.2846,-3.1834,-3.1834,-3.0849,-2.9937,-2.943,-2.9566,-2.9498,-2.8984,-2.8572,-2.8185,-2.7808,-2.75,-2.7687,-2.8461,-2.9194,-2.9588,-2.9588,-2.9588,-2.9588,-2.9588,-2.8856,-2.8424,-2.8327,-2.7457,-2.7417,-2.5493,-2.5526,-2.5547,-2.5603,-2.5627,-2.5633,0.0,0.0,0.0,0.0,0.0,0.0,0.0,0.0,0.0,0.0,0.0,0.0,0.0,0.0,0.0,0.0,0.0,-4.2071,-4.0173,-4.0389,-4.0295,-3.9369,-3.8717,-3.7873,-3.6757,-3.6065,-3.5641,-3.5493,-3.557,-3.5579,-3.5579,-3.5715,-3.5793,-3.5856,-3.6009,-3.6489,-3.7265,-3.6445,-3.6606,-3.7441,0.0,-3.6074,-3.6191,-3.6055,-3.6074,-3.6191,-3.6055,-3.6074,-3.6172,-3.6055,-3.5996,-3.5996,-3.5996,-3.5996,-3.5996,-3.5996,-3.5996,-3.5996,-3.5921,-3.5913,-3.5884,-3.5777,-3.5914,-3.6029,-3.578,-3.5814,-3.5857,-3.5669,-3.5621,-3.56,-3.5528,-3.5528,-3.5515,-3.5507,-3.5493,-3.5493,-3.5493,-3.4776,-3.4199,-3.4199,-3.3159,-3.239,-3.239,-3.1436,-3.073,-3.0633,-3.0071,-2.9657,-2.9559,-2.8688,-2.8428,-2.9063,-2.839,-2.8253,-2.8894,-2.9038,-2.9115,-2.9115,-2.9115,-2.9115,-2.9115,-2.8964,-2.8651,-2.8146,-2.7814,-2.7811,-2.5391,-2.5391,-2.5427,-2.5526,-2.5567,-2.5629,-2.5683,0.0,0.0,0.0,0.0,0.0,0.0,0.0,0.0,0.0,0.0,0.0,0.0,0.0,-4.1104,0.0,0.0,-4.0984,-4.033,-4.0177,-3.9539,-3.8158,-3.7744,-3.7142,-3.6212,-3.5814,-3.5601,-3.5601,-3.5648,-3.5679,-3.5749,-3.5749,-3.5805,-3.5903,-3.5841,-3.6082,-3.6582,-3.6149,-3.6188,-3.6582,-3.6172,-3.5996,-3.5996,-3.5996,-3.5996,-3.5996,-3.5996,-3.5996,-3.5996,-3.5996,-3.5996,-3.5996,-3.5996,-3.5996,-3.5996,-3.595,-3.5947,-3.6018,-3.6377,-3.6162,-3.5878,-3.6234,-3.672,-3.688,-3.5907,-3.628,-3.6709,-3.577,-3.5546,-3.554,-3.552,-3.5493,-3.5493,-3.5493,-3.5493,-3.5493,-3.5493,-3.5057,-3.4695,-3.4695,-3.372,-3.2976,-3.2976,-3.2052,-3.1427,-3.1544,-3.0597,-3.0048,-3.0169,-2.9202,-2.8572,-2.8535,-2.8569,-2.8706,-2.8998,-2.8994,-2.8994,-2.8994,-2.8994,-2.8994,-2.8994,-2.8994,-2.886,-2.8587,-2.8493,-2.8515,-2.5303,-2.5313,-2.5346,-2.5477,0.0,-2.5718,-2.619,0.0,0.0,0.0,0.0,0.0,0.0,0.0,0.0,0.0,0.0,-3.8809,-4.0273,-4.0404,-4.0771,-4.1972,-4.082,-4.0051,-4.0368,-3.9739,-3.8675,-3.7109,-3.7033,-3.6573,-3.547,-3.5412,-3.5334,-3.512,-3.5334,-3.5485,-3.5588,-3.5815,-3.5916,-3.5916,-3.5916,-3.5948,-3.5996,-3.5996,-3.5996,-3.5996,-3.5996,-3.5996,-3.5996,-3.5996,-3.5996,-3.5996,-3.5996,-3.5996,-3.5996,-3.5996,-3.5996,-3.5996,-3.5975,-3.5974,-3.5953,-3.588,-3.5845,-3.5987,-3.6759,-3.6367,-3.5846,-3.6626,-3.7298,-3.7433,-3.5963,-3.6485,-3.7084,-3.5815,-3.5493,-3.5493,-3.5493,-3.5493,-3.5493,-3.5493,-3.5493,-3.5493,-3.5417,-3.5223,-3.5088,-3.5035,-3.4206,-3.3592,-3.3592,-3.2642,-3.205,-3.2189,-3.1191,-3.0488,-3.0513,-2.9738,-2.9017,-2.8393,-2.9127,-2.9494,-2.9287,-2.9292,-2.9292,-2.9292,-2.9085,-2.8994,-2.8994,-2.8994,-2.8994,-2.8994,-2.92,-2.9177,-2.5303,-2.5357,-2.5408,-2.5473,0.0,0.0,-2.7713,-2.873,0.0,0.0,0.0,0.0,0.0,0.0,0.0,0.0,0.0,0.0,-4.1758,0.0,-4.1972,-4.1367,-4.1058,-4.029,-3.8748,-3.853,-3.8073,-3.7078,-3.7113,-3.6421,-3.4672,-3.4588,-3.4218,-3.3414,-3.4228,-3.4686,-3.469,-3.5561,-3.5996,-3.5996,-3.5996,-3.5996,-3.5996,-3.5996,-3.5996,-3.5996,-3.5996,-3.5996,-3.5996,-3.5996,-3.5996,-3.5996,-3.5996,-3.5996,-3.5996,-3.5996,-3.5996,-3.5996,-3.5938,-3.5907,-3.59,-3.5761,-3.5717,-3.5852,-3.6668,-3.6299,-3.5764,-3.6517,-3.6752,-3.6598,-3.5732,-3.5584,-3.5661,-3.5532,-3.5493,-3.5493,-3.5493,-3.5493,-3.5493,-3.5493,-3.5493,-3.5432,-3.5174,-3.5105,-3.5035,-3.4773,-3.4389,-3.4149,-3.4149,-3.3192,-3.2548,-3.2555,-3.1813,-3.1023,-3.0289,-3.0155,-3.0099,-3.0026,-3.0779,-3.0889,-3.0136,-3.0118,-3.0118,-3.0118,-2.936,-2.8994,-2.8994,-2.8994,-2.8994,-2.9012,-2.9769,-2.9714,-2.5303,-2.5322,-2.5371,-2.5463,0.0,0.0,0.0,0.0,0.0,0.0,0.0,0.0,0.0,0.0,0.0,0.0,0.0,-3.875,-4.0586,-4.1308,-4.1348,-4.0488,-3.9861,-3.9037,-3.7826,-3.7729,-3.7335,-3.6443,-3.5927,-3.5343,-3.4669,-3.41,-3.3905,-3.412,-3.4482,-3.4916,-3.5463,-3.5819,-3.5996,-3.5996,-3.5996,-3.5996,-3.5996,-3.5996,-3.5996,-3.5996,-3.5996,-3.5996,-3.5996,-3.5996,-3.5996,-3.5996,-3.5996,-3.5996,-3.5996,-3.5948,-3.5942,-3.5918,-3.5812,-3.5791,-3.5755,-3.5663,-3.5648,-3.5776,-3.6535,-3.6196,-3.5817,-3.7137,-3.6757,-3.6007,-3.6199,-3.6257,-3.6257,-3.6257,-3.5872,-3.5493,-3.5493,-3.5493,-3.5446,-3.5289,-3.5239,-3.5174,-3.4908,-3.4695,-3.451,-3.4401,-3.4141,-3.3961,-3.3961,-3.3592,-3.3348,-3.3348,-3.2632,-3.1825,-3.0999,-3.1403,-3.1476,-3.098,-3.1219,-3.1256,-3.0962,-3.0944,-3.0705,-3.021,-2.9898,-2.9751,-2.9751,-2.9751,-3.0008,-3.0503,-3.0797,-3.0522,-2.5226,-2.5129,-2.5045,0.0,0.0,0.0,0.0,0.0,0.0,0.0,0.0,0.0,0.0,0.0,0.0,0.0,-3.5859,-3.8184,-3.9336,-4.0,-4.0059,-3.918,-3.8301,-3.7441,-3.6562,-3.623,-3.582,-3.5215,-3.4629,-3.418,-3.3926,-3.3359,-3.3164,-3.3496,-3.3769,-3.4199,-3.4785,-3.5332,-3.5586,-3.5586,-3.5586,-3.5723,-3.5996,-3.5996,-3.5996,-3.5996,-3.5996,-3.5996,-3.5996,-3.5996,-3.5996,-3.5996,-3.5974,-3.5973,-3.5951,-3.5877,-3.5841,-3.5831,-3.5709,-3.5679,-3.5663,-3.559,-3.5574,-3.5717,-3.6458,-3.6334,-3.6122,-3.7276,-3.6757,-3.6007,-3.6565,-3.6699,-3.6699,-3.6699,-3.6276,-3.5892,-3.5892,-3.5605,-3.532,-3.5138,-3.5016,-3.487,-3.4593,-3.4357,-3.4171,-3.4093,-3.3928,-3.3807,-3.3807,-3.3807,-3.3807,-3.3807,-3.3091,-3.2394,-3.1825,-3.2284,-3.2375,-3.1806,-3.2008,-3.2045,-3.1788,-3.177,-3.1513,-3.098,-3.0705,-3.0577,-3.0577,-3.0577,-3.0852,-3.1403,-3.1659,-3.1219,-2.5082,-2.4767,0.0,0.0,0.0,0.0,0.0,0.0,0.0,0.0,0.0,0.0,0.0,0.0,0.0,-3.2988,-3.4863,-3.6582,-3.832,-3.8555,-3.8242,-3.7363,-3.6504,-3.5644,-3.4766,-3.3906,-3.3398,-3.3398,-3.3398,-3.3047,-3.2246,-3.2187,-3.1797,-3.0937,-3.1758,-3.2207,-3.2207,-3.3867,-3.4687,-3.4687,-3.4687,-3.5156,-3.5996,-3.5996,-3.5996,-3.5996,-3.5996,-3.5996,-3.5996,-3.5996,-3.5996,-3.5996,-3.5938,-3.5903,-3.5877,-3.5755,-3.5703,-3.5689,-3.5611,-3.5611,-3.5579,-3.5522,-3.5493,-3.5661,-3.6449,-3.6699,-3.6699,-3.6699,-3.6699,-3.6699,-3.6699,-3.6699,-3.6704,-3.6719,-3.6699,-3.6685,-3.6685,-3.5844,-3.5105,-3.5088,-3.4889,-3.4572,-3.4246,-3.42,-3.4099,-3.3842,-3.3807,-3.3807,-3.3807,-3.3807,-3.3807,-3.3807,-3.3091,-3.2614,-3.2614,-3.2614,-3.2614,-3.2614,-3.3366,-3.344,-3.2651,-3.2614,-3.2614,-3.2614,-3.1825,-3.1403,-3.1403,-3.1403,-3.1403,-3.1439,-3.2247,-3.1751,-2.5245,0.0,0.0,0.0,0.0,0.0,0.0,0.0,0.0,0.0,0.0,0.0,0.0,0.0,0.0,-3.3281,-3.4355,-3.5273,-3.5781,-3.5859,-3.5527,-3.4668,-3.4336,-3.4062,-3.3809,-3.3555,-3.3398,-3.3398,-3.2871,-3.2441,-3.2207,-3.1621,-3.1445,-3.1797,-3.207,-3.2461,-3.3047,-3.3535,-3.3789,-3.3789,-3.3789,-3.4551,-3.5976,-3.5371,-3.543,-3.5996,-3.5996,-3.5996,-3.5996,-3.5996,-3.5973,-3.5938,-3.5907,-3.5841,-3.5749,-3.5655,-3.563,-3.5611,-3.5538,-3.5528,-3.5534,-3.552,-3.5493,-3.5532,-3.5795,-3.5872,-3.5968,-3.6546,-3.6295,-3.5988,-3.6565,-3.6983,-3.7321,-3.7574,-3.6999,-3.6408,-3.6408,-3.5587,-3.4754,-3.4513,-3.4383,-3.4265,-3.3961,-3.3928,-3.3876,-3.3815,-3.3807,-3.3807,-3.3807,-3.3807,-3.3807,-3.3807,-3.3587,-3.344,-3.344,-3.344,-3.344,-3.344,-3.3678,-3.3697,-3.3458,-3.344,-3.3183,-3.2614,-3.2375,-3.2247,-3.2247,-3.2247,-3.254,-3.3091,-3.333,-3.2889,-2.4812,0.0,0.0,0.0,0.0,0.0,0.0,0.0,0.0,0.0,0.0,0.0,0.0,-3.2851,0.0,-3.2871,-3.3633,-3.418,-3.418,-3.418,-3.3984,-3.3457,-3.3125,-3.293,-3.293,-3.2617,-3.2402,-3.2402,-3.1953,-3.168,-3.168,-3.1191,-3.1133,-3.168,-3.168,-3.1914,-3.2402,-3.2754,-3.293,-3.293,-3.293,-3.3633,-3.4941,-3.4414,-3.4473,-3.498,-3.5332,-3.5684,-3.5996,-3.5973,-3.5942,-3.59,-3.5811,-3.5735,-3.5646,-3.5579,-3.5562,-3.555,-3.5515,-3.5493,-3.5493,-3.5493,-3.5493,-3.5493,-3.5493,-3.5718,-3.6007,-3.618,-3.6027,-3.5871,-3.6025,-3.6455,-3.6938,-3.7242,-3.6951,-3.654,-3.6217,-3.5282,-3.4423,-3.4223,-3.4123,-3.4079,-3.4238,-3.4009,-3.3917,-3.4229,-3.4009,-3.3807,-3.3807,-3.3807,-3.3807,-3.3807,-3.3807,-3.3807,-3.3807,-3.3807,-3.3807,-3.3807,-3.3652,-3.355,-3.355,-3.3707,-3.3568,-3.3091,-3.2939,-3.2839,-3.2839,-3.2839,-3.3095,-3.355,-3.355,-3.3214,-2.4187,0.0,0.0,0.0,0.0,0.0,0.0,0.0,0.0,0.0,0.0,0.0,0.0,-3.2148,-3.1387,-3.2187,-3.2851,-3.3281,-3.3281,-3.3223,-3.3144,-3.3066,-3.2402,-3.1934,-3.1855,-3.1133,-3.0664,-3.0664,-3.0664,-3.0664,-3.0664,-3.0664,-3.0664,-3.0664,-3.0742,-3.0781,-3.0781,-3.1641,-3.207,-3.207,-3.207,-3.2461,-3.3164,-3.3242,-3.332,-3.3457,-3.4316,-3.5156,-3.5878,-3.5899,-3.5896,-3.586,-3.5676,-3.56,-3.5568,-3.5522,-3.5493,-3.5493,-3.5493,-3.5493,-3.5493,-3.5493,-3.5493,-3.5493,-3.5493,-3.5993,-3.6402,-3.5671,-3.579,-3.6002,-3.5242,-3.5477,-3.5886,-3.6064,-3.6557,-3.6748,-3.6033,-3.4963,-3.4152,-3.4152,-3.3961,-3.4064,-3.4844,-3.4339,-3.4045,-3.477,-3.4412,-3.399,-3.3917,-3.3972,-3.3963,-3.3863,-3.3844,-3.3826,-3.368,-3.3662,-3.3662,-3.3662,-3.3332,-3.3154,-3.3154,-3.3494,-3.3662,-3.3662,-3.3332,-3.3154,-3.3154,-3.3154,-3.3154,-3.3154,-3.3154,-3.2951,0.0,0.0,0.0,0.0,0.0,0.0,0.0,0.0,0.0,0.0,0.0,0.0,-3.3283,-3.3063,-3.293,-3.3105,-3.2754,-3.2461,-3.2461,-3.1875,-3.1172,-3.0508,-3.0254,-2.9883,-2.9219,-2.8965,-2.8867,-2.8867,-2.8867,-2.8867,-2.8867,-2.8867,-2.8867,-2.8867,-2.9512,-2.9883,-2.9883,-3.0742,-3.1172,-3.1172,-3.1172,-3.1269,-3.1465,-3.2148,-3.2793,-3.3457,-3.4316,-3.4782,-3.4956,-3.5614,-3.5805,-3.5668,-3.5611,-3.5574,-3.5509,-3.552,-3.5493,-3.5493,-3.5493,-3.5493,-3.5493,-3.5493,-3.5493,-3.5493,-3.5493,-3.5469,-3.54,-3.5229,-3.5132,-3.4982,-3.4831,-3.5171,-3.5418,-3.4795,-3.5259,-3.5797,-3.561,-3.4693,-3.3876,-3.3876,-3.3842,-3.4064,-3.4844,-3.4339,-3.3862,-3.4027,-3.5037,-3.5514,-3.4835,-3.5349,-3.5381,-3.4395,-3.4274,-3.3851,-3.2862,-3.2777,-3.2777,-3.2777,-3.2713,-3.2648,-3.2648,-3.2745,-3.2777,-3.2777,-3.2681,-3.2648,-3.2648,-3.2648,-3.2648,-3.2648,-3.2648,-3.2592,0.0,0.0,0.0,0.0,0.0,0.0,0.0,0.0,0.0,0.0,0.0,0.0,-3.261,-3.2026,-3.1537,-3.1537,-3.0858,-3.0332,-3.0332,-2.9941,-2.9492,-2.9023,-2.8984,-2.8809,-2.834,-2.8301,-2.8301,-2.8301,-2.8301,-2.8301,-2.8301,-2.8301,-2.8301,-2.8301,-2.873,-2.8984,-2.8984,-2.9434,-2.9668,-2.9668,-3.0056,-3.0417,-3.0774,-3.1325,-3.1991,-3.2767,-3.3216,-3.3844,-3.4574,-3.497,-3.5321,-3.56,-3.5574,-3.5528,-3.5493,-3.5493,-3.5493,-3.5493,-3.5493,-3.5493,-3.5479,-3.5354,-3.5304,-3.5289,-3.5174,-3.5016,-3.4908,-3.4908,-3.4695,-3.4445,-3.4445,-3.4554,-3.4574,-3.4104,-3.4648,-3.5147,-3.4784,-3.4223,-3.3807,-3.3807,-3.3807,-3.4192,-3.5422,-3.5587,-3.5293,-3.4504,-3.5477,-3.6138,-3.5679,-3.5798,-3.5641,-3.502,-3.4383,-3.3743,-3.3101,-3.2696,-3.2484,-3.2484,-3.2282,-3.2161,-3.2161,-3.1986,-3.2092,-3.2484,-3.2282,-3.2161,-3.2161,-3.2161,-3.2161,-3.2161,-3.2161,-3.2282,0.0,0.0,0.0,0.0,0.0,0.0,0.0,0.0,0.0,0.0,0.0,0.0,-3.1456,-3.0355,-2.9435,-2.9279,-2.8697,-2.8279,-2.8279,-2.8279,-2.8201,-2.8066,-2.8066,-2.8007,-2.7851,-2.7851,-2.7851,-2.7851,-2.7851,-2.7851,-2.7851,-2.7851,-2.7851,-2.7851,-2.8008,-2.8086,-2.8086,-2.8203,-2.8281,-2.8281,-2.9101,-2.9877,-3.0606,-3.078,-3.1179,-3.178,-3.2072,-3.2976,-3.4243,-3.4283,-3.4807,-3.5557,-3.5368,-3.5372,-3.5493,-3.5493,-3.5493,-3.5493,-3.5493,-3.5479,-3.5383,-3.5174,-3.507,-3.4981,-3.4773,-3.4653,-3.4593,-3.4593,-3.4379,-3.4123,-3.4123,-3.3961,-3.3807,-3.3807,-3.4321,-3.4605,-3.3935,-3.3807,-3.3807,-3.3807,-3.3917,-3.4394,-3.5642,-3.6762,-3.6872,-3.4989,-3.5666,-3.6296,-3.609,-3.577,-3.5511,-3.5319,-3.4321,-3.3583,-3.3213,-3.2651,-3.2282,-3.2282,-3.1897,-3.1696,-3.1696,-3.1389,-3.1524,-3.2248,-3.1897,-3.1696,-3.1696,-3.1696,-3.1696,-3.1696,-3.1696,-3.1897,0.0,0.0,0.0,0.0,0.0,0.0,0.0,0.0,0.0,0.0,0.0,-3.0449,-2.9691,-2.9486,-2.9168,-2.8418,-2.8193,-2.8139,-2.8139,-2.8139,-2.7881,-2.7169,-2.7093,-2.6807,-2.6113,-2.6055,-2.6055,-2.6055,-2.6055,-2.6055,-2.6055,-2.6055,-2.6055,-2.6055,-2.6777,-2.7168,-2.7168,-2.7864,-2.8207,-2.8225,-2.9039,-2.9839,-3.0606,-3.0623,-3.0686,-3.0876,-3.2375,-3.3101,-3.3258,-3.4003,-3.4781,-3.5438,-3.4674,-3.4834,-3.5493,-3.5493,-3.5493,-3.5493,-3.5493,-3.5354,-3.5157,-3.5105,-3.4944,-3.4753,-3.4714,-3.4508,-3.4288,-3.4288,-3.4068,-3.3868,-3.3868,-3.3815,-3.3807,-3.3807,-3.388,-3.3935,-3.3825,-3.3807,-3.3807,-3.3807,-3.4376,-3.4679,-3.4229,-3.6009,-3.6582,-3.3839,-3.5331,-3.6324,-3.5134,-3.5545,-3.5526,-3.4466,-3.4196,-3.3433,-3.1684,-3.1419,-3.1351,-3.1351,-3.1329,-3.1291,-3.1291,-3.123,-3.1252,-3.1351,-3.1329,-3.1291,-3.1291,-3.1291,-3.1291,-3.1291,-3.1291,-3.1329,0.0,0.0,0.0,0.0,0.0,0.0,0.0,0.0,0.0,0.0,0.0,-2.8927,-2.8541,-2.8155,-2.7757,-2.7375,-2.6932,-2.6646,-2.6646,-2.6646,-2.65,-2.6151,-2.6116,-2.5987,-2.5612,-2.5595,-2.5595,-2.5595,-2.5595,-2.5595,-2.5595,-2.5595,-2.5595,-2.5595,-2.5966,-2.6161,-2.6161,-2.6516,-2.6918,-2.7365,-2.8204,-2.9028,-2.9784,-3.0259,-3.0507,-3.0591,-3.1348,-3.1902,-3.2331,-3.3172,-3.3723,-3.4103,-3.4699,-3.4853,-3.4834,-3.5334,-3.5398,-3.5273,-3.5273,-3.5105,-3.4832,-3.4656,-3.451,-3.4379,-3.4237,-3.4087,-3.3986,-3.3986,-3.3876,-3.3807,-3.3807,-3.3807,-3.3807,-3.3807,-3.3807,-3.3807,-3.3807,-3.3807,-3.3807,-3.3807,-3.4468,-3.4659,-3.3621,-3.5132,-3.5774,-3.3781,-3.4786,-3.5523,-3.4942,-3.4939,-3.4801,-3.4276,-3.3549,-3.2775,-3.189,-3.1427,-3.119,-3.119,-3.119,-3.119,-3.119,-3.119,-3.119,-3.119,-3.119,-3.119,-3.119,-3.119,-3.119,-3.119,-3.119,-3.119,0.0,0.0,0.0,0.0,0.0,0.0,0.0,0.0,0.0,0.0,-2.7152,-2.7155,-2.7155,-2.6911,-2.6597,-2.6384,-2.5834,-2.5453,-2.5453,-2.5453,-2.5459,-2.5463,-2.5463,-2.5473,-2.5508,-2.5493,-2.5493,-2.5493,-2.5493,-2.5493,-2.5493,-2.5493,-2.5493,-2.5493,-2.5493,-2.5493,-2.5493,-2.5473,-2.5887,-2.6674,-2.7331,-2.8058,-2.8813,-2.9679,-3.01,-3.0163,-3.0608,-3.1146,-3.1756,-3.2352,-3.2718,-3.3026,-3.4334,-3.4584,-3.4295,-3.5105,-3.5273,-3.5088,-3.5016,-3.4813,-3.4529,-3.4288,-3.4152,-3.4068,-3.385,-3.3807,-3.3807,-3.3807,-3.3807,-3.3807,-3.3807,-3.3807,-3.3762,-3.368,-3.3652,-3.368,-3.378,-3.3807,-3.3762,-3.368,-3.4128,-3.4233,-3.3214,-3.4195,-3.4676,-3.3405,-3.3917,-3.4411,-3.4268,-3.3932,-3.3714,-3.3714,-3.2878,-3.2205,-3.2019,-3.1512,-3.119,-3.119,-3.119,-3.119,-3.119,-3.119,-3.119,-3.119,-3.119,-3.119,-3.119,-3.119,-3.1292,-3.1461,-3.1275,-3.1292,0.0,0.0,0.0,0.0,0.0,0.0,0.0,0.0,0.0,0.0,-2.5063,-2.5156,-2.5156,-2.594,-2.6342,-2.5505,-2.5341,-2.5303,-2.5303,-2.5303,-2.533,-2.5406,-2.5413,-2.5421,-2.5484,-2.5493,-2.5493,-2.5493,-2.5493,-2.5493,-2.5493,-2.5493,-2.5493,-2.5493,-2.5493,-2.5493,-2.5493,-2.5434,-2.5815,-2.6611,-2.665,-2.7131,-2.7986,-2.8794,-2.9171,-2.9259,-3.0922,-3.166,-3.1698,-3.1756,-3.2218,-3.291,-3.3006,-3.3506,-3.4282,-3.4898,-3.5105,-3.5051,-3.4793,-3.4489,-3.4223,-3.42,-3.4018,-3.3815,-3.3788,-3.3807,-3.3807,-3.3807,-3.3807,-3.3807,-3.3807,-3.3807,-3.3707,-3.3302,-3.3243,-3.3332,-3.3707,-3.3807,-3.368,-3.3302,-3.328,-3.3129,-3.2616,-3.3257,-3.3387,-3.2089,-3.2626,-3.3035,-3.2508,-3.2405,-3.2422,-3.2422,-3.2347,-3.2002,-3.1309,-3.1207,-3.119,-3.119,-3.119,-3.119,-3.119,-3.119,-3.119,-3.119,-3.119,-3.119,-3.119,-3.119,-3.1546,-3.2246,-3.1512,-3.1562,0.0,0.0,0.0,0.0,0.0,0.0,0.0,0.0,0.0,0.0,-2.4842,-2.4864,-2.4864,-2.5363,-2.5649,-2.5341,-2.5303,-2.5303,-2.5303,-2.5303,-2.5303,-2.533,-2.5339,-2.5348,-2.5379,-2.5379,-2.5379,-2.5379,-2.5379,-2.5379,-2.5379,-2.5379,-2.5379,-2.5379,-2.5379,-2.5379,-2.5379,-2.5357,-2.5485,-2.5764,-2.6332,-2.6755,-2.7082,-2.7928,-2.8526,-2.8945,-2.9557,-3.0235,-3.091,-3.1468,-3.1545,-3.141,-3.2487,-3.2999,-3.3196,-3.3993,-3.4377,-3.4492,-3.4423,-3.4189,-3.3935,-3.3935,-3.3876,-3.3807,-3.3807,-3.3807,-3.3807,-3.3807,-3.3807,-3.3734,-3.3494,-3.3419,-3.3302,-3.2858,-3.2745,-3.2777,-3.2934,-3.3196,-3.3273,-3.284,-3.2745,-3.2616,-3.2127,-3.2284,-3.2246,-3.1521,-3.1688,-3.1798,-3.1619,-3.1579,-3.1579,-3.1579,-3.1579,-3.1478,-3.1207,-3.119,-3.119,-3.119,-3.119,-3.119,-3.119,-3.119,-3.119,-3.119,-3.119,-3.1427,-3.1901,-3.1901,-3.2019,-3.2273,-3.2019,-3.1782,0.0,0.0,0.0,0.0,0.0,0.0,0.0,0.0,0.0,0.0,-2.4467,-2.47,-2.47,-2.4936,-2.5149,-2.5192,-2.5264,-2.5303,-2.5303,-2.5303,-2.5303,-2.5303,-2.5303,-2.5303,-2.5303,-2.5303,-2.5303,-2.5303,-2.5303,-2.5303,-2.5303,-2.5303,-2.5303,-2.5303,-2.5303,-2.5303,-2.5303,-2.5303,-2.5303,-2.5303,-2.5819,-2.6058,-2.6096,-2.6902,-2.7618,-2.8274,-2.8574,-2.9275,-3.0213,-3.0854,-3.0745,-3.0322,-3.1788,-3.2206,-3.2131,-3.3145,-3.3631,-3.3822,-3.4006,-3.3935,-3.3807,-3.3807,-3.3807,-3.3807,-3.3807,-3.3807,-3.3762,-3.3652,-3.3606,-3.3494,-3.3075,-3.284,-3.2631,-3.2332,-3.2282,-3.2248,-3.2092,-3.255,-3.2809,-3.235,-3.2282,-3.2144,-3.1677,-3.1603,-3.1507,-3.123,-3.119,-3.119,-3.119,-3.119,-3.119,-3.119,-3.119,-3.119,-3.119,-3.119,-3.119,-3.119,-3.1427,-3.1562,-3.1562,-3.1799,-3.1816,-3.1562,-3.1799,-3.2171,-3.2662,-3.2408,-3.2408,-3.2645,-3.2432,-3.1884,0.0,0.0,0.0,0.0,0.0,0.0,0.0,0.0,0.0,0.0,-2.382,-2.4495,-2.4495,-2.4654,-2.4828,-2.4962,-2.5152,-2.5293,-2.5293,-2.5293,-2.5293,-2.5293,-2.5303,-2.5284,-2.5284,-2.5303,-2.5303,-2.5303,-2.5303,-2.5303,-2.5303,-2.5303,-2.5303,-2.5303,-2.5303,-2.5303,-2.5284,-2.5284,-2.5303,-2.5274,-2.5088,-2.4979,-2.5018,-2.5665,-2.6393,-2.7188,-2.8088,-2.8902,-2.9658,-2.9889,-2.9877,-2.9806,-3.0852,-3.1146,-3.1148,-3.2446,-3.2952,-3.3073,-3.3563,-3.377,-3.3807,-3.3807,-3.3807,-3.3807,-3.3807,-3.3788,-3.3707,-3.3302,-3.3184,-3.3075,-3.2616,-3.2127,-3.1789,-3.1789,-3.1789,-3.166,-3.1291,-3.186,-3.235,-3.1861,-3.1789,-3.166,-3.1252,-3.119,-3.119,-3.119,-3.119,-3.119,-3.119,-3.119,-3.119,-3.119,-3.119,-3.1207,-3.1224,-3.1224,-3.1224,-3.1224,-3.1901,-3.2347,-3.2313,-3.3,-3.3068,-3.2364,-3.3034,-3.3423,-3.344,-3.2679,-3.2679,-3.3389,-3.2611,-3.1867,-2.4842,0.0,0.0,0.0,0.0,0.0,0.0,0.0,0.0,-2.4148,-2.4312,-2.4444,-2.4321,-2.4444,-2.4591,-2.4636,-2.4814,-2.4942,-2.4942,-2.4942,-2.4942,-2.4942,-2.5018,-2.5088,-2.5088,-2.5214,-2.5303,0.0,-2.5303,-2.5303,-2.5303,-2.5303,-2.5303,-2.5303,-2.5303,-2.5224,-2.5088,-2.5088,-2.503,-2.4942,-2.4883,-2.4855,-2.4855,-2.5059,-2.5487,-2.6166,-2.6989,-2.7717,-2.8396,-2.9379,-2.9746,-2.9732,-3.0028,-3.0376,-3.0764,-3.1129,-3.1881,-3.2741,-3.2878,-3.3311,-3.3807,-3.3807,-3.3807,-3.3807,-3.3807,-3.3606,-3.3332,-3.3243,-3.2952,-3.2583,-3.2127,-3.1677,-3.1389,-3.1389,-3.1389,-3.1351,-3.123,-3.1389,-3.1524,-3.1389,-3.1389,-3.1312,-3.123,-3.119,-3.119,-3.119,-3.119,-3.119,-3.119,-3.119,-3.119,-3.119,-3.119,-3.141,-3.1935,-3.1985,-3.1985,-3.1985,-3.2679,-3.2848,-3.2347,-3.3,-3.3305,-3.3102,-3.3305,-3.366,-3.4184,-3.3457,-3.3203,-3.3372,-3.2087,-3.1376,0.0,0.0,0.0,0.0,0.0,0.0,-2.4084,-2.4286,-2.4284,0.0,-2.3793,-2.4136,-2.3346,-2.3472,-2.3727,-2.3856,-2.3975,-2.4214,-2.4718,-2.4804,-2.4804,-2.4804,-2.4883,-2.4917,-2.4917,-2.5024,-2.5091,-2.5091,-2.5091,-2.5091,-2.5091,-2.5091,-2.5091,-2.5091,-2.5091,-2.5037,-2.4917,-2.4917,-2.4883,-2.4804,-2.4716,-2.467,-2.467,-2.4575,-2.4925,-2.5597,-2.606,-2.6665,-2.7368,-2.8459,-2.9099,-2.9416,-2.9533,-2.9715,-3.0002,-3.0687,-3.142,-3.221,-3.2871,-3.3421,-3.3807,-3.3807,-3.368,-3.355,-3.355,-3.3273,-3.289,-3.2663,-3.2316,-3.1878,-3.1603,-3.1389,-3.119,-3.119,-3.119,-3.119,-3.119,-3.119,-3.119,-3.119,-3.119,-3.119,-3.119,-3.119,-3.119,-3.119,-3.119,-3.119,-3.119,-3.119,-3.119,-3.119,-3.119,-3.136,-3.1782,-3.2104,-3.2313,-3.2313,-3.3043,-3.3238,-3.2804,-3.325,-3.3363,-3.302,-3.3346,-3.3396,-3.3243,-3.3362,-3.3237,-3.2899,-3.1732,-3.119,0.0,0.0,0.0,0.0,0.0,0.0,-2.3288,-2.379,-2.3902,-2.1929,-2.2815,-2.3548,-2.2188,-2.2244,-2.2648,-2.307,-2.307,-2.3398,-2.4572,-2.4731,-2.4731,-2.4731,-2.476,-2.4775,-2.4775,-2.479,-2.4804,-2.4804,-2.4804,-2.4804,-2.4804,-2.4804,-2.4804,-2.4804,-2.4804,-2.479,-2.4775,-2.4775,-2.476,-2.4731,-2.4543,-2.4461,-2.4461,-2.4284,-2.4575,-2.5274,-2.5366,-2.586,-2.6667,-2.7475,-2.8227,-2.8911,-2.923,-2.9259,-2.9329,-3.0742,-3.1366,-3.1733,-3.3164,-3.3688,-3.3734,-3.3734,-3.3465,-3.3105,-3.3105,-3.2777,-3.235,-3.1861,-3.1487,-3.119,-3.119,-3.119,-3.119,-3.119,-3.119,-3.119,-3.119,-3.119,-3.119,-3.119,-3.119,-3.119,-3.119,-3.119,-3.119,-3.119,-3.119,-3.119,-3.119,-3.1151,-3.1095,-3.1095,-3.1055,-3.1049,-3.1133,-3.1722,-3.2126,-3.221,-3.2961,-3.3381,-3.3381,-3.3516,-3.3294,-3.2636,-3.3198,-3.2846,-3.1598,-3.268,-3.2782,-3.1958,-3.1402,-3.1059,0.0,0.0,0.0,0.0,0.0,0.0,-2.4199,-2.3857,-2.3428,0.0,-2.2651,-2.25,-2.2721,-2.2318,-2.2391,-2.3749,-2.3419,-2.3309,-2.4192,-2.4321,-2.4321,-2.4321,-2.4461,-2.4561,-2.4561,-2.47,-2.4804,-2.4804,-2.4804,-2.4804,-2.4804,-2.4804,-2.4804,-2.4804,-2.4804,-2.4716,-2.4543,-2.4561,-2.4478,-2.4321,-2.4266,-2.4266,-2.4266,-2.4209,-2.4281,-2.4465,-2.5127,-2.586,-2.6667,-2.7475,-2.7879,-2.8099,-2.8787,-2.9448,-3.0008,-3.032,-3.1256,-3.2412,-3.2742,-3.3049,-3.3302,-3.3302,-3.3014,-3.2648,-3.2648,-3.2298,-3.1861,-3.1449,-3.1252,-3.119,-3.119,-3.119,-3.119,-3.119,-3.119,-3.119,-3.119,-3.119,-3.119,-3.119,-3.119,-3.119,-3.119,-3.119,-3.119,-3.119,-3.119,-3.119,-3.119,-3.0797,-3.0477,-3.0477,-3.0021,-2.9988,-3.0599,-3.0762,-3.1086,-3.1607,-3.2353,-3.274,-3.2707,-3.3281,-3.3518,-3.339,-3.3024,-3.2606,-3.2301,-3.1999,-3.1202,-2.9972,-3.0364,-3.0267,0.0,0.0,0.0,-2.419,0.0,0.0,0.0,-2.4043,-2.3599,-2.3061,-2.2395,-2.1992,-2.2335,-2.2281,-2.2501,-2.3456,-2.3272,-2.329,-2.408,-2.3859,-2.3602,-2.3602,-2.3694,-2.3914,-2.4302,-2.4426,-2.4495,-2.4495,-2.4495,-2.4495,-2.4495,-2.4495,-2.4495,-2.4495,-2.4495,-2.4444,-2.4339,-2.4339,-2.4303,-2.419,-2.419,-2.419,-2.419,-2.419,-2.419,-2.4226,-2.463,-2.5034,-2.5493,-2.6704,-2.7094,-2.7032,-2.8453,-2.9494,-3.0246,-3.065,-3.1568,-3.2643,-3.2821,-3.3034,-3.3154,-3.2921,-3.2267,-3.1653,-3.2056,-3.1842,-3.1449,-3.1269,-3.119,-3.119,-3.119,-3.119,-3.119,-3.119,-3.119,-3.1112,-3.0838,-3.0975,-3.1112,-3.0797,-3.1015,-3.119,-3.119,-3.119,-3.119,-3.119,-3.119,-3.1095,-3.0797,-3.0477,-3.0166,-2.9892,-2.9585,-2.955,-2.9932,-3.0605,-3.115,-3.1502,-3.2178,-3.2573,-3.2536,-3.2547,-3.2555,-3.2555,-3.223,-3.1889,-3.148,-3.1176,-3.0782,-3.0416,-3.0767,-3.0735,0.0,0.0,0.0,0.0,0.0,-2.419,0.0,0.0,0.0,-2.285,0.0,0.0,0.0,0.0,0.0,0.0,0.0,0.0,0.0,-2.3309,0.0,-2.3217,-2.3107,-2.3327,-2.4116,-2.419,-2.419,-2.419,-2.419,-2.419,-2.419,-2.419,-2.419,-2.419,-2.419,-2.419,-2.419,-2.419,-2.419,-2.419,-2.419,-2.419,-2.419,-2.419,-2.419,-2.419,-2.419,-2.4373,-2.4759,-2.5981,-2.6481,-2.6634,-2.8239,-2.9332,-3.0075,-3.0789,-3.1605,-3.2429,-3.2821,-3.2949,-3.2854,-3.2323,-3.1358,-3.0507,-3.1248,-3.1227,-3.1021,-3.1157,-3.119,-3.119,-3.119,-3.119,-3.119,-3.1055,-3.1015,-3.0878,-3.0393,-3.0601,-3.074,-3.0393,-3.0617,-3.0918,-3.1151,-3.1095,-3.1015,-3.1015,-3.0918,-3.0699,-3.0208,-3.0038,-2.9761,-2.9271,-2.9134,-2.9042,-2.9042,-3.0228,-3.1003,-3.113,-3.1793,-3.2244,-3.2367,-3.166,-3.1345,-3.1345,-3.1168,-3.0941,-3.0507,-3.0507,-3.0677,-3.1079,-3.1155,-3.1139,0.0,0.0,0.0,0.0,-2.419,0.0,-2.419,0.0,-2.3107,-2.2978,0.0,0.0,0.0,0.0,0.0,0.0,0.0,0.0,-2.2152,-2.2611,-2.3272,-2.3988,-2.3437,-2.3327,-2.4116,-2.419,-2.419,-2.419,-2.419,-2.419,-2.419,-2.419,-2.419,-2.419,-2.419,-2.419,-2.419,-2.419,-2.419,-2.419,-2.419,-2.419,-2.419,-2.419,-2.419,-2.419,-2.419,-2.5016,-2.6316,-2.6141,-2.6886,-2.8142,-2.8373,-2.8775,-2.928,-2.9656,-3.0546,-3.1586,-3.1984,-3.2062,-3.1846,-3.1116,-3.0126,-2.9338,-3.0065,-3.0264,-3.0362,-3.1021,-3.119,-3.119,-3.119,-3.119,-3.1055,-3.0518,-3.0393,-3.0393,-3.0293,-2.9935,-2.9717,-3.0208,-2.9935,-2.9935,-3.1015,-3.0757,-3.0393,-3.0393,-2.9951,-2.9585,-2.9496,-2.9058,-2.8701,-2.8606,-2.8125,-2.7795,-2.7795,-2.8505,-2.9199,-2.9788,-3.0388,-3.0994,-3.161,-3.0941,-3.0612,-3.0612,-3.0088,-3.0028,-3.0507,-3.0507,-3.0288,-2.9848,-3.0337,-3.0307,0.0,0.0,0.0,0.0,0.0,0.0,-2.419,0.0,-2.3694,0.0,0.0,0.0,0.0,0.0,0.0,0.0,-2.3694,0.0,0.0,0.0,-2.3144,0.0,0.0,0.0,-2.4116,-2.419,-2.419,-2.419,-2.419,-2.419,-2.419,-2.419,-2.419,-2.419,-2.419,-2.419,-2.419,-2.419,-2.419,-2.419,-2.419,-2.419,-2.419,-2.419,-2.419,-2.4226,-2.4447,-2.4925,-2.5592,-2.6186,-2.6677,-2.7102,-2.7571,-2.8311,-2.9118,-2.9262,-2.9946,-3.0756,-3.0645,-3.0567,-3.0352,-2.9333,-2.9002,-2.8958,-2.8822,-2.9397,-3.0176,-3.048,-3.0869,-3.105,-3.0302,-3.0106,-2.9928,-2.9342,-2.9215,-2.92,-2.9265,-2.9316,-2.9361,-2.9271,-2.9316,-2.954,-3.0081,-2.9951,-2.9761,-2.9761,-2.954,-2.9271,-2.8919,-2.8654,-2.8383,-2.8008,-2.776,-2.779,-2.8128,-2.8786,-2.9445,-3.0073,-3.0731,-3.124,-3.1467,-3.0866,-3.0507,-3.0507,-2.9894,-2.9879,-3.0507,-3.0507,-3.0567,-3.0717,-3.0986,-3.0956,-2.419,0.0,0.0,0.0,0.0,0.0,0.0,0.0,0.0,0.0,0.0,0.0,0.0,0.0,0.0,0.0,0.0,-2.4116,0.0,-2.3566,0.0,0.0,0.0,0.0,0.0,-2.419,-2.419,-2.419,-2.4113,-2.4094,-2.4208,-2.4113,-2.4094,-2.4208,-2.4113,-2.4094,-2.419,-2.4113,-2.4113,-2.419,-2.419,-2.4151,-2.4074,-2.4074,-2.4124,-2.4239,-2.4541,-2.4909,-2.5386,-2.6206,-2.6475,-2.648,-2.694,-2.7646,-2.8443,-2.8564,-2.9026,-2.9604,-2.9586,-2.9505,-2.9248,-2.8167,-2.8061,-2.8332,-2.7984,-2.8669,-2.9587,-2.9855,-3.0299,-3.0484,-2.9568,-2.9337,-2.917,-2.8578,-2.8446,-2.8455,-2.8497,-2.8732,-2.8826,-2.8559,-2.8732,-2.8904,-2.8904,-2.9042,-2.9134,-2.9134,-2.8996,-2.8764,-2.8319,-2.8238,-2.8091,-2.7675,-2.7625,-2.7784,-2.8278,-2.8921,-2.9654,-3.0447,-3.0971,-3.1345,-3.1467,-3.0717,-3.0253,-3.0253,-2.9804,-2.9804,-3.0253,-3.0612,-3.1046,-3.1482,-3.1482,-3.1482,0.0,0.0,0.0,-2.419,0.0,0.0,0.0,0.0,-2.419,0.0,0.0,0.0,0.0,0.0,0.0,0.0,0.0,0.0,0.0,0.0,0.0,0.0,0.0,0.0,0.0,-2.419,-2.419,-2.419,-2.3896,-2.3876,-2.417,-2.3896,-2.3858,-2.419,-2.3896,-2.3876,-2.4208,-2.3876,-2.3876,-2.419,-2.419,-2.4016,-2.3714,-2.3714,-2.3934,-2.4314,-2.4307,-2.519,-2.6594,-2.6248,-2.658,-2.7238,-2.6856,-2.6742,-2.6808,-2.7213,-2.7566,-2.8048,-2.9111,-2.9299,-2.8876,-2.8078,-2.7334,-2.6961,-2.7805,-2.8096,-2.8345,-2.9166,-2.9435,-2.9451,-2.9419,-2.9419,-2.9239,-2.8654,-2.848,-2.848,-2.8511,-2.8042,-2.781,-2.8367,-2.8042,-2.766,-2.766,-2.814,-2.8511,-2.8511,-2.8042,-2.766,-2.7625,-2.7625,-2.7625,-2.7625,-2.7625,-2.7625,-2.7655,-2.8233,-2.9175,-3.0417,-3.0522,-3.0836,-3.1452,-3.0298,-2.9609,-2.9609,-2.9594,-2.9594,-2.9609,-3.0881,-3.1452,-3.1482,-3.1482,-3.1482,-2.419,-2.419,-2.419,-2.419,0.0,0.0,0.0,0.0,0.0,0.0,0.0,0.0,0.0,0.0,0.0,0.0,0.0,0.0,0.0,0.0,0.0,0.0,0.0,0.0,0.0,0.0,-2.419,-2.419,-2.4094,-2.3996,-2.3858,-2.3774,-2.3649,-2.3544,-2.3414,-2.3414,-2.3544,-2.3414,-2.3414,-2.3544,-2.3544,-2.3746,-2.4106,-2.4106,-2.446,-2.5129,-2.537,-2.5808,-2.6301,-2.6453,-2.6652,-2.6906,-2.6758,-2.6691,-2.6725,-2.6841,-2.7284,-2.7858,-2.8218,-2.7998,-2.7384,-2.6799,-2.6706,-2.6825,-2.6837,-2.751,-2.8307,-2.8618,-2.9038,-2.9204,-2.8367,-2.8151,-2.7983,-2.7372,-2.6909,-2.6834,-2.7713,-2.7414,-2.715,-2.7769,-2.776,-2.7625,-2.7625,-2.776,-2.7894,-2.7894,-2.771,-2.7625,-2.7625,-2.7625,-2.7625,-2.7625,-2.7625,-2.7754,-2.8203,-2.8861,-2.943,-2.9864,-3.0283,-3.0612,-3.0851,-3.0028,-2.9774,-3.0178,-2.937,-2.934,-3.0193,-3.0642,-3.1091,-3.1482,-3.1482,-3.1482,-2.4538,-2.441,-2.419,-2.419,-2.419,-2.419,-2.419,0.0,-2.417,0.0,0.0,0.0,0.0,0.0,0.0,0.0,0.0,0.0,0.0,-2.3189,0.0,0.0,0.0,0.0,0.0,-2.4074,-2.4094,-2.3858,-2.3837,-2.3753,-2.3544,-2.3414,-2.33,-2.3189,-2.3093,-2.3069,-2.3189,-2.3069,-2.3069,-2.3189,-2.3189,-2.3541,-2.4164,-2.4164,-2.4663,-2.5553,-2.579,-2.6076,-2.6319,-2.6588,-2.6691,-2.6691,-2.6691,-2.686,-2.7097,-2.7097,-2.7757,-2.8602,-2.8332,-2.7955,-2.7453,-2.6631,-2.652,-2.6571,-2.6068,-2.6735,-2.7624,-2.7668,-2.8232,-2.8576,-2.7765,-2.7563,-2.7359,-2.6729,-2.6437,-2.6482,-2.7096,-2.7066,-2.7066,-2.7535,-2.7625,-2.7625,-2.7625,-2.7625,-2.7625,-2.7625,-2.7625,-2.7625,-2.7625,-2.7625,-2.7625,-2.7625,-2.7625,-2.7754,-2.8203,-2.8846,-2.9235,-2.9235,-3.0028,-3.0507,-3.0507,-2.9909,-2.9983,-3.0851,-2.9594,-2.9579,-3.0866,-3.0866,-3.1106,-3.1482,-3.1482,-3.1482]},{"header":{"parameterUnit":"m.s-1","parameterCategory":1,"la1":30.6,"la2":29.2853,"lo1":-89.7004,"lo2":-87.6739,"dy":0.0162,"dx":0.0183,"nx":112,"ny":82,"refTime":"2023-08-22T06:00:00:Z","depth":0,"parameterNumber":3,"parameterNumberName":"V-component_of_WINDS"},"data":[0.0,0.0,0.0,0.0,0.0,0.0,0.0,0.0,0.0,0.0,0.0,0.0,0.0,0.0,0.0,0.0,0.0,0.0,0.0,0.0,0.0,0.0,0.0,0.0,0.0,0.0,0.0,0.0,0.0,0.0,0.0,0.0,0.0,0.0,0.0,0.0,0.0,0.0,0.0,0.0,0.0,0.0,0.0,0.0,0.0,0.0,0.0,0.0,0.0,0.0,0.0,0.0,0.0,0.0,0.0,0.0,0.0,0.0,0.0,0.0,0.0,0.0,0.0,0.0,0.0,0.0,0.0,0.0,0.0,0.0,0.0,0.0,0.0,0.0,0.0,0.0,0.0,0.0,0.0,0.0,0.0,0.0,0.0,0.0,0.0,0.0,0.0,0.0,0.0,0.0,-0.4295,-0.4532,-0.4211,-0.3925,-0.388,-0.3639,-0.347,-0.3541,0.0,0.0,0.0,0.0,0.0,0.0,0.0,0.0,0.0,0.0,0.0,0.0,0.0,0.0,0.0,0.0,0.0,0.0,0.0,0.0,0.0,0.0,0.0,0.0,0.0,0.0,0.0,0.0,0.0,0.0,0.0,0.0,0.0,0.0,0.0,0.0,0.0,0.0,0.0,0.0,0.0,0.0,0.0,0.0,0.0,0.0,0.0,0.0,0.0,0.0,0.0,0.0,0.0,0.0,0.0,0.0,0.0,0.0,0.0,0.0,0.0,0.0,0.0,0.0,0.0,0.0,0.0,0.0,0.0,0.0,0.0,0.0,0.0,0.0,0.0,0.0,0.0,0.0,0.0,0.0,0.0,0.0,0.0,0.0,0.0,0.0,0.0,0.0,0.0,0.0,0.0,0.0,0.0,0.0,0.0,0.0,0.0,0.0,0.0,0.0,0.0,0.0,0.0,0.0,-0.4939,-0.4477,-0.4089,-0.3906,-0.4111,-0.3347,-0.2981,-0.3319,0.0,0.0,0.0,0.0,0.0,0.0,0.0,0.0,0.0,0.0,0.0,0.0,0.0,0.0,0.0,0.0,0.0,0.0,0.0,0.0,0.0,0.0,0.0,0.0,0.0,0.0,0.0,0.0,0.0,0.0,0.0,0.0,0.0,0.0,0.0,0.0,0.0,0.0,0.0,0.0,0.0,0.0,0.0,0.0,0.0,0.0,0.0,0.0,0.0,0.0,0.0,0.0,0.0,0.0,0.0,0.0,0.0,0.0,0.0,0.0,0.0,0.0,0.0,0.0,0.0,0.0,0.0,0.0,0.0,0.0,0.0,0.0,0.0,0.0,0.0,0.0,0.0,0.0,0.0,0.0,0.0,0.0,0.0,0.0,0.0,0.0,0.0,0.0,0.0,0.0,0.0,0.0,0.0,0.0,0.0,0.0,0.0,0.0,0.0,0.0,0.0,0.0,0.0,-0.5164,-0.5023,-0.4269,-0.4298,-0.4299,-0.4008,-0.3336,-0.3025,-0.3276,-0.3082,0.0,0.0,0.0,0.0,0.0,0.0,0.0,0.0,0.0,0.0,0.0,0.0,0.0,0.0,0.0,0.0,0.0,0.0,0.0,0.0,0.0,0.0,0.0,0.0,0.0,0.0,0.0,0.0,0.0,0.0,0.0,0.0,0.0,0.0,0.0,0.0,0.0,0.0,0.0,0.0,0.0,0.0,0.0,0.0,0.0,0.0,0.0,0.0,0.0,0.0,0.0,0.0,0.0,0.0,0.0,0.0,0.0,0.0,0.0,0.0,0.0,0.0,0.0,0.0,0.0,0.0,0.0,0.0,0.0,0.0,0.0,0.0,0.0,0.0,0.0,0.0,0.0,0.0,0.0,0.0,0.0,0.0,0.0,0.0,0.0,0.0,0.0,0.0,0.0,0.0,0.0,0.0,0.0,0.0,0.0,0.0,0.0,0.0,0.0,0.0,0.0,0.0,-0.4883,-0.486,-0.4252,-0.4581,-0.4581,-0.3934,-0.3416,-0.3159,-0.3212,-0.289,0.0,0.0,0.0,0.0,0.0,0.0,0.0,0.0,0.0,0.0,0.0,0.0,0.0,0.0,0.0,0.0,0.0,0.0,0.0,0.0,0.0,0.0,0.0,0.0,0.0,0.0,0.0,0.0,0.0,0.0,0.0,0.0,0.0,0.0,0.0,0.0,0.0,0.0,0.0,0.0,0.0,0.0,0.0,0.0,0.0,0.0,0.0,0.0,0.0,0.0,0.0,0.0,0.0,0.0,0.0,0.0,0.0,0.0,0.0,0.0,0.0,0.0,0.0,0.0,0.0,0.0,0.0,0.0,0.0,0.0,0.0,0.0,0.0,0.0,0.0,0.0,0.0,0.0,0.0,0.0,0.0,0.0,0.0,0.0,0.0,0.0,0.0,0.0,0.0,0.0,0.0,0.0,0.0,0.0,0.0,0.0,0.0,0.0,0.0,0.0,0.0,0.0,-0.4776,-0.4535,-0.4723,-0.4679,-0.4502,-0.4193,-0.3583,-0.3104,-0.2953,-0.2778,0.0,0.0,0.0,0.0,0.0,0.0,0.0,0.0,0.0,0.0,0.0,0.0,0.0,0.0,0.0,0.0,0.0,0.0,0.0,0.0,0.0,0.0,0.0,0.0,0.0,0.0,0.0,0.0,0.0,0.0,0.0,0.0,0.0,0.0,0.0,0.0,0.0,0.0,0.0,0.0,0.0,0.0,0.0,0.0,0.0,0.0,0.0,0.0,0.0,0.0,0.0,0.0,0.0,0.0,0.0,0.0,0.0,0.0,0.0,0.0,0.0,0.0,0.0,0.0,0.0,0.0,0.0,0.0,0.0,0.0,0.0,0.0,0.0,0.0,0.0,0.0,0.0,0.0,0.0,0.0,0.0,0.0,0.0,0.0,0.0,0.0,0.0,0.0,0.0,0.0,0.0,0.0,0.0,0.0,0.0,0.0,0.0,0.0,0.0,0.0,0.0,0.0,-0.5114,-0.4783,0.0,-0.4546,-0.4442,-0.3695,-0.3336,-0.3029,-0.2808,0.0,0.0,0.0,0.0,0.0,0.0,0.0,0.0,0.0,0.0,0.0,0.0,0.0,0.0,0.0,0.0,0.0,0.0,0.0,0.0,0.0,0.0,0.0,0.0,0.0,0.0,0.0,0.0,0.0,0.0,0.0,0.0,0.0,0.0,0.0,0.0,0.0,0.0,0.0,0.0,0.0,0.0,0.0,0.0,0.0,0.0,0.0,0.0,0.0,0.0,0.0,0.0,0.0,0.0,0.0,0.0,0.0,0.0,0.0,0.0,0.0,0.0,0.0,0.0,0.0,0.0,0.0,0.0,0.0,0.0,0.0,0.0,0.0,0.0,0.0,0.0,0.0,0.0,0.0,0.0,0.0,0.0,0.0,0.0,0.0,0.0,0.0,0.0,0.0,0.0,0.0,0.0,0.0,0.0,0.0,0.0,0.0,0.0,0.0,0.0,0.0,0.0,-0.5331,-0.5067,-0.4664,0.0,-0.4323,-0.4184,-0.3309,-0.3236,-0.3068,-0.2648,0.0,0.0,0.0,0.0,0.0,0.0,0.0,0.0,0.0,0.0,0.0,0.0,0.0,0.0,0.0,0.0,0.0,0.0,0.0,0.0,0.0,0.0,0.0,0.0,0.0,0.0,0.0,0.0,0.0,0.0,0.0,0.0,0.0,0.0,0.0,0.0,0.0,0.0,0.0,0.0,0.0,0.0,0.0,0.0,0.0,0.0,0.0,0.0,0.0,0.0,0.0,0.0,0.0,0.0,0.0,0.0,0.0,0.0,0.0,0.0,0.0,0.0,0.0,0.0,0.0,0.0,0.0,0.0,0.0,0.0,0.0,0.0,0.0,0.0,0.0,0.0,0.0,0.0,0.0,0.0,0.0,0.0,0.0,0.0,0.0,0.0,0.0,0.0,0.0,0.0,0.0,0.0,0.0,0.0,0.0,0.0,0.0,0.0,0.0,0.0,0.0,0.0,-0.5214,-0.4543,-0.3992,-0.3992,-0.3993,-0.3747,-0.3144,-0.3335,-0.3208,0.0,0.0,0.0,0.0,0.0,0.0,0.0,0.0,0.0,0.0,0.0,0.0,0.0,0.0,0.0,0.0,0.0,0.0,0.0,0.0,0.0,0.0,0.0,0.0,0.0,0.0,0.0,0.0,0.0,0.0,0.0,0.0,0.0,0.0,0.0,0.0,0.0,0.0,0.0,0.0,0.0,0.0,0.0,0.0,0.0,0.0,0.0,0.0,0.0,0.0,0.0,0.0,0.0,0.0,0.0,0.0,0.0,0.0,0.0,0.0,0.0,0.0,0.0,0.0,0.0,0.0,0.0,0.0,0.0,0.0,0.0,0.0,0.0,0.0,0.0,0.0,0.0,0.0,0.0,0.0,0.0,0.0,0.0,0.0,0.0,0.0,0.0,0.0,0.0,0.0,0.0,0.0,0.0,0.0,0.0,0.0,0.0,0.0,0.0,0.0,0.0,0.0,0.0,-0.5284,-0.4543,-0.3911,-0.3681,-0.3649,-0.3435,-0.286,-0.2765,-0.2598,-0.2311,0.0,0.0,0.0,0.0,0.0,0.0,0.0,0.0,0.0,0.0,0.0,0.0,0.0,0.0,0.0,0.0,0.0,0.0,0.0,0.0,0.0,0.0,0.0,0.0,0.0,0.0,0.0,0.0,0.0,0.0,0.0,0.0,0.0,0.0,0.0,0.0,0.0,0.0,0.0,0.0,0.0,0.0,0.0,0.0,0.0,0.0,0.0,0.0,0.0,0.0,0.0,0.0,0.0,0.0,0.0,0.0,0.0,0.0,0.0,0.0,0.0,0.0,0.0,0.0,0.0,0.0,0.0,0.0,0.0,0.0,0.0,0.0,0.0,0.0,0.0,0.0,0.0,0.0,0.0,0.0,0.0,0.0,0.0,0.0,0.0,0.0,0.0,0.0,0.0,0.0,0.0,0.0,0.0,0.0,0.0,0.0,0.0,0.0,0.0,0.0,0.0,0.0,-0.5277,-0.4409,-0.3727,-0.3526,-0.332,-0.305,-0.2734,-0.2372,-0.2153,-0.2157,0.0,0.0,0.0,0.0,0.0,0.0,0.0,0.0,0.0,0.0,0.0,0.0,0.0,0.0,0.0,0.0,0.0,0.0,0.0,0.0,0.0,0.0,0.0,0.0,0.0,0.0,0.0,0.0,0.0,0.0,0.0,0.0,0.0,0.0,0.0,0.0,0.0,0.0,0.0,0.0,0.0,0.0,0.0,0.0,0.0,0.0,0.0,0.0,0.0,0.0,0.0,0.0,0.0,0.0,0.0,0.0,0.0,0.0,0.0,0.0,0.0,0.0,0.0,0.0,0.0,0.0,0.0,0.0,0.0,0.0,0.0,0.0,0.0,0.0,0.0,0.0,0.0,0.0,0.0,0.0,0.0,0.0,0.0,0.0,0.0,0.0,0.0,0.0,0.0,0.0,0.0,0.0,0.0,0.0,0.0,0.0,0.0,0.0,0.0,0.0,0.0,0.0,-0.5144,-0.4204,-0.3506,-0.3506,-0.3025,-0.2697,-0.2697,-0.2154,-0.1892,-0.2094,0.0,0.0,0.0,0.0,0.0,0.0,0.0,0.0,0.0,0.0,0.0,0.0,0.0,0.0,0.0,0.0,0.0,0.0,0.0,0.0,0.0,0.0,0.0,0.0,0.0,0.0,0.0,0.0,0.0,0.0,0.0,0.0,0.0,0.0,0.0,0.0,0.0,0.0,0.0,0.0,0.0,0.0,0.0,0.0,0.0,0.0,0.0,0.0,0.0,0.0,0.0,0.0,0.0,0.0,0.0,0.0,0.0,0.0,0.0,0.0,-0.7575,0.0,0.0,0.0,0.0,0.0,0.0,0.0,0.0,0.0,0.0,0.0,0.0,0.0,0.0,0.0,0.0,0.0,0.0,0.0,0.0,0.0,0.0,0.0,0.0,0.0,0.0,0.0,0.0,0.0,0.0,0.0,0.0,0.0,0.0,0.0,0.0,0.0,0.0,0.0,0.0,0.0,-0.4654,-0.3961,-0.3506,-0.3506,-0.3025,-0.2697,-0.2697,-0.2154,-0.1892,-0.2094,-0.2238,0.0,0.0,0.0,0.0,0.0,0.0,0.0,0.0,0.0,0.0,0.0,0.0,0.0,0.0,0.0,0.0,0.0,0.0,0.0,0.0,0.0,0.0,0.0,0.0,0.0,0.0,0.0,0.0,0.0,0.0,0.0,0.0,0.0,0.0,0.0,0.0,0.0,0.0,0.0,0.0,0.0,0.0,0.0,0.0,0.0,0.0,0.0,0.0,0.0,0.0,0.0,0.0,0.0,0.0,0.0,0.0,0.0,0.0,0.0,0.0,-0.7716,0.0,0.0,0.0,0.0,0.0,0.0,0.0,0.0,0.0,0.0,0.0,0.0,0.0,0.0,0.0,0.0,0.0,0.0,0.0,0.0,0.0,0.0,0.0,0.0,0.0,0.0,0.0,0.0,0.0,0.0,0.0,0.0,0.0,0.0,0.0,0.0,0.0,0.0,0.0,0.0,-0.4488,-0.3878,-0.3506,-0.3506,-0.3025,-0.2697,-0.2697,-0.2154,-0.1847,-0.1954,-0.2171,0.0,0.0,0.0,0.0,0.0,0.0,0.0,0.0,0.0,0.0,0.0,0.0,0.0,0.0,0.0,0.0,0.0,0.0,0.0,0.0,0.0,0.0,0.0,0.0,0.0,0.0,0.0,0.0,0.0,0.0,0.0,0.0,0.0,0.0,0.0,0.0,0.0,0.0,0.0,0.0,0.0,0.0,0.0,0.0,0.0,0.0,0.0,0.0,0.0,0.0,0.0,0.0,0.0,-0.8558,-0.8831,-0.8731,-0.8731,-0.8437,-0.7882,-0.7882,-0.757,-0.7161,-0.7909,0.0,0.0,0.0,0.0,0.0,0.0,0.0,0.0,0.0,0.0,0.0,0.0,0.0,0.0,0.0,0.0,0.0,0.0,0.0,0.0,0.0,0.0,-0.6695,-0.6134,-0.6164,-0.6223,-0.5739,0.0,0.0,0.0,0.0,0.0,0.0,0.0,0.0,0.0,0.0,0.0,-0.4494,-0.3963,-0.3617,-0.3521,-0.3066,-0.2721,-0.2616,-0.211,-0.1803,-0.1803,-0.2118,-0.2414,0.0,0.0,0.0,0.0,0.0,0.0,0.0,0.0,0.0,0.0,0.0,0.0,0.0,0.0,0.0,0.0,0.0,0.0,0.0,0.0,0.0,0.0,0.0,0.0,0.0,0.0,0.0,0.0,0.0,0.0,0.0,0.0,-0.1223,-0.0983,0.0,0.0,0.0,0.0,0.0,0.0,0.0,0.0,0.0,0.0,0.0,0.0,0.0,-0.7253,-0.795,-0.8959,-0.9262,-0.9013,-0.9123,-0.8918,-0.843,-0.843,-0.825,-0.7882,-0.7882,0.0,-0.7459,-0.758,0.0,0.0,0.0,0.0,0.0,0.0,0.0,0.0,0.0,0.0,0.0,0.0,0.0,0.0,0.0,0.0,0.0,0.0,0.0,0.0,0.0,0.0,-0.6963,-0.6877,-0.6862,-0.675,-0.6212,-0.5665,-0.5303,-0.5265,-0.5025,0.0,0.0,0.0,0.0,0.0,0.0,0.0,-0.4517,-0.4344,-0.4088,-0.3567,-0.3228,-0.2838,-0.2315,-0.1978,-0.1803,-0.1803,-0.1854,-0.2053,-0.2434,-0.2418,0.0,0.0,0.0,0.0,0.0,0.0,0.0,0.0,0.0,0.0,0.0,0.0,0.0,0.0,0.0,0.0,0.0,0.0,0.0,0.0,0.0,0.0,0.0,0.0,0.0,0.0,0.0,0.0,0.0,-0.0715,-0.107,-0.0554,-0.1507,-0.2063,0.0,0.0,0.0,0.0,0.0,0.0,0.0,0.0,0.0,-0.6187,-0.7332,-0.8195,-0.8732,-0.9361,-0.9619,-0.9486,-0.9263,-0.905,-0.8851,-0.8691,-0.8544,-0.8424,-0.8424,-0.8257,-0.8024,-0.8024,-0.8185,-0.844,0.0,0.0,0.0,0.0,-0.8517,-0.8357,-0.8223,-0.807,-0.7902,-0.8083,0.0,0.0,0.0,0.0,0.0,0.0,0.0,-0.7474,0.0,0.0,-0.7695,-0.7355,-0.7268,-0.7154,-0.6734,-0.6422,-0.6161,-0.5776,-0.5312,-0.4981,-0.4964,0.0,0.0,0.0,0.0,-0.4823,-0.4151,-0.3822,-0.3568,-0.3304,-0.3035,-0.2726,-0.2346,-0.2071,-0.1872,-0.1809,-0.1803,-0.1937,-0.2228,-0.2388,-0.2656,0.0,0.0,0.0,0.0,0.0,0.0,0.0,0.0,0.0,0.0,0.0,0.0,0.0,0.0,0.0,0.0,0.0,0.0,0.0,0.0,0.0,0.0,0.0,0.0,0.0,0.0,0.0,0.0,-0.0984,-0.1396,-0.0674,-0.1912,-0.2589,0.0,0.0,0.0,0.0,0.0,0.0,-0.4687,-0.5439,-0.6091,-0.6625,-0.7828,-0.8681,-0.9112,-0.9636,-0.9907,-0.99,-0.9606,-0.9369,-0.9345,-0.9051,-0.8878,-0.8804,-0.8804,-0.8684,-0.8477,-0.8404,-0.8427,-0.8397,-0.8611,-0.8611,-0.8504,-0.8644,-0.8557,-0.8363,-0.8283,-0.8116,-0.7895,-0.8016,-0.7548,-0.7026,-0.7022,0.0,0.0,0.0,0.0,-0.7601,-0.7601,-0.791,-0.815,-0.7695,-0.7567,-0.7426,-0.7088,-0.6777,-0.6545,0.0,-0.5732,-0.5211,-0.5115,0.0,0.0,0.0,0.0,-0.4378,-0.3923,-0.354,-0.3265,-0.3129,-0.2925,-0.2687,-0.2387,-0.2132,-0.196,-0.1845,-0.1823,-0.1888,-0.2055,-0.2388,-0.2683,-0.2927,0.0,0.0,0.0,0.0,0.0,0.0,0.0,0.0,0.0,0.0,0.0,0.0,0.0,0.0,0.0,0.0,0.0,0.0,0.0,0.0,0.0,0.0,0.0,0.0,0.0,0.0,0.0,0.0,0.0,-0.2186,-0.3556,0.0,0.0,0.0,0.0,-0.4619,-0.4877,-0.4979,-0.4704,-0.5157,-0.5568,-0.5846,-0.7278,-0.8265,-0.8821,-0.9974,-1.0577,-1.0577,-1.0214,-0.9927,-0.9653,-0.9352,-0.9065,-0.8804,-0.8804,-0.8798,-0.8764,-0.849,-0.8427,-0.8427,-0.844,-0.8557,-0.8751,-0.849,-0.8434,-0.8337,-0.8049,-0.7895,-0.7928,-0.8263,-0.8524,-0.8528,-0.7841,-0.8112,0.0,0.0,-0.7753,-0.8327,-0.8327,-0.8114,-0.7895,-0.7868,-0.7682,-0.7426,-0.7088,-0.6273,-0.5832,0.0,-0.6262,-0.5768,-0.607,0.0,-0.4635,-0.4575,-0.449,-0.43,-0.4019,-0.3973,-0.3719,-0.3155,-0.3078,-0.2855,-0.2266,-0.2093,-0.2008,-0.1998,-0.1862,-0.1852,-0.2008,-0.2147,-0.2281,-0.2445,-0.2822,0.0,0.0,0.0,0.0,0.0,0.0,0.0,0.0,0.0,0.0,0.0,0.0,0.0,0.0,0.0,0.0,0.0,0.0,0.0,0.0,0.0,0.0,0.0,0.0,0.0,0.0,0.0,0.0,-0.2833,-0.4195,0.0,-0.4534,-0.489,-0.5125,-0.5125,-0.522,-0.5277,-0.527,-0.5944,-0.6475,-0.6664,-0.8123,-0.9057,-0.9226,-1.0142,-1.0624,-1.0618,-1.0067,-0.9786,-0.9666,-0.9185,-0.8905,-0.8804,-0.8804,-0.8804,-0.8798,-0.8697,-0.8651,-0.8651,-0.8651,-0.8604,-0.8537,-0.8624,-0.853,-0.8383,-0.8464,-0.8377,-0.8203,-0.8116,-0.8156,-0.8194,-0.789,-0.7989,-0.8214,-0.8043,-0.8219,-0.8316,-0.8022,-0.8204,-0.8292,-0.7654,-0.7393,-0.7158,-0.6908,-0.6143,-0.5616,-0.5985,-0.5343,-0.4791,-0.499,-0.4733,-0.4423,-0.4235,-0.4024,-0.3836,-0.3764,-0.3411,-0.3086,-0.2862,-0.2858,-0.2729,-0.2417,-0.2355,-0.2252,-0.2065,-0.2029,-0.1964,-0.1865,-0.208,-0.2315,-0.2603,-0.2747,-0.2044,0.0,0.0,0.0,0.0,0.0,0.0,0.0,0.0,0.0,0.0,0.0,0.0,0.0,0.0,0.0,0.0,0.0,0.0,0.0,0.0,0.0,0.0,0.0,0.0,0.0,0.0,-0.3936,-0.3705,-0.4789,-0.5395,-0.4947,-0.5332,-0.5566,-0.5515,-0.5606,-0.5664,-0.5661,-0.6261,-0.6569,-0.6573,-0.7888,-0.8719,-0.8975,-0.964,-1.0151,-1.0408,-0.992,-0.9686,-0.9666,-0.9279,-0.9045,-0.8951,-0.8951,-0.8898,-0.8804,-0.8804,-0.8804,-0.8804,-0.8804,-0.8691,-0.8544,-0.8738,-0.8684,-0.855,-0.8744,-0.8684,-0.849,-0.829,-0.8223,-0.8223,-0.8223,-0.8026,-0.7859,-0.8101,-0.7992,-0.7719,-0.741,-0.767,-0.787,-0.7087,-0.6845,-0.6749,-0.6514,-0.5854,-0.5288,-0.5288,-0.48,-0.4381,-0.4399,-0.4181,-0.4002,-0.3898,-0.3586,-0.3389,-0.3444,-0.3009,-0.2712,-0.2712,-0.2712,-0.2675,-0.2568,-0.2561,-0.2469,-0.2249,-0.2235,-0.2173,-0.2036,-0.2059,-0.2071,-0.2102,-0.19,-0.1192,0.0,0.0,0.0,0.0,0.0,0.0,0.0,0.0,0.0,0.0,0.0,0.0,0.0,0.0,0.0,0.0,0.0,0.0,0.0,0.0,0.0,0.0,0.0,0.0,-0.2898,-0.3857,-0.4599,-0.472,-0.551,-0.5993,-0.585,-0.5966,-0.5989,-0.584,-0.6101,-0.6135,-0.5837,-0.5956,-0.5898,-0.5613,-0.6474,-0.7252,-0.7972,-0.8561,-0.9248,-1.0127,-0.9833,-0.9699,-0.9699,-0.9679,-0.9512,-0.9183,-0.9176,-0.9065,-0.8804,-0.8804,-0.8804,-0.8804,-0.8804,-0.8804,-0.8804,-0.8804,-0.8804,-0.8804,-0.8804,-0.8804,-0.8804,-0.8804,-0.8804,-0.8752,-0.8752,-0.8262,-0.767,-0.767,-0.7128,-0.6588,-0.6588,-0.6588,-0.6533,-0.6251,-0.6196,-0.608,-0.5834,-0.5305,-0.4865,-0.4865,-0.477,-0.4629,-0.4433,-0.379,-0.3366,-0.3558,-0.3202,0.0,-0.3065,-0.2862,-0.2716,-0.2719,-0.2726,-0.2693,-0.2686,-0.269,-0.2661,-0.251,-0.2493,-0.252,-0.252,-0.2067,-0.1528,-0.0877,-0.0315,-0.003,0.0,0.0,0.0,0.0,0.0,0.0,0.0,0.0,0.0,0.0,0.0,0.0,0.0,0.0,0.0,0.0,0.0,0.0,0.0,0.0,0.0,0.0,0.0,-0.3158,-0.3032,-0.4632,-0.586,-0.6099,-0.6327,-0.6542,-0.661,-0.6556,-0.6498,-0.6458,-0.643,-0.6376,-0.6291,-0.6125,-0.5993,-0.5911,-0.6526,-0.7319,-0.8143,-0.8829,-0.9605,-1.0434,-1.0134,-1.0,-0.998,-0.9552,-0.9263,-0.9176,-0.9018,-0.8878,-0.8804,-0.8804,-0.8804,-0.8804,-0.8804,-0.8804,-0.8804,-0.8804,-0.8804,-0.8804,-0.8804,-0.8804,-0.8804,-0.8804,-0.8427,-0.7996,-0.7996,-0.7509,-0.6912,-0.6912,-0.675,-0.6475,-0.5928,-0.6199,-0.646,-0.5851,-0.5628,-0.5553,-0.5584,-0.4931,-0.4392,-0.4392,-0.4353,-0.4236,-0.4004,-0.3698,-0.3531,-0.3571,-0.3286,0.0,-0.3075,-0.2862,-0.2723,-0.2835,-0.2937,-0.2808,-0.2384,-0.2752,-0.2768,-0.2237,-0.2496,-0.2651,-0.2651,-0.253,-0.1764,-0.0277,-0.069,-0.0645,0.0,0.0,0.0,0.0,0.0,0.0,0.0,0.0,0.0,0.0,0.0,0.0,0.0,0.0,0.0,0.0,0.0,0.0,0.0,0.0,0.0,0.0,-0.2247,-0.3488,-0.3385,-0.5203,-0.6651,-0.6946,-0.6926,-0.6919,-0.7007,-0.6936,-0.6861,-0.68,-0.6654,-0.6539,-0.6474,-0.619,-0.6,-0.5935,-0.6257,-0.6979,-0.8092,-0.8424,-0.9209,-1.0374,-1.02,-1.0114,-1.0107,-0.9893,-0.9726,-0.9593,-0.9299,-0.9105,-0.8978,-0.8858,-0.8804,-0.8804,0.0,0.0,0.0,0.0,-0.8804,-0.8804,-0.8804,-0.8804,-0.8752,-0.8427,-0.8043,-0.7616,-0.7343,-0.6745,-0.6145,-0.6145,-0.5932,-0.5605,-0.5167,-0.5386,-0.5605,-0.5167,-0.5039,-0.4996,-0.5089,-0.4664,-0.4338,-0.4338,-0.4237,0.0,-0.3927,-0.3765,-0.367,-0.367,-0.3409,-0.3199,-0.3303,-0.2822,-0.2537,-0.2615,-0.2457,-0.22,-0.1838,-0.2231,0.0,0.0,0.0,-0.2701,-0.2961,-0.2741,0.0,0.0,0.0,-0.0494,0.0,0.0,0.0,0.0,-0.0538,-0.1148,0.0,0.0,0.0,0.0,0.0,0.0,0.0,0.0,0.0,0.0,0.0,0.0,0.0,0.0,0.0,0.0,-0.2036,-0.3646,-0.3783,-0.5489,-0.6936,-0.7343,-0.7251,-0.716,-0.7143,-0.7139,-0.7088,-0.6963,-0.6797,-0.6641,-0.6505,0.0,0.0,0.0,0.0,-0.6495,-0.7872,-0.7807,-0.8531,-0.9977,-1.0106,-1.0167,-1.0174,-1.0408,-1.0367,-1.01,-0.9813,-0.9512,-0.9163,-0.8965,-0.8858,-0.8851,-0.8824,-0.8804,-0.8804,-0.8804,-0.8804,-0.8804,-0.8804,0.0,0.0,-0.7937,-0.7563,-0.7343,-0.6691,-0.5982,-0.5378,-0.5378,-0.4948,-0.4519,-0.4519,-0.4519,-0.4519,-0.4519,-0.4519,-0.4519,-0.4519,-0.4519,-0.4519,-0.4519,-0.4358,-0.417,-0.4023,-0.3904,-0.3785,-0.3771,-0.3487,-0.3356,-0.3447,-0.2724,-0.219,-0.2126,-0.1662,0.0,-0.1262,-0.1483,-0.1737,-0.1919,-0.2235,-0.262,-0.3074,-0.2702,-0.236,-0.2088,-0.0793,-0.0058,0.0,0.0,0.0,-0.0045,-0.1076,-0.1436,0.0,0.0,0.0,0.0,0.0,0.0,0.0,0.0,0.0,0.0,0.0,0.0,0.0,0.0,0.0,0.0,-0.1366,-0.2735,-0.3831,-0.5133,-0.6341,-0.7302,-0.7346,-0.7278,-0.7153,-0.7139,-0.7129,-0.7102,-0.6851,-0.6688,-0.6658,-0.6257,-0.6017,-0.5986,-0.5867,-0.6205,-0.7085,-0.776,-0.8585,-0.9452,0.0,0.0,-1.053,-1.0287,-1.0174,-1.01,-0.9813,-0.9512,-0.9183,-0.9123,-0.9103,-0.9077,-0.8898,-0.8804,-0.8804,-0.8804,-0.8804,-0.8804,-0.8804,-0.8427,-0.7883,-0.7723,-0.6902,-0.5923,-0.576,-0.5218,0.0,-0.4677,-0.4625,-0.4519,-0.4519,-0.4519,-0.4519,-0.4519,-0.4519,-0.4519,-0.4519,-0.4519,-0.4519,-0.4519,-0.4494,-0.4375,-0.4177,-0.3975,-0.3751,-0.3639,-0.3466,-0.315,-0.2755,-0.2427,-0.2061,-0.1732,-0.1707,-0.1503,-0.1037,-0.1463,-0.1367,-0.0472,-0.1263,-0.1747,-0.1703,-0.2058,-0.2202,-0.2088,-0.1188,-0.0473,0.0,0.0,0.0,0.0,-0.0229,-0.0657,0.0,0.0,0.0,0.0,0.0,0.0,0.0,0.0,0.0,0.0,0.0,0.0,0.0,0.0,0.0,0.0,-0.1145,-0.2435,-0.3801,-0.5038,-0.6184,-0.7323,-0.7417,-0.7312,-0.7153,-0.7139,-0.7139,-0.7139,-0.6939,-0.6814,-0.6814,-0.6458,-0.622,-0.6146,-0.5996,-0.6233,-0.6869,-0.7346,-0.8117,-0.9274,-0.9722,-1.0174,-1.0618,-1.0408,-1.0341,-1.0321,-0.9592,-0.9145,-0.8943,-0.8403,-0.8033,-0.7911,-0.7856,-0.8136,-0.8457,-0.7878,-0.7723,-0.7723,-0.7723,-0.7456,-0.7074,-0.674,-0.6086,-0.5433,-0.5109,-0.4787,-0.4519,-0.4519,-0.4519,-0.4519,-0.4519,-0.4519,-0.4519,-0.4519,-0.4519,-0.4519,-0.4519,-0.4519,-0.4519,-0.4519,-0.4519,-0.4416,-0.422,-0.376,-0.3401,-0.3253,-0.285,-0.2588,-0.2679,-0.2017,-0.1628,-0.1793,-0.1246,-0.0779,-0.0494,-0.0984,-0.1098,-0.0505,-0.1258,-0.1675,-0.155,-0.184,-0.1855,-0.1499,-0.1115,-0.061,0.0,0.0,0.0,0.0,0.0,-0.0374,0.0,0.0,0.0,0.0,0.0,0.0,0.0,0.0,0.0835,0.0155,0.0,0.0,0.0,0.0,0.0,0.0,-0.0885,-0.2172,-0.3789,-0.4814,-0.5873,-0.7343,-0.7428,-0.7312,-0.7153,-0.7139,-0.7129,-0.7102,-0.6966,-0.6871,-0.6841,-0.658,-0.638,-0.6264,-0.6139,-0.6291,-0.6652,-0.6854,-0.7553,-0.8812,-0.8947,-0.9396,-1.0104,-1.0104,-1.0104,-1.0021,-0.8974,-0.8673,-0.8711,-0.7626,-0.6972,-0.6724,-0.6746,-0.7162,-0.7688,-0.6903,-0.6588,-0.6588,-0.6588,-0.6534,-0.6312,-0.5706,-0.5433,-0.5218,-0.468,-0.4519,-0.4519,-0.4519,-0.4519,-0.4519,-0.4519,-0.4519,-0.4519,-0.4519,-0.4519,-0.4519,-0.4519,-0.4519,-0.4519,-0.4519,-0.4405,-0.4258,-0.4094,-0.3324,-0.2774,-0.2863,-0.2255,-0.1968,-0.2446,-0.1586,-0.1071,-0.1555,-0.0638,0.0,0.0,-0.0468,-0.0734,-0.0733,-0.1282,-0.1555,-0.1463,-0.1555,-0.1323,-0.0725,-0.0725,-0.0499,0.0,0.0,0.0,0.0,0.0,-0.0244,0.0356,0.0071,0.0141,0.0,0.0074,0.015,0.0,0.0,0.0086,0.0,0.0,0.0,0.0,0.0,0.0,0.0,-0.01,-0.11,-0.344,-0.3856,-0.4691,-0.6863,-0.7299,-0.7312,-0.7153,-0.7139,-0.7088,-0.6963,-0.681,-0.6668,-0.6529,-0.6373,-0.6278,-0.6338,-0.6244,-0.6163,-0.5922,-0.6695,-0.7078,-0.6981,-0.7762,-0.8221,-0.8285,-0.8285,-0.8285,-0.8275,-0.785,-0.8057,-0.8711,-0.768,-0.7259,-0.7145,-0.6409,-0.6222,-0.6443,-0.6572,-0.6588,-0.6588,-0.6588,-0.6145,-0.5597,-0.5542,-0.5109,-0.457,-0.4515,-0.4519,-0.4519,-0.4519,-0.4519,-0.4519,-0.4519,-0.4519,-0.4519,-0.4519,-0.4519,-0.4519,-0.4519,-0.4519,-0.4519,-0.4519,-0.3959,-0.3508,-0.3495,-0.2275,-0.1682,-0.2725,-0.2297,-0.1649,-0.1202,-0.1002,-0.0703,-0.0252,-0.01,0.0,0.0,-0.005,-0.01,-0.01,-0.0647,-0.0746,-0.0199,-0.0697,-0.0736,-0.0095,-0.0095,-0.0047,0.0,0.0,0.0,0.0,0.0,-0.0049,0.0296,0.0,0.0,0.0,0.0,0.0,0.0,0.0,0.0,0.0,0.0,0.0,0.0,0.0,0.0,0.0,0.0,-0.0601,-0.2451,-0.3111,-0.3989,-0.5714,-0.6414,-0.6766,-0.6875,-0.6803,-0.6763,-0.6793,-0.682,-0.6766,-0.6614,-0.6549,-0.6474,-0.6386,-0.6217,-0.6064,-0.5935,-0.6118,-0.6437,-0.6819,-0.71,-0.7502,-0.8027,-0.8027,-0.7771,-0.7341,-0.714,-0.6925,-0.6792,-0.64,-0.6055,-0.5772,-0.5458,-0.5336,-0.5334,-0.5374,-0.5401,-0.5478,-0.5428,-0.5171,-0.4893,-0.4893,-0.4732,-0.4532,-0.4568,-0.4587,-0.4536,-0.4568,-0.4587,-0.4519,-0.4519,-0.4519,-0.4519,-0.4519,-0.4519,-0.4519,-0.4519,-0.4519,-0.4349,-0.3959,-0.3566,-0.3231,-0.2788,-0.1786,-0.1273,-0.1773,-0.1211,-0.0832,-0.0987,-0.0624,-0.026,-0.0052,0.0,0.0,0.0,0.0,0.0,0.0,-0.0252,-0.0252,0.0,-0.0252,-0.0248,0.0,0.0,0.0,0.0,0.0,0.0,0.0,0.0,0.0,0.023,0.0,0.0,0.0,0.0,0.0,0.0,0.0,0.0,0.0,0.0,0.0,0.0,0.0,0.0,0.0,0.0,-0.0497,-0.1753,-0.2581,-0.3508,-0.4857,-0.565,-0.6193,-0.6488,-0.6488,-0.6519,-0.6627,-0.6742,-0.6756,-0.6644,-0.66,-0.6546,-0.6474,-0.6227,-0.6071,-0.603,-0.582,-0.6036,-0.6598,-0.6471,-0.681,-0.7412,-0.7412,-0.7194,-0.686,-0.653,-0.6184,-0.5749,-0.5446,-0.5104,-0.4819,-0.4891,-0.4874,-0.4789,-0.4596,-0.4596,-0.467,-0.457,-0.4519,-0.4519,-0.4519,-0.4546,-0.4548,-0.4657,-0.4643,-0.4613,-0.4721,-0.4643,-0.458,-0.458,-0.4549,-0.4519,-0.4519,-0.4349,-0.4181,-0.4181,-0.4015,-0.3735,-0.3178,-0.2843,-0.2508,-0.2009,-0.1284,-0.0783,-0.0783,-0.0329,-0.0216,-0.0755,-0.0324,0.0,0.0,0.0,0.0,0.0,0.0,0.0,0.0,0.0,0.0,0.0,0.0,0.0,0.0,0.0,0.0,0.0,0.0,0.0,0.0,0.0,0.0,0.0,0.0,0.0,0.0,0.0,0.0,0.0,0.0,0.0,0.0,0.0,0.0,0.0,0.0,0.0,0.0,0.0,-0.039,-0.1624,-0.2438,-0.3325,-0.4565,-0.522,-0.5725,0.0,-0.6305,-0.6474,-0.6478,-0.6481,-0.6485,-0.6478,-0.6349,-0.6335,-0.6468,-0.6329,-0.6179,-0.603,-0.602,-0.5942,-0.5864,-0.5861,-0.5858,-0.5858,-0.5858,-0.6268,-0.6869,-0.5989,-0.603,-0.6576,-0.5513,-0.5128,-0.5104,-0.4969,-0.4999,-0.5081,-0.4792,-0.4687,-0.467,-0.457,-0.4519,-0.4519,-0.4519,-0.4562,-0.4684,-0.4691,-0.4792,-0.4908,-0.4911,-0.4802,-0.4684,-0.4684,-0.4572,-0.4519,-0.4519,-0.3901,-0.3345,-0.3345,-0.2788,-0.2286,-0.2232,-0.1675,-0.1174,-0.1118,-0.0504,-0.0056,-0.0056,0.0,0.0,-0.0056,0.0,0.0,0.0,0.0,0.0,0.0,0.0,0.0,0.0,0.0,0.0,0.0,0.0,0.0,0.0,0.0,0.0,0.0,0.0,0.0,0.0,0.0,0.0,0.0,0.0,0.0,0.0,0.0,0.0,0.0,0.0,0.0,0.0,0.0,0.0,0.0,0.0,0.0,0.0,0.0,-0.0096,-0.0572,-0.2123,-0.334,-0.3511,-0.5046,0.0,0.0,0.0,0.0,-0.6318,-0.6512,-0.658,-0.6478,-0.662,-0.6678,-0.6624,-0.6576,-0.6478,-0.6325,-0.623,-0.6105,-0.5952,-0.585,-0.58,-0.58,-0.58,-0.5971,-0.6295,-0.5811,-0.5818,-0.604,-0.5516,-0.5223,-0.5125,-0.5077,-0.5087,-0.5108,-0.4914,-0.4901,-0.4948,-0.4701,-0.4613,-0.4629,-0.4731,-0.4799,-0.486,-0.4955,-0.4952,-0.4918,-0.4918,-0.4809,-0.4667,-0.4565,-0.416,-0.3735,-0.3735,-0.3176,-0.2565,-0.2565,-0.2397,-0.2063,-0.1563,-0.1284,-0.095,-0.0448,-0.0168,0.0,0.0,0.0,0.0,0.0,0.0,0.0,0.0,0.0,0.0,0.0,0.0,0.0,0.0,0.0,0.0,0.0,0.0,0.0,0.0,0.0478,0.0743,0.0743,0.1245,0.1452,0.1483,0.1451,0.1486,0.0,0.0,0.0,0.0,0.0,0.0,0.0,0.0,0.0,0.0,0.0,0.0,0.0,0.0,0.0,0.0,0.0,0.0,0.0,-0.1916,-0.3249,-0.3121,-0.5025,-0.6339,0.0,0.0,0.0,-0.6254,-0.6532,-0.6658,-0.6559,-0.6742,-0.6827,-0.6783,-0.6729,-0.6654,-0.6556,-0.641,-0.6261,-0.6112,-0.6064,-0.6013,-0.5966,-0.5966,-0.5989,-0.602,-0.583,-0.5739,-0.5711,-0.5521,-0.5352,-0.5213,-0.5213,-0.5213,-0.5196,-0.5047,-0.5053,-0.5094,-0.4857,-0.4772,-0.4789,-0.4887,-0.4952,-0.5013,-0.5101,-0.5104,-0.5077,-0.5077,-0.4716,-0.4342,-0.4253,-0.3579,-0.2893,-0.2952,-0.2363,-0.1786,-0.1786,-0.1619,-0.1284,-0.0783,-0.0727,-0.056,-0.0056,0.0,0.0,0.0,0.0,0.0,0.0,0.0,0.0,0.0,0.0,0.0,0.0,0.0,0.0,0.0,0.0,0.0112,0.0392,0.0392,0.0499,0.0757,0.1243,0.1512,0.1512,0.1956,0.222,0.2211,0.2218,0.2205,0.0,0.0,0.0,0.0,0.0,0.0,0.0,0.0,0.0,0.0,0.0,0.0,0.0,0.0,0.0,0.0,0.0,0.0,0.0,-0.1848,-0.3175,0.0,0.0,0.0,0.0,0.0,0.0,-0.6329,0.0,-0.6722,-0.6722,-0.6729,-0.68,-0.6946,-0.6803,-0.6719,-0.6712,-0.6552,-0.6403,-0.6342,-0.6396,-0.6393,-0.6271,-0.6271,-0.619,-0.6054,-0.6044,-0.5878,-0.561,-0.5596,-0.5504,-0.5439,-0.5432,-0.5428,-0.5411,-0.5196,-0.5142,-0.5125,-0.4989,-0.4938,-0.4931,-0.4938,-0.5033,-0.5142,-0.5142,-0.5243,-0.5359,-0.5352,-0.4584,-0.3714,-0.371,-0.2944,-0.2173,-0.217,-0.1606,-0.1066,-0.1063,-0.0505,0.0,0.0,0.0,0.0,0.0,0.0,0.0,0.0,0.0,0.0,0.0,0.0,0.0,0.0,0.0,0.0,0.0,0.0,0.0,0.0,0.0,0.0336,0.1062,0.1118,0.1452,0.2174,0.2232,0.2228,0.2225,0.2284,0.2284,0.228,0.2339,0.2302,0.0,0.0,0.0,0.0,0.0,0.0,0.0,0.0,0.0,0.0,0.0,0.0,0.0,0.0,0.0,0.0,0.0,0.0,0.0,-0.2216,0.0,-0.358,0.0,-0.7251,-0.7102,-0.7156,0.0,0.0,-0.6987,-0.7027,-0.7027,-0.7139,-0.7217,-0.7258,-0.7109,-0.6976,-0.6871,-0.6607,-0.6403,-0.6338,-0.6298,-0.6349,-0.6417,-0.6417,-0.6396,-0.6352,-0.6247,-0.6095,-0.5901,-0.5681,-0.5566,-0.5518,-0.5473,-0.5428,-0.5422,-0.5318,-0.5304,-0.5298,-0.526,-0.5172,-0.5094,-0.5209,-0.5274,-0.5304,-0.5304,-0.486,-0.4331,-0.424,-0.3549,-0.2812,-0.2624,-0.2027,-0.139,-0.1358,-0.0833,-0.0297,-0.0283,-0.0114,0.0,0.0,0.0,0.0,0.0,0.0,0.0,0.0,0.0,0.0,0.0,0.0,0.0,0.0,0.0,0.0,0.0,0.0,0.0,0.0,0.0,0.0336,0.1062,0.1118,0.1452,0.2174,0.2732,0.2975,0.285,0.358,0.3854,0.3711,0.386,0.3938,0.0,0.0,0.0,0.0,0.0,0.0,0.0,0.0,0.0,0.0,0.0,0.0,0.0,0.0,0.0,0.0,0.0,0.0,0.0,-0.2298,-0.3861,0.0,-0.6138,0.0,-0.7546,-0.7553,-0.7526,0.0,-0.7377,-0.7312,-0.7244,-0.7322,-0.737,-0.737,-0.7221,-0.7071,-0.6929,-0.682,-0.6661,-0.6454,-0.6522,-0.6559,-0.6569,-0.6502,-0.6471,-0.6464,-0.6322,-0.6173,-0.6013,-0.5779,-0.5684,-0.5661,-0.5447,-0.547,-0.5454,-0.5452,-0.5428,-0.5428,-0.5428,-0.5304,-0.5247,-0.5332,-0.509,-0.4755,-0.4755,-0.4148,-0.34,-0.3346,-0.268,-0.1957,-0.1861,-0.1204,-0.0626,-0.0615,-0.0308,0.0,0.0,0.0,0.0,0.0,0.0,0.0,0.0,0.0,0.0,0.0,0.0,0.0,0.0,0.0,0.0,0.0,0.0,0.0,0.0,0.0,0.0112,0.0448,0.0504,0.095,0.2009,0.212,0.2454,0.3176,0.3624,0.3811,0.3743,0.4255,0.4423,0.4345,0.4426,0.4519,0.0,0.0,0.0,0.0,0.0,0.0,0.0,0.0,0.0,0.0,0.0,0.0,0.0,0.0,0.0,0.0,0.0,0.0,0.0,-0.2199,-0.3871,-0.399,-0.6232,-0.7892,-0.8028,-0.7919,-0.7841,-0.7841,-0.7709,-0.757,-0.7438,-0.7431,-0.7411,-0.7373,-0.7221,-0.7071,-0.6929,-0.7051,-0.6973,-0.6702,-0.6834,-0.6841,-0.6725,-0.6573,-0.6502,-0.6495,-0.6349,-0.6203,-0.6047,-0.5895,-0.583,-0.5803,-0.5528,-0.5501,-0.5599,-0.5447,-0.547,-0.5416,-0.5262,-0.5199,-0.5212,-0.5239,-0.4686,-0.3949,-0.3882,-0.3211,-0.2544,-0.2544,-0.1876,-0.114,-0.114,-0.0594,0.0,0.0,0.0,0.0,0.0,0.0,0.0,0.0,0.0,0.0,0.0,0.0,0.0,0.0,0.0,0.0,0.0,0.0,0.0,0.0,0.0112,0.0168,0.0168,0.0224,0.056,0.1229,0.1229,0.1842,0.3234,0.3345,0.3735,0.4463,0.4519,0.4508,0.4433,0.4508,0.4508,0.4433,0.4508,0.4519,0.0,0.0,0.0,0.0,0.0,0.0,0.0,0.0,0.0,0.0,0.0,0.0,0.0,0.0,0.0,0.0,0.0,0.0,0.0,0.0,-0.3933,0.0,0.0,0.0,0.0,0.0,0.0,0.0,-0.7862,-0.7763,-0.7736,-0.7736,-0.7624,-0.738,-0.7221,-0.7071,-0.6929,-0.6953,-0.6875,-0.6702,-0.6725,-0.6793,-0.6881,-0.6729,-0.6661,-0.6654,-0.6502,0.0,-0.621,-0.6054,-0.5989,-0.5973,-0.5793,-0.5742,-0.5745,-0.5603,-0.5627,-0.5563,-0.4607,-0.4289,-0.4409,-0.4282,-0.4148,-0.3882,-0.3145,-0.2277,-0.1541,-0.1541,-0.094,-0.0202,-0.0202,-0.0134,0.0,0.0,0.0,0.0,0.0,0.0,0.0,0.0,0.0,0.0,0.0,0.0,0.0,0.0,0.0,0.0,0.0,0.0,0.0,0.0,0.056,0.0895,0.0895,0.1452,0.1898,0.2009,0.2009,0.2397,0.3287,0.3345,0.3735,0.4463,0.4519,0.4402,0.4234,0.4406,0.4402,0.4234,0.4406,0.4519,0.0,0.0,0.0,0.0,0.0,0.0,0.0,0.0,0.0,0.0,0.0,0.0,0.0,0.0,0.0,0.0,0.0,0.0,0.0,0.0,0.0,0.0,0.0,0.0,0.0,0.0,0.0,0.0,-0.797,-0.7896,-0.7814,-0.7665,-0.7516,-0.7377,-0.7221,-0.7105,-0.7041,-0.7037,-0.7,-0.6929,-0.6929,-0.6929,-0.6922,-0.677,-0.6702,-0.6688,-0.6461,-0.6366,-0.6352,-0.6125,-0.6078,-0.6125,-0.5895,-0.585,-0.5901,-0.5752,-0.5383,-0.485,-0.4293,-0.3806,-0.3325,-0.2749,-0.2561,-0.2525,-0.2085,-0.1341,-0.0605,-0.0605,-0.0337,0.0,0.0,0.0,0.0,0.0,0.0,0.0,0.0,0.0,0.0,0.0,0.0,0.0,0.0,0.0,0.0,0.0,0.0,0.0112,0.0504,0.056,0.056,0.056,0.1229,0.1675,0.1675,0.2009,0.2343,0.2732,0.2788,0.3176,0.3901,0.3959,0.4125,0.4519,0.4519,0.4429,0.4362,0.4429,0.4426,0.4362,0.4429,0.4519,0.0,0.0,0.0,0.0,0.0,0.0,0.0,0.0,0.0,0.0,0.0,0.0,0.0,0.0,0.0,0.0,0.0,0.0,0.0,0.0,0.0,0.0,0.0,0.0,0.0,0.0,0.0,0.0,-0.8011,-0.7936,-0.7818,-0.7533,-0.737,-0.737,-0.7221,-0.7139,-0.7139,-0.7139,-0.7126,-0.7095,-0.7126,-0.7065,-0.6922,-0.677,-0.6719,-0.6729,-0.6403,-0.6342,-0.6451,-0.6186,-0.6149,-0.6237,-0.5993,-0.5821,-0.5679,-0.5536,-0.4843,-0.3907,-0.3666,-0.3086,-0.2287,-0.1322,-0.1153,-0.1262,-0.1092,-0.0545,0.0,0.0,0.0,0.0,0.0,0.0,0.0,0.0,0.0,0.0,0.0,0.0,0.0,0.0,0.0,0.0,0.0,0.0,0.0,0.0,0.0112,0.0448,0.1006,0.1396,0.1563,0.1563,0.212,0.2454,0.2454,0.2621,0.2954,0.3511,0.3624,0.3901,0.446,0.4519,0.4519,0.4519,0.4519,0.4519,0.4519,0.4519,0.4519,0.4519,0.4519,0.4519,0.0,0.0,0.0,0.0,0.0,0.0,0.0,0.0,0.0,0.0,0.0,0.0,0.0,0.0,0.0,0.0,0.0,0.0,0.0,0.0,0.0,0.0,0.0,0.0,0.0,0.0,0.0,0.0,-0.7913,-0.7824,-0.7811,-0.7533,-0.737,-0.737,-0.7221,-0.7139,-0.7139,-0.7139,-0.7075,-0.6949,-0.7078,-0.7065,-0.6922,-0.677,-0.6776,-0.6881,-0.6447,-0.6342,0.0,-0.6305,-0.6247,-0.6335,-0.623,-0.5678,-0.4815,-0.4693,-0.4033,-0.3018,-0.197,-0.1604,-0.1551,-0.0456,-0.0666,-0.1154,-0.0352,-0.0071,0.0,0.0,0.0,0.0,0.0,0.0,0.0,0.0,0.0,0.0,0.0,0.0,0.0,0.0,0.0,0.0,0.0,0.0,0.0,0.0,0.056,0.1006,0.1118,0.2286,0.3121,0.3121,0.3231,0.3289,0.3176,0.3846,0.4294,0.4405,0.4405,0.4408,0.4519,0.4519,0.4519,0.4519,0.4519,0.4519,0.4519,0.4519,0.4519,0.4519,0.4519,0.4519,0.0,0.0,0.0,0.0,0.0,0.0,0.0,0.0,0.0,0.0,0.0,0.0,0.0,0.0,0.0,0.0,0.0,0.0,0.0,0.0,0.0,0.0,0.0,0.0,0.0,0.0,0.0,-0.8038,-0.7818,-0.7685,-0.7685,-0.7485,-0.737,-0.737,-0.7221,-0.7139,-0.7139,-0.7139,-0.7068,-0.6929,-0.6987,-0.6936,-0.6787,-0.663,-0.6698,-0.6905,-0.6458,-0.6444,0.0,-0.575,-0.5361,-0.5422,-0.4636,-0.4139,-0.3744,-0.3707,-0.3023,-0.211,-0.1627,-0.1089,-0.0549,-0.0155,-0.0231,-0.0454,-0.0073,0.0,0.0,0.0,0.0,0.0,0.0,0.0,0.0,0.0,0.0,0.0,0.0,0.0,0.0,0.0,0.0,0.0,0.0,0.0,0.0123,0.0581,0.0922,0.1428,0.2293,0.2954,0.3511,0.3956,0.407,0.407,0.4015,0.4294,0.4519,0.4519,0.4519,0.4519,0.4519,0.4519,0.4519,0.4519,0.4519,0.4519,0.4519,0.4519,0.4519,0.4519,0.4519,0.4519,0.0,0.0,0.0,0.0,0.0,0.0,0.0,0.0,0.0,0.0,0.0,0.0,0.0,0.0,0.0,0.0,0.0,0.0,0.0,0.0,0.0,0.0,0.0,0.0,0.0,0.0,0.0,-0.7974,-0.774,-0.758,-0.7536,-0.7387,-0.7302,-0.7302,-0.7156,-0.7099,-0.7139,-0.7099,-0.7004,-0.6861,-0.6909,-0.6848,-0.6698,-0.6586,-0.6705,-0.6883,-0.6238,-0.6075,0.0,-0.4846,-0.4286,-0.4318,-0.3458,-0.289,-0.2657,-0.2657,-0.2034,-0.1098,-0.1098,-0.0628,0.0,0.0,0.0,0.0,0.0,0.0,0.0,0.0,0.0,0.0,0.0,0.0,0.0,0.0,0.0,0.0,0.0,0.0,0.0,0.0,0.0,0.0066,0.0315,0.0382,0.0634,0.144,0.1712,0.2209,0.3234,0.3532,0.3846,0.4463,0.4519,0.4519,0.4519,0.4519,0.4519,0.4519,0.4519,0.4519,0.4519,0.4519,0.4519,0.4519,0.4519,0.4519,0.4519,0.4519,0.4519,0.4519,0.4519,0.4519,0.0,0.0,0.0,0.0,0.0,0.0,0.0,0.0,0.0,0.0,0.0,0.0,0.0,0.0,0.0,0.0,0.0,0.0,0.0,0.0,0.0,0.0,0.0,0.0,0.0,0.0,0.0,-0.7814,-0.7682,0.0,-0.7383,-0.7227,-0.7143,-0.7143,-0.7004,-0.6997,-0.7139,-0.7,-0.6854,-0.6705,-0.6858,-0.6848,-0.6702,-0.6698,-0.6858,-0.7031,-0.5546,-0.5022,0.0,-0.3674,-0.3112,-0.3124,-0.3124,-0.2501,-0.1646,-0.1646,-0.0941,0.0,0.0,0.0,0.0,0.0,0.0,0.0,0.0,0.0,0.0,0.0,0.0,0.0,0.0,0.0,0.0,0.0,0.0,0.0,0.0,0.0,0.0,0.0,0.0,0.0267,0.1165,0.1288,0.1593,0.2532,0.317,0.3574,0.3574,0.41,0.4519,0.4519,0.4519,0.4519,0.4519,0.4519,0.4519,0.4519,0.4519,0.4519,0.4519,0.4519,0.4519,0.4519,0.4519,0.4519,0.4519,0.4519,0.4519,0.4519,0.4519,0.4519,0.0,0.0,0.0,0.0,0.0,0.0,0.0,0.0,0.0,0.0,0.0,0.0,0.0,0.0,0.0,0.0,0.0,0.0,0.0,0.0,0.0,0.0,0.0,0.0,0.0,0.0,-0.7665,-0.7665,-0.7529,-0.7377,-0.7221,-0.7166,-0.7095,-0.7,-0.6851,-0.6793,-0.6841,-0.6898,-0.68,-0.6546,-0.6702,-0.6749,-0.6698,-0.6593,-0.6341,-0.5874,-0.521,-0.4582,-0.401,-0.259,-0.2147,-0.2159,-0.134,-0.0784,-0.0471,-0.0471,-0.0314,0.0,0.0,0.0,0.0,0.0,0.0,0.0,0.0,0.0,0.0,0.0,0.0,0.0,0.0,0.0,0.0,0.0,0.0,0.0,0.0,0.0,0.0146,0.0775,0.0903,0.1163,0.2127,0.2248,0.2553,0.3303,0.3638,0.387,0.4302,0.4531,0.4619,0.4619,0.458,0.4519,0.4519,0.4519,0.4519,0.4519,0.4519,0.4567,0.4613,0.4573,0.4567,0.4616,0.457,0.4519,0.4519,0.4519,0.4732,0.5164,0.5164,0.5441,0.0,0.0,0.0,0.0,0.0,0.0,0.0,0.0,0.0,0.0,0.0,0.0,0.0,0.0,0.0,0.0,0.0,0.0,0.0,0.0,0.0,0.0,0.0,0.0,0.0,-0.7563,-0.7512,-0.7512,-0.737,-0.7217,-0.7068,-0.7007,-0.6909,-0.6763,-0.6719,-0.6702,-0.6702,-0.6797,-0.6719,-0.6474,-0.6685,-0.6502,-0.6028,-0.6021,-0.5499,-0.4718,-0.4038,-0.3418,0.0,-0.1542,-0.1042,-0.1052,-0.0317,0.0,0.0,0.0,0.0,0.0,0.0,0.0,0.0,0.0,0.0,0.0,0.0,0.0,0.0,0.0,0.0,0.0,0.0,0.0,0.0,0.0,0.0,0.0078,0.0539,0.0609,0.0899,0.1811,0.1998,0.2255,0.3184,0.3285,0.3515,0.4383,0.4355,0.4427,0.4817,0.4809,0.4755,0.4697,0.4657,0.4613,0.4555,0.4553,0.4519,0.4519,0.4573,0.4592,0.4687,0.4653,0.468,0.4775,0.4684,0.4633,0.4633,0.4575,0.4769,0.5206,0.5411,0.5804,0.0,0.0,0.0,0.0,0.0,0.0,0.0,0.0,0.0,0.0,0.0,0.0,0.0,0.0,0.0,0.0,0.0,0.0,0.0,0.0,0.0,0.0,0.0,0.0,0.0,-0.7356,-0.7356,-0.7356,-0.721,-0.7061,-0.6919,-0.6776,-0.6624,-0.6461,-0.6607,-0.6678,-0.6668,-0.6678,-0.6607,-0.6378,-0.6672,-0.6144,-0.4775,-0.5012,-0.4529,0.0,-0.2301,-0.1757,-0.1587,-0.0491,0.0,0.0,0.0,0.0,0.0,0.0,0.0,0.0,0.0,0.0,0.0,0.0,0.0,0.0,0.0,0.0,0.0,0.0,0.0,0.0,0.0,0.0,0.0,0.0079,0.0079,0.0392,0.1489,0.1693,0.1968,0.302,0.3183,0.3491,0.4421,0.4401,0.4607,0.5451,0.5338,0.5142,0.5131,0.5016,0.488,0.4735,0.484,0.4867,0.4731,0.4572,0.4539,0.4549,0.4673,0.4814,0.4838,0.4966,0.5104,0.5114,0.5104,0.5097,0.5097,0.4952,0.4872,0.4857,0.5425,0.5883,0.0,0.0,0.0,0.0,0.0,0.0,0.0,0.0,0.0,0.0,0.0,0.0,0.0,0.0,0.0,0.0,0.0,0.0,0.0,0.0,0.0,0.0,0.0,0.0,0.0,-0.7193,-0.7193,-0.7193,-0.7061,-0.6912,-0.6763,-0.6719,-0.658,-0.6318,-0.6451,-0.6474,-0.6366,-0.6471,-0.6048,-0.5121,-0.6086,-0.5544,-0.3684,-0.4524,-0.393,-0.2176,-0.1916,-0.1308,-0.0409,-0.008,0.0,0.0,0.0,0.0,0.0,0.0,0.0,0.0,0.0,0.0,0.0,0.0,0.0,0.0,0.0,0.0,0.0,0.0,0.0,0.0,0.0,0.0,0.0236,0.102,0.1254,0.1488,0.2501,0.2724,0.3004,0.4006,0.4196,0.4451,0.5309,0.5396,0.5378,0.5589,0.5426,0.5264,0.5145,0.5101,0.5067,0.503,0.4962,0.4948,0.502,0.4789,0.4687,0.4806,0.5362,0.5776,0.6002,0.6583,0.6959,0.705,0.6964,0.6887,0.6887,0.6835,0.673,0.6573,0.7253,0.76,0.1011,0.0504,0.0,0.0,0.0,0.0,0.0,0.0,0.0,0.0,0.0,0.0,0.0,0.0,0.0,0.0,0.0,0.0,0.0,0.0,0.0,0.0,0.0,0.0,0.0,-0.686,-0.7112,-0.7048,-0.6973,-0.6831,-0.6607,-0.6597,-0.6491,-0.6345,-0.6335,-0.6339,-0.6338,-0.6403,-0.5915,-0.4688,-0.5497,-0.4688,-0.2559,-0.3177,-0.2561,-0.0939,-0.0978,-0.0643,0.0,0.0,0.0,0.0,0.0,0.0,0.0,0.0,0.0,0.0,0.0,0.0,0.0,0.0,0.0,0.0,0.0,0.0,0.0,0.0,0.0395,0.0795,0.0787,0.1106,0.1666,0.2196,0.2268,0.2581,0.3593,0.3826,0.4121,0.5146,0.5363,0.5494,0.5949,0.5888,0.5793,0.5793,0.5606,0.5437,0.5352,0.56,0.5649,0.5138,0.5813,0.612,0.5757,0.5953,0.5912,0.551,0.6184,0.673,0.6987,0.7484,0.7783,0.7838,0.7788,0.7727,0.7727,0.7619,0.7506,0.7387,0.8045,0.8467,0.2174,0.1284,0.0336,0.0224,0.0168,0.0112,0.0,0.0,0.0,0.0,0.0,0.0,0.0,0.0,0.0,0.0,0.0,0.0,0.0,0.0,0.0,0.0,0.0,0.0,-0.5503,-0.6364,-0.6815,-0.6939,-0.6734,-0.6602,-0.6488,-0.6451,-0.6383,-0.6342,-0.6103,-0.6025,-0.6025,-0.6139,-0.5577,-0.4222,-0.4632,-0.3615,-0.138,-0.1616,-0.1145,0.0,0.0,0.0,0.0,0.0,0.0,0.0,0.0,0.0,0.0,0.0,0.0,0.0,0.0,0.0,0.0,0.0,0.0,0.0,0.0157,0.0235,0.0314,0.0392,0.1113,0.1765,0.181,0.2541,0.3284,0.3295,0.3357,0.3671,0.4688,0.4921,0.5237,0.6103,0.6338,0.6338,0.6338,0.6132,0.603,0.603,0.594,0.5828,0.5828,0.6487,0.6637,0.5721,0.703,0.7629,0.6691,0.7389,0.7552,0.674,0.724,0.7744,0.8094,0.8302,0.8415,0.8415,0.8415,0.8415,0.8415,0.8206,0.8083,0.7922,0.8526,0.8908,0.2174,0.2009,0.173,0.1062,0.0951,0.0783,0.0,0.0,0.0,0.0,0.0,0.0,0.0,0.0,0.0,0.0,0.0,0.0,0.0,0.0,0.0,0.0,0.0,-0.5445,-0.52,-0.5497,-0.6022,-0.6853,-0.5873,-0.5576,-0.6481,-0.6359,-0.6285,-0.6338,-0.5395,-0.4921,-0.4921,-0.494,-0.3999,-0.2115,-0.2992,-0.2312,-0.0244,-0.1193,-0.1038,0.0,0.0,0.0,0.0,0.0,0.0,0.0,0.0,0.0,0.0,0.0,0.0,0.0,0.0,0.0,0.0,0.0,0.0,0.0157,0.1097,0.1333,0.1567,0.2423,0.2118,0.1809,0.2659,0.2976,0.3374,0.4222,0.4453,0.4766,0.5786,0.6025,0.6103,0.6261,0.6338,0.6338,0.6338,0.6132,0.603,0.603,0.6596,0.7033,0.7033,0.7692,0.8091,0.7922,0.7987,0.7947,0.7782,0.8294,0.8691,0.8816,0.8747,0.918,1.009,1.0212,1.0168,1.0168,1.0168,1.0168,1.0168,1.0186,0.9656,0.8807,0.9509,0.9576,0.3456,0.3456,0.3178,0.2009,0.1396,0.0895,0.0168,0.0,0.0,0.0,0.0,0.0,0.0,0.0,0.0,0.0,0.0,0.0,0.0,0.0,-0.1525,0.0,0.0,-0.4127,-0.3351,-0.3957,-0.4592,-0.4939,-0.4467,-0.4232,-0.4607,-0.4636,-0.4608,-0.4608,-0.4062,-0.3593,-0.3049,-0.3049,-0.2582,-0.1568,-0.2035,-0.1497,0.0,-0.0473,-0.0474,0.0,0.0,0.0,0.0,0.0,0.0,0.0,0.0,0.0,0.0,0.0,0.0,0.0,0.0,0.0,0.0079,0.0706,0.0863,0.11,0.2225,0.2529,0.2666,0.3728,0.3778,0.3551,0.3853,0.4535,0.5159,0.5506,0.555,0.5709,0.6183,0.6338,0.6338,0.6338,0.6338,0.6338,0.6338,0.6656,0.698,0.698,0.7707,0.8298,0.8298,0.8889,0.916,0.8674,0.9209,0.9402,0.8936,0.9418,0.9768,0.9756,0.9837,1.0095,1.0555,1.0624,1.0624,1.0624,1.0624,1.0624,1.0624,1.0624,1.0362,0.9843,1.023,1.0168,0.4519,0.4349,0.3901,0.2565,0.0,0.1123,0.0229,0.0,0.0,0.0,0.0,0.0,0.0,0.0,0.0,0.0,0.0,0.0,0.0,-0.0705,-0.089,-0.0092,-0.1782,-0.2625,-0.1851,-0.2605,-0.3214,-0.341,-0.3159,-0.3039,-0.3103,-0.3098,-0.3091,-0.3073,-0.2858,-0.2404,-0.1632,-0.1329,-0.1254,-0.1254,-0.1254,-0.0784,0.0,0.0,0.0,0.0,0.0,0.0,0.0,0.0,0.0,0.0,0.0,0.0,0.0,0.0,0.0,0.0,0.0314,0.0392,0.0549,0.1645,0.1957,0.2201,0.3378,0.3582,0.3688,0.4903,0.5325,0.5344,0.5134,0.586,0.6539,0.6315,0.6338,0.6338,0.6338,0.6338,0.6338,0.6338,0.6338,0.6338,0.6644,0.7326,0.7859,0.8089,0.8926,0.9474,0.9474,1.0136,1.0259,0.9611,1.0436,1.0797,1.0062,1.0458,1.0561,1.0334,1.0601,1.0735,1.0732,1.0661,1.0661,1.0661,1.0658,1.0624,1.0624,1.0624,1.0624,1.0624,1.0628,1.0692,0.4519,0.3959,0.3176,0.2397,0.0,0.0,0.0302,0.0,0.0,0.0,0.0,0.0,0.0,0.0,0.0,0.0,0.0,0.0,0.0,0.0,-0.0092,0.0,-0.1165,-0.1847,-0.1776,-0.1851,-0.2329,-0.3325,-0.2351,-0.2148,-0.3033,-0.3102,-0.3069,-0.307,-0.2168,-0.1666,-0.159,-0.0621,-0.0079,-0.0079,-0.0079,-0.0079,0.0,0.0,0.0,0.0,0.0,0.0,0.0,0.0,0.0,0.0,0.0,0.0,0.0,0.0,0.0,0.0157,0.1176,0.1489,0.1646,0.2657,0.2968,0.3215,0.4421,0.4698,0.4867,0.6029,0.6398,0.6371,0.622,0.6274,0.6288,0.6345,0.6338,0.6338,0.6338,0.6338,0.6338,0.6338,0.6338,0.6567,0.7557,0.7783,0.8089,0.9074,1.0024,1.0685,1.0685,1.1348,1.1766,1.1688,1.15,1.1215,1.0949,1.0975,1.0955,1.0929,1.1202,1.1243,1.0969,1.0962,1.0962,1.0962,1.0759,1.0624,1.0624,1.0624,1.0624,1.0631,1.0835,1.0815,0.4519,0.4294,0.3735,0.2508,0.0,0.0,0.0,0.0,0.0,0.0,0.0,0.0,0.0,0.0,0.0,0.0,0.0,0.0,0.0,0.0,0.0,0.0,-0.0435,-0.0681,-0.066,-0.0659,-0.0815,-0.1273,-0.0862,-0.0771,-0.1135,-0.1191,-0.1184,-0.1191,-0.0828,-0.0609,-0.0619,-0.0234,0.0,0.0,0.0,0.0,0.0,0.0,0.0,0.0,0.0,0.0,0.0,0.0,0.0,0.0,0.0,0.0,0.0079,0.0784,0.102,0.1176,0.219,0.2503,0.2735,0.3748,0.4062,0.4314,0.5542,0.5814,0.5833,0.6465,0.6481,0.6349,0.6383,0.6393,0.6393,0.6393,0.6325,0.6338,0.6338,0.6338,0.649,0.7099,0.7249,0.7557,0.8542,0.9216,0.9814,1.019,1.1093,1.1694,1.1694,1.1978,1.2138,1.2138,1.1877,1.1583,1.1283,1.143,1.1456,1.1276,1.1363,1.1376,1.1269,1.1263,1.1176,1.0995,1.0882,1.0828,1.0828,1.0828,1.0922,1.1102,1.1209,1.1109,0.4505,0.4262,0.3799,0.0,0.0,0.0,0.0,0.0,0.0,0.0,0.0,0.0,0.0,0.0,0.0,0.0,0.0,0.0,0.0,0.0,0.0,0.0,0.0,0.0,0.0,0.0,0.0,0.0,0.0,0.0,0.0,0.0,0.0,0.0,0.0,0.0,0.0,0.0,0.0,0.0,0.0,0.0,0.0,0.0,0.0,0.0,0.0,0.0,0.0,0.0,0.0,0.0,0.0392,0.0471,0.0628,0.1723,0.2035,0.2192,0.3281,0.3593,0.3748,0.4844,0.5237,0.5338,0.6265,0.6407,0.6369,0.6573,0.6481,0.6349,0.6447,0.6471,0.6471,0.6471,0.6396,0.6329,0.6329,0.6599,0.6945,0.7629,0.8084,0.8613,0.9593,1.034,1.0938,1.1242,1.1848,1.2305,1.2305,1.2305,1.2305,1.2305,1.2044,1.179,1.1583,1.175,1.1784,1.1577,1.165,1.1663,1.157,1.1563,1.147,1.1276,1.1176,1.1129,1.1129,1.1129,1.1229,1.143,1.1523,1.1363,0.4423,0.3812,0.0,0.0,0.0,0.0,0.0,0.0,0.0,0.0,0.0,0.0,0.0,0.0,0.0,0.0,0.0,0.0,0.0,0.0,0.0,0.0,0.0,0.0,0.0,0.0,0.0,0.0,0.0,0.0,0.0,0.0,0.0,0.0,0.0,0.0,0.0,0.0,0.0,0.0,0.0,0.0,0.0,0.0,0.0,0.0,0.0,0.0,0.0,0.0,0.0,0.0157,0.1176,0.1568,0.1723,0.2735,0.3124,0.3279,0.4373,0.4688,0.4921,0.5944,0.6338,0.6288,0.6427,0.6471,0.6471,0.6471,0.6471,0.6471,0.6471,0.6471,0.6555,0.6474,0.6471,0.6551,0.6551,0.7211,0.7783,0.7859,0.8618,0.9669,1.0634,1.0783,1.1162,1.215,1.2305,1.2305,1.2305,1.2305,1.2305,1.2305,1.2044,1.187,1.187,1.187,1.187,1.187,1.2144,1.2171,1.1884,1.187,1.187,1.187,1.1583,1.143,1.143,1.143,1.143,1.1443,1.1737,1.1557,0.4508,0.0,0.0,0.0,0.0,0.0,0.0,0.0,0.0,0.0,0.0,0.0,0.0,0.0,0.0,0.0,0.0,0.0,0.0,0.0,0.0,0.0,0.0,0.0,0.0,0.0,0.0,0.0,0.0,0.0,0.0,0.0,0.0,0.0,0.0,0.0,0.0,0.0,0.0,0.0,0.0,0.0,0.0,0.0,0.0,0.0,0.0,0.0,0.0,0.0,0.0471,0.1176,0.1489,0.2035,0.2813,0.3826,0.4217,0.4373,0.547,0.5786,0.5867,0.6183,0.6338,0.6345,0.6312,0.6325,0.6342,0.6444,0.64,0.6346,0.6447,0.7189,0.7593,0.6795,0.7108,0.7573,0.7573,0.8216,0.9069,0.9734,1.0185,1.064,1.1694,1.1848,1.1996,1.2224,1.2305,1.2305,1.2305,1.2305,1.2305,1.2305,1.2225,1.2171,1.2171,1.2171,1.2171,1.2171,1.2258,1.2265,1.2178,1.2171,1.2078,1.187,1.1784,1.1737,1.1737,1.1737,1.1844,1.2044,1.2131,1.1971,0.4375,0.0,0.0,0.0,0.0,0.0,0.0,0.0,0.0,0.0,0.0,0.0,0.0,0.0,0.0,0.0,0.0,0.0,0.0,0.0,0.0,0.0,0.0,0.0,0.0,0.0,0.0,0.0,0.0,0.0,0.0,0.0,0.0,0.0,0.0,0.0,0.0,0.0,0.0,0.0,0.0,0.0,0.0,0.0,0.0,0.0,0.0,0.0,0.0,0.0471,0.102,0.1646,0.2504,0.3205,0.3904,0.4921,0.5315,0.5392,0.6103,0.6338,0.6338,0.6338,0.6338,0.6338,0.6338,0.6298,0.6349,0.638,0.6677,0.6973,0.7003,0.7915,0.8528,0.7492,0.8023,0.8688,0.8611,0.9289,1.0115,1.0708,1.1087,1.1651,1.2377,1.2378,1.2345,1.2458,1.2378,1.2305,1.2305,1.2305,1.2305,1.2305,1.2305,1.2305,1.2305,1.2305,1.2305,1.2305,1.2666,1.2879,1.2879,1.2519,1.2218,1.2044,1.2398,1.2606,1.2606,1.2606,1.2704,1.2879,1.2879,1.2501,0.421,0.0,0.0,0.0,0.0,0.0,0.0,0.0,0.0,0.0,0.0,0.0,0.0,0.007,0.0,0.0,0.0,0.0,0.0,0.0,0.0,0.0,0.0,0.0,0.0,0.0,0.0,0.0,0.0,0.0,0.0,0.0,0.0,0.0,0.0,0.0,0.0,0.0,0.0,0.0,0.0,0.0,0.0,0.0,0.0,0.0,0.0,0.0077,0.0235,0.1175,0.1724,0.2036,0.3986,0.4766,0.4999,0.5944,0.6338,0.6338,0.6338,0.6338,0.6338,0.6338,0.6338,0.6338,0.6338,0.6428,0.6583,0.645,0.7282,0.8064,0.7974,0.8763,0.9448,0.8492,0.9115,0.9932,0.9655,1.0357,1.0932,1.0932,1.1694,1.2398,1.2768,1.2498,1.2392,1.2741,1.2525,1.2371,1.2345,1.2365,1.2446,1.2493,1.2486,1.2479,1.2592,1.2586,1.2586,1.2586,1.3382,1.3818,1.3818,1.3025,1.2586,1.2586,1.3382,1.3818,1.3818,1.3818,1.3818,1.3818,1.3818,1.323,0.0,0.0,0.0,0.0,0.0,0.0,0.0,0.0,0.0,0.0,0.0,0.0,0.109,0.0433,0.0,0.0,0.0,0.0,0.0,0.0,0.0,0.0,0.0,0.0,0.0,0.0,0.0,0.0,0.0,0.0,0.0,0.0,0.0,0.0,0.0,0.0,0.0,0.0,0.0,0.0,0.0,0.0,0.0,0.0,0.0,0.0,0.0,0.0455,0.1297,0.1477,0.2582,0.4064,0.453,0.5237,0.6022,0.6183,0.6338,0.6338,0.6338,0.6338,0.6338,0.6338,0.6338,0.6338,0.6338,0.6894,0.7525,0.7488,0.8192,0.9047,0.9008,0.9919,1.0744,1.0307,1.0528,1.0774,1.0717,1.1356,1.1996,1.1996,1.215,1.2398,1.2768,1.2498,1.2325,1.2385,1.2752,1.2926,1.2679,1.2866,1.3229,1.3722,1.3761,1.4022,1.4545,1.4593,1.4593,1.4593,1.4736,1.4879,1.4879,1.4665,1.4593,1.4593,1.4807,1.4879,1.4879,1.4879,1.4879,1.4879,1.4879,1.4767,0.0,0.0,0.0,0.0,0.0,0.0,0.0,0.0,0.0,0.0,0.0,0.0,0.2066,0.1258,0.0619,0.0619,0.0269,0.0,0.0,0.0,0.0,0.0,0.0,0.0,0.0,0.0,0.0,0.0,0.0,0.0,0.0,0.0,0.0,0.0,0.0,0.0,0.0,0.0,0.0,0.0,0.0393,0.0863,0.1276,0.041,0.0209,0.0643,0.0652,0.1256,0.2266,0.2752,0.3635,0.4766,0.5237,0.5786,0.6338,0.6338,0.6338,0.6338,0.6338,0.6338,0.6416,0.6872,0.7022,0.7099,0.7557,0.8084,0.8542,0.8542,0.9216,1.004,1.004,1.0895,1.1652,1.1577,1.1677,1.1845,1.1639,1.1951,1.2305,1.2305,1.2305,1.2445,1.2893,1.2953,1.2846,1.2559,1.2913,1.3153,1.2986,1.3563,1.4129,1.4416,1.4772,1.5112,1.5435,1.5333,1.5234,1.5234,1.5658,1.586,1.586,1.6298,1.6088,1.5234,1.5658,1.586,1.586,1.586,1.586,1.586,1.586,1.5658,0.0,0.0,0.0,0.0,0.0,0.0,0.0,0.0,0.0,0.0,0.0,0.0,0.3029,0.2123,0.1478,0.147,0.0877,0.037,0.037,0.037,0.0308,0.0184,0.0184,0.0122,0.0,0.0,0.0,0.0,0.0,0.0,0.0,0.0,0.0,0.0,0.0,0.0,0.0,0.0123,0.0185,0.0185,0.108,0.1958,0.2678,0.1142,0.0885,0.1526,0.1541,0.2161,0.3222,0.4134,0.466,0.5076,0.5918,0.6237,0.6338,0.6338,0.6338,0.6338,0.6338,0.6416,0.6718,0.7557,0.7936,0.8237,0.9074,0.9448,0.9593,0.9593,1.0265,1.1087,1.1087,1.1694,1.2305,1.2305,1.2492,1.2681,1.2351,1.2305,1.2305,1.2305,1.2345,1.2518,1.2973,1.338,1.342,1.2995,1.3246,1.3571,1.3673,1.4543,1.5165,1.5265,1.5822,1.6108,1.6199,1.5837,1.5658,1.5658,1.6428,1.6853,1.6853,1.7579,1.7295,1.5728,1.6428,1.6853,1.6853,1.6853,1.6853,1.6853,1.6853,1.6428,0.0,0.0,0.0,0.0,0.0,0.0,0.0,0.0,0.0,0.0,0.0,0.3941,0.3711,0.2904,0.2296,0.2112,0.1971,0.1906,0.1906,0.1906,0.1644,0.1008,0.0946,0.0702,0.0057,0.0,0.0,0.0,0.0,0.0,0.0,0.0,0.0,0.0,0.0,0.0,0.0,0.0608,0.0923,0.0986,0.1903,0.2479,0.2678,0.2477,0.2415,0.2498,0.2619,0.326,0.4305,0.4477,0.5121,0.6089,0.6036,0.6142,0.6338,0.6338,0.6338,0.6338,0.6338,0.6872,0.7633,0.7783,0.8389,0.915,0.9221,0.9895,1.0565,1.0565,1.1316,1.2077,1.2077,1.2224,1.2305,1.2305,1.2331,1.2351,1.2311,1.2305,1.2305,1.2305,1.2512,1.2708,1.2458,1.3106,1.3586,1.3586,1.4275,1.5046,1.5734,1.6199,1.666,1.7278,1.7424,1.7497,1.7653,1.7686,1.7647,1.7647,1.7725,1.7794,1.7794,1.794,1.7862,1.7647,1.7725,1.7794,1.7794,1.7794,1.7794,1.7794,1.7794,1.7725,0.0,0.0,0.0,0.0,0.0,0.0,0.0,0.0,0.0,0.0,0.0,0.4517,0.4457,0.3707,0.3101,0.2998,0.2534,0.2214,0.2214,0.2214,0.2086,0.1771,0.1712,0.1589,0.1286,0.1229,0.1229,0.1229,0.1229,0.1229,0.1229,0.1229,0.1229,0.1229,0.1247,0.1257,0.1257,0.1564,0.2,0.2515,0.2964,0.35,0.4053,0.4185,0.3949,0.3418,0.3502,0.4129,0.5121,0.518,0.5568,0.6013,0.6118,0.6146,0.6142,0.623,0.6641,0.7176,0.7176,0.7783,0.8765,0.9286,0.9814,1.0265,1.0795,1.1323,1.162,1.162,1.1996,1.2305,1.2305,1.2305,1.2305,1.2305,1.2305,1.2305,1.2305,1.2305,1.2305,1.2305,1.2545,1.2872,1.3075,1.3662,1.4272,1.4688,1.5216,1.5723,1.6016,1.6759,1.7351,1.7653,1.8027,1.8261,1.8319,1.8144,1.8008,1.8008,1.8008,1.8008,1.8008,1.8008,1.8008,1.8008,1.8008,1.8008,1.8008,1.8008,1.8008,1.8008,1.8008,1.8008,0.0,0.0,0.0,0.0,0.0,0.0,0.0,0.0,0.0,0.0,0.5155,0.5033,0.5033,0.4383,0.3856,0.3826,0.3229,0.2788,0.2788,0.2788,0.2732,0.2508,0.2508,0.2397,0.2232,0.2174,0.2174,0.2174,0.2174,0.2174,0.2174,0.2174,0.2174,0.2174,0.2174,0.2174,0.2174,0.2397,0.2949,0.3868,0.3963,0.4381,0.5081,0.5233,0.497,0.4306,0.437,0.4863,0.5599,0.5705,0.5769,0.5823,0.6054,0.6098,0.6047,0.6506,0.7176,0.7859,0.8084,0.8841,0.982,1.0565,1.0932,1.1316,1.207,1.2305,1.2305,1.2305,1.2305,1.2305,1.2305,1.2305,1.2372,1.2592,1.2666,1.2592,1.2378,1.2305,1.2372,1.2592,1.2845,1.3227,1.3928,1.4515,1.5078,1.5755,1.6087,1.6321,1.6621,1.7382,1.7926,1.7926,1.8318,1.8594,1.8486,1.8193,1.8008,1.8008,1.8008,1.8008,1.8008,1.8008,1.8008,1.8008,1.8008,1.8008,1.8008,1.8008,1.8066,1.8164,1.8057,1.8066,0.0,0.0,0.0,0.0,0.0,0.0,0.0,0.0,0.0,0.0,0.5959,0.5462,0.5462,0.5042,0.4586,0.4497,0.4411,0.4405,0.4405,0.4405,0.4125,0.3345,0.3289,0.3065,0.2286,0.2174,0.2174,0.2174,0.2174,0.2174,0.2174,0.2174,0.2174,0.2174,0.2174,0.2174,0.2174,0.2954,0.3801,0.4632,0.4639,0.4723,0.4935,0.5077,0.5078,0.5028,0.5383,0.5583,0.5589,0.5599,0.5681,0.5803,0.582,0.5908,0.6122,0.7259,0.7783,0.7931,0.8917,0.989,1.0708,1.0783,1.1465,1.2224,1.2298,1.2305,1.2305,1.2305,1.2305,1.2305,1.2305,1.2305,1.2519,1.3455,1.36,1.3382,1.2519,1.2305,1.2592,1.3455,1.3615,1.3977,1.495,1.5332,1.5746,1.6438,1.6804,1.7288,1.8299,1.8521,1.8531,1.8531,1.8582,1.8477,1.8076,1.8018,1.8008,1.8008,1.8008,1.8008,1.8008,1.8008,1.8008,1.8008,1.8008,1.8008,1.8008,1.8008,1.8213,1.8523,1.8193,1.8223,0.0,0.0,0.0,0.0,0.0,0.0,0.0,0.0,0.0,0.0,0.6367,0.6199,0.6199,0.5333,0.458,0.4525,0.4519,0.4519,0.4519,0.4519,0.4405,0.4125,0.407,0.4015,0.368,0.368,0.368,0.368,0.368,0.368,0.368,0.368,0.368,0.368,0.368,0.368,0.368,0.3959,0.4265,0.4601,0.4643,0.4718,0.4775,0.4925,0.5351,0.5955,0.6081,0.5877,0.545,0.5549,0.5562,0.5538,0.5728,0.619,0.6905,0.7381,0.8491,0.9809,1.0115,1.0944,1.1768,1.1768,1.1996,1.2305,1.2305,1.2305,1.2305,1.2305,1.2305,1.2445,1.3025,1.3164,1.3455,1.4458,1.4665,1.4593,1.4235,1.3665,1.3528,1.445,1.4665,1.495,1.593,1.6184,1.6519,1.7382,1.7565,1.7808,1.8163,1.8232,1.8232,1.8232,1.8232,1.8174,1.8018,1.8008,1.8008,1.8008,1.8008,1.8008,1.8008,1.8008,1.8008,1.8008,1.8008,1.8144,1.8418,1.8418,1.8486,1.8633,1.8486,1.835,0.0,0.0,0.0,0.0,0.0,0.0,0.0,0.0,0.0,0.0,0.7074,0.6966,0.6966,0.5987,0.5117,0.4897,0.4625,0.4519,0.4519,0.4519,0.4519,0.4519,0.4519,0.4519,0.4519,0.4519,0.4519,0.4519,0.4519,0.4519,0.4519,0.4519,0.4519,0.4519,0.4519,0.4519,0.4519,0.4519,0.4519,0.4519,0.4844,0.4947,0.4955,0.5412,0.5996,0.6723,0.6728,0.6557,0.6284,0.6067,0.6116,0.6238,0.6179,0.6772,0.764,0.8264,0.9406,1.0745,1.1131,1.1768,1.2305,1.2305,1.2305,1.2305,1.2305,1.2305,1.2372,1.2666,1.2732,1.3025,1.3954,1.445,1.4871,1.5508,1.5658,1.5728,1.6088,1.5092,1.4522,1.5517,1.5658,1.5939,1.6932,1.707,1.7285,1.794,1.8008,1.8008,1.8008,1.8008,1.8008,1.8008,1.8008,1.8008,1.8008,1.8008,1.8008,1.8008,1.8144,1.8223,1.8223,1.8359,1.8369,1.8223,1.8359,1.8574,1.8857,1.8711,1.8711,1.8848,1.863,1.8408,0.0,0.0,0.0,0.0,0.0,0.0,0.0,0.0,0.0,0.0,0.8028,0.7723,0.7723,0.7128,0.6421,0.5706,0.5003,0.4574,0.4574,0.4574,0.4574,0.4574,0.4519,0.4515,0.4515,0.4519,0.4519,0.4519,0.4519,0.4519,0.4519,0.4519,0.4519,0.4519,0.4519,0.4519,0.4515,0.4515,0.4519,0.457,0.5218,0.5538,0.5546,0.6458,0.7072,0.7349,0.7461,0.7744,0.8016,0.7107,0.7242,0.7917,0.7194,0.7478,0.8419,0.9842,1.039,1.0587,1.1885,1.2291,1.2305,1.2305,1.2305,1.2305,1.2305,1.2298,1.2519,1.3455,1.3745,1.3954,1.495,1.593,1.6636,1.6636,1.6636,1.6922,1.7794,1.6585,1.5517,1.6498,1.6636,1.6922,1.7862,1.8008,1.8008,1.8008,1.8008,1.8008,1.8008,1.8008,1.8008,1.8008,1.8008,1.8018,1.8027,1.8027,1.8027,1.8027,1.8418,1.8582,1.8562,1.9053,1.9092,1.8592,1.9072,1.9297,1.9307,1.8867,1.8867,1.9277,1.8828,1.8398,0.6367,0.0,0.0,0.0,0.0,0.0,0.0,0.0,0.0,0.7846,0.7782,0.7883,0.8374,0.7883,0.7343,0.7122,0.6475,0.6046,0.6046,0.6046,0.6046,0.6046,0.5546,0.5218,0.5218,0.4787,0.4519,0.0,0.4519,0.4519,0.4519,0.4519,0.4519,0.4519,0.4519,0.4732,0.5218,0.5218,0.5492,0.6046,0.6204,0.6312,0.6312,0.6539,0.7128,0.7937,0.8187,0.8739,0.9432,0.8148,0.7762,0.7967,0.7766,0.8353,0.9332,0.974,1.059,1.1514,1.1886,1.2124,1.2305,1.2305,1.2305,1.2305,1.2305,1.2732,1.3382,1.36,1.4243,1.5021,1.593,1.6932,1.7579,1.7579,1.7579,1.7647,1.794,1.7579,1.7295,1.7579,1.7579,1.7716,1.794,1.8008,1.8008,1.8008,1.8008,1.8008,1.8008,1.8008,1.8008,1.8008,1.8008,1.8135,1.8437,1.8467,1.8467,1.8467,1.8867,1.8965,1.8582,1.9053,1.9228,1.9111,1.9228,1.9434,1.9736,1.9316,1.917,1.9268,1.8525,1.8115,0.0,0.0,0.0,0.0,0.0,0.0,0.6849,0.7136,0.7482,0.0,0.7674,0.8193,0.8382,0.814,0.7939,0.7982,0.7617,0.7172,0.6681,0.6588,0.6588,0.6588,0.6204,0.5982,0.5982,0.5605,0.5391,0.5391,0.5391,0.5391,0.5391,0.5391,0.5391,0.5391,0.5391,0.555,0.5982,0.5982,0.6204,0.6588,0.6912,0.7074,0.7074,0.7396,0.7919,0.8627,0.8783,0.9247,0.9894,0.9178,0.8966,0.9064,0.8678,0.9156,1.0111,1.0342,1.0972,1.1724,1.1964,1.2164,1.2305,1.2305,1.2592,1.2879,1.2879,1.3528,1.4386,1.4799,1.5587,1.6507,1.707,1.7579,1.8008,1.8008,1.8008,1.8008,1.8008,1.8008,1.8008,1.8008,1.8008,1.8008,1.8008,1.8008,1.8008,1.8008,1.8008,1.8008,1.8008,1.8008,1.8008,1.8008,1.8008,1.8105,1.835,1.8535,1.8562,1.8562,1.9561,2.007,1.9808,2.0576,2.0949,2.0834,2.0938,2.0969,2.0772,1.975,1.9189,1.8994,1.832,1.8008,0.0,0.0,0.0,0.0,0.0,0.0,0.7064,0.716,0.7194,0.6496,0.7523,0.8454,0.8021,0.8096,0.8243,0.8397,0.8397,0.8057,0.6988,0.6858,0.6858,0.6858,0.675,0.6696,0.6696,0.6642,0.6588,0.6588,0.6588,0.6588,0.6588,0.6588,0.6588,0.6588,0.6588,0.6642,0.6696,0.6696,0.675,0.6858,0.7503,0.783,0.783,0.848,0.8945,0.9137,0.917,0.9412,0.9706,1.0,1.0274,1.0451,0.9709,0.9932,1.0675,1.1189,1.1416,1.155,1.2071,1.2345,1.2445,1.2445,1.3098,1.3882,1.3882,1.4593,1.5517,1.6498,1.7364,1.8008,1.8008,1.8008,1.8008,1.8008,1.8008,1.8008,1.8008,1.8008,1.8008,1.8008,1.8008,1.8008,1.8008,1.8008,1.8008,1.8008,1.8008,1.8008,1.8008,1.8076,1.8134,1.8134,1.8202,1.8289,1.8339,1.8686,1.8924,1.8973,2.0596,2.1574,2.1574,2.282,2.3313,2.2958,2.3245,2.2999,2.2125,2.042,1.931,1.8824,1.8497,1.8387,0.0,0.0,0.0,0.0,0.0,0.0,0.7688,0.7408,0.7275,0.0,0.7142,0.7419,0.8158,0.8123,0.815,0.8644,0.8524,0.8369,0.8389,0.8374,0.8374,0.8374,0.783,0.7509,0.7509,0.6966,0.6588,0.6588,0.6588,0.6588,0.6588,0.6588,0.6588,0.6588,0.6588,0.6912,0.7503,0.7509,0.7777,0.8374,0.8533,0.8593,0.8593,0.8752,0.8838,0.8905,0.9084,0.9412,0.9706,1.0,1.0147,1.0227,1.0335,1.0573,1.0922,1.1035,1.1376,1.1797,1.1917,1.2604,1.3455,1.3455,1.4099,1.4879,1.4879,1.5579,1.6498,1.7432,1.7862,1.8008,1.8008,1.8008,1.8008,1.8008,1.8008,1.8008,1.8008,1.8008,1.8008,1.8008,1.8008,1.8008,1.8008,1.8008,1.8008,1.8008,1.8008,1.8008,1.8008,1.8596,1.9044,1.9044,1.9683,2.0227,2.0543,2.0651,2.0869,2.1319,2.2028,2.2501,2.2584,2.3195,2.347,2.338,2.3017,2.2831,2.2722,2.1889,2.1046,2.0216,2.0577,2.0512,0.0,0.0,0.0,0.8804,0.0,0.0,0.0,0.8162,0.8011,0.7772,0.7548,0.7519,0.8074,0.811,0.819,0.8537,0.847,0.8477,0.8764,0.8684,0.8591,0.8591,0.8274,0.8118,0.8249,0.7937,0.7723,0.7723,0.7723,0.7723,0.7723,0.7723,0.7723,0.7723,0.7723,0.7883,0.8262,0.8262,0.8427,0.8804,0.8804,0.8804,0.8804,0.8804,0.8804,0.8818,0.8965,0.9112,0.9279,0.9719,1.013,1.0512,1.0567,1.0735,1.1009,1.1156,1.149,1.1962,1.2599,1.3179,1.3818,1.4314,1.4961,1.561,1.5808,1.6576,1.7432,1.7872,1.8008,1.8008,1.8008,1.8008,1.8008,1.8008,1.8008,1.8144,1.8529,1.8337,1.8144,1.8596,1.8269,1.8008,1.8008,1.8008,1.8008,1.8008,1.8008,1.8134,1.8596,1.9044,1.9497,1.9879,2.0333,2.0691,2.0861,2.133,2.171,2.1956,2.3165,2.3883,2.3966,2.4637,2.4981,2.4981,2.4731,2.4469,2.4265,2.3922,2.2986,2.1396,2.1643,2.1621,0.0,0.0,0.0,0.0,0.0,0.8804,0.0,0.0,0.0,0.8317,0.0,0.0,0.0,0.0,0.0,0.0,0.0,0.0,0.0,0.8484,0.0,0.845,0.841,0.849,0.8778,0.8804,0.8804,0.8804,0.8804,0.8804,0.8804,0.8804,0.8804,0.8804,0.8804,0.8804,0.8804,0.8804,0.8804,0.8804,0.8804,0.8804,0.8804,0.8804,0.8804,0.8804,0.8804,0.8871,0.9011,0.9649,1.0365,1.1032,1.0911,1.1113,1.1469,1.1512,1.1895,1.253,1.3344,1.3901,1.4371,1.5072,1.5634,1.6136,1.6615,1.7309,1.791,1.7988,1.8008,1.8008,1.8008,1.8008,1.8008,1.8202,1.8269,1.8462,1.9177,1.8844,1.8654,1.9177,1.8854,1.8395,1.8076,1.8134,1.8269,1.8269,1.8395,1.8721,1.9431,1.9694,2.0074,2.0782,2.0974,2.1101,2.1101,2.1861,2.2422,2.2514,2.4176,2.5192,2.5288,2.5983,2.6302,2.6302,2.6269,2.5963,2.5598,2.5598,2.4621,2.2684,2.2844,2.2832,0.0,0.0,0.0,0.0,0.8804,0.0,0.8804,0.0,0.841,0.8363,0.0,0.0,0.0,0.0,0.0,0.0,0.0,0.0,0.8063,0.823,0.847,0.8731,0.853,0.849,0.8778,0.8804,0.8804,0.8804,0.8804,0.8804,0.8804,0.8804,0.8804,0.8804,0.8804,0.8804,0.8804,0.8804,0.8804,0.8804,0.8804,0.8804,0.8804,0.8804,0.8804,0.8804,0.8804,0.9105,0.9643,1.0429,1.1137,1.1729,1.168,1.2288,1.3036,1.236,1.2966,1.4146,1.3576,1.4611,1.6227,1.594,1.6187,1.6683,1.7183,1.7385,1.7529,1.791,1.8008,1.8008,1.8008,1.8008,1.8202,1.8977,1.9177,1.9177,1.9299,1.9814,2.0139,1.9431,1.9814,1.9814,1.8269,1.8664,1.9177,1.9177,1.9824,2.0333,2.0462,2.1112,2.1628,2.1753,2.2372,2.2811,2.2811,2.3393,2.3963,2.4446,2.5162,2.5777,2.6289,2.5963,2.5686,2.5686,2.5247,2.5197,2.5598,2.5598,2.519,2.4496,2.5008,2.4983,0.0,0.0,0.0,0.0,0.0,0.0,0.8804,0.0,0.8624,0.0,0.0,0.0,0.0,0.0,0.0,0.0,0.8624,0.0,0.0,0.0,0.8424,0.0,0.0,0.0,0.8778,0.8804,0.8804,0.8804,0.8804,0.8804,0.8804,0.8804,0.8804,0.8804,0.8804,0.8804,0.8804,0.8804,0.8804,0.8804,0.8804,0.8804,0.8804,0.8804,0.8804,0.8818,0.9507,0.9944,1.0275,1.1386,1.2298,1.3,1.3151,1.3277,1.3347,1.3028,1.3411,1.4179,1.4371,1.5074,1.5885,1.601,1.6325,1.6719,1.6641,1.6973,1.7422,1.7598,1.7822,1.8017,1.8207,1.8268,1.852,1.9329,1.9521,1.9788,2.0587,2.0719,2.0655,2.0782,2.0719,2.0398,1.9628,1.9824,2.0074,2.0074,2.0398,2.0782,2.1302,2.169,2.2075,2.258,2.2884,2.3215,2.3602,2.4155,2.4707,2.5234,2.5787,2.6214,2.6521,2.59,2.5598,2.5598,2.5084,2.5071,2.5598,2.5598,2.5649,2.5774,2.6,2.5975,0.8804,0.0,0.0,0.0,0.0,0.0,0.0,0.0,0.0,0.0,0.0,0.0,0.0,0.0,0.0,0.0,0.0,0.8778,0.0,0.8577,0.0,0.0,0.0,0.0,0.0,0.8804,0.8804,0.8804,0.8956,0.9008,0.8811,0.8956,0.9008,0.8811,0.8956,0.9008,0.8804,0.8956,0.8956,0.8804,0.8804,0.891,0.9061,0.9061,0.926,0.9609,1.0417,1.0895,1.117,1.2429,1.3345,1.3932,1.44,1.4315,1.395,1.3701,1.4001,1.4599,1.5156,1.5523,1.5716,1.6017,1.6201,1.6357,1.6566,1.7056,1.769,1.8116,1.8476,1.8772,1.9019,1.9052,1.9307,2.0104,2.0291,2.0579,2.167,2.1553,2.1428,2.1815,2.1553,2.129,2.129,2.1101,2.0974,2.0974,2.1164,2.1479,2.2125,2.2261,2.2445,2.3017,2.3078,2.3314,2.3728,2.4268,2.4883,2.5548,2.5988,2.6302,2.6521,2.5774,2.5385,2.5385,2.5008,2.5008,2.5385,2.5686,2.605,2.6533,2.6533,2.6533,0.0,0.0,0.0,0.8804,0.0,0.0,0.0,0.0,0.8804,0.0,0.0,0.0,0.0,0.0,0.0,0.0,0.0,0.0,0.0,0.0,0.0,0.0,0.0,0.0,0.0,0.8804,0.8804,0.8804,0.9413,0.9465,0.8857,0.9413,0.9458,0.8804,0.9413,0.9465,0.8811,0.9465,0.9465,0.8804,0.8804,0.9159,0.9762,0.9762,1.0345,1.1403,1.1464,1.1881,1.2613,1.3446,1.391,1.4255,1.504,1.5362,1.5245,1.4469,1.4967,1.595,1.5642,1.5991,1.6587,1.6211,1.5781,1.5723,1.7459,1.7985,1.832,2.0045,2.0515,2.0526,2.0504,2.0504,2.076,2.1592,2.1854,2.1854,2.1877,2.2506,2.2823,2.2063,2.2506,2.3005,2.3005,2.2384,2.1877,2.1877,2.2506,2.3005,2.3078,2.3078,2.3078,2.3078,2.3078,2.3078,2.3103,2.369,2.4481,2.5523,2.5611,2.5875,2.6508,2.5423,2.4845,2.4845,2.4833,2.4833,2.4845,2.5912,2.6508,2.6533,2.6533,2.6533,0.8804,0.8804,0.8804,0.8804,0.0,0.0,0.0,0.0,0.0,0.0,0.0,0.0,0.0,0.0,0.0,0.0,0.0,0.0,0.0,0.0,0.0,0.0,0.0,0.0,0.0,0.0,0.8804,0.8804,0.9008,0.9211,0.9458,0.9666,0.9917,1.0115,1.0364,1.0364,1.0115,1.0364,1.0364,1.0115,1.0115,1.0387,1.0922,1.0922,1.1276,1.1919,1.2718,1.315,1.3473,1.4438,1.4926,1.4991,1.5294,1.541,1.5352,1.5108,1.5436,1.6084,1.5965,1.584,1.589,1.6262,1.6526,1.6926,1.8017,1.8731,1.9364,1.9946,2.0333,2.064,2.08,2.083,2.1087,2.1968,2.1888,2.1827,2.2541,2.2598,2.258,2.2688,2.2884,2.3078,2.3078,2.2884,2.2689,2.2689,2.2944,2.3078,2.3078,2.3078,2.3078,2.3078,2.3078,2.3288,2.3665,2.4217,2.4695,2.5059,2.541,2.5686,2.5887,2.5197,2.4983,2.5322,2.4644,2.4619,2.5335,2.5711,2.6088,2.6533,2.6533,2.6533,0.8931,0.8884,0.8804,0.8804,0.8804,0.8804,0.8804,0.0,0.8857,0.0,0.0,0.0,0.0,0.0,0.0,0.0,0.0,0.0,0.0,1.0813,0.0,0.0,0.0,0.0,0.0,0.9061,0.9008,0.9458,0.951,0.9718,1.0115,1.0364,1.0618,1.0813,1.1015,1.1065,1.0813,1.1065,1.1065,1.0813,1.0813,1.1165,1.1851,1.1851,1.2297,1.309,1.3858,1.4232,1.4439,1.5119,1.541,1.541,1.541,1.5508,1.5644,1.5644,1.6025,1.6514,1.6357,1.6384,1.6577,1.6722,1.7222,1.7923,1.868,1.9424,2.0162,2.0661,2.1082,2.1534,2.1692,2.1729,2.186,2.223,2.2184,2.2221,2.2736,2.2711,2.2711,2.3002,2.3078,2.3078,2.3078,2.3078,2.3078,2.3078,2.3078,2.3078,2.3078,2.3078,2.3078,2.3078,2.3078,2.3288,2.3665,2.4205,2.4531,2.4531,2.5197,2.5598,2.5598,2.5096,2.5159,2.5887,2.4833,2.482,2.59,2.59,2.6101,2.6533,2.6533,2.6533]}]]